[[{"header":{"parameterUnit":"m.s-1","parameterCategory":1,"la1":30.6,"la2":29.2853,"lo1":-89.7004,"lo2":-87.6739,"dy":0.0162,"dx":0.0183,"nx":112,"ny":82,"refTime":"2023-04-06T06:00:00:Z","depth":0,"parameterNumber":2,"parameterNumberName":"U-component_of_WINDS"},"data":[0.0,0.0,0.0,0.0,0.0,0.0,0.0,0.0,0.0,0.0,0.0,0.0,0.0,0.0,0.0,0.0,0.0,0.0,0.0,0.0,0.0,0.0,0.0,0.0,0.0,0.0,0.0,0.0,0.0,0.0,0.0,0.0,0.0,0.0,0.0,0.0,0.0,0.0,0.0,0.0,0.0,0.0,0.0,0.0,0.0,0.0,0.0,0.0,0.0,0.0,0.0,0.0,0.0,0.0,0.0,0.0,0.0,0.0,0.0,0.0,0.0,0.0,0.0,0.0,0.0,0.0,0.0,0.0,0.0,0.0,0.0,0.0,0.0,0.0,0.0,0.0,0.0,0.0,0.0,0.0,0.0,0.0,0.0,0.0,0.0,0.0,0.0,0.0,0.0,0.0,-2.5306,-2.4572,-2.4531,-2.3986,-2.261,-2.0888,-1.8776,-1.6241,0.0,0.0,0.0,0.0,0.0,0.0,0.0,0.0,0.0,0.0,0.0,0.0,0.0,0.0,0.0,0.0,0.0,0.0,0.0,0.0,0.0,0.0,0.0,0.0,0.0,0.0,0.0,0.0,0.0,0.0,0.0,0.0,0.0,0.0,0.0,0.0,0.0,0.0,0.0,0.0,0.0,0.0,0.0,0.0,0.0,0.0,0.0,0.0,0.0,0.0,0.0,0.0,0.0,0.0,0.0,0.0,0.0,0.0,0.0,0.0,0.0,0.0,0.0,0.0,0.0,0.0,0.0,0.0,0.0,0.0,0.0,0.0,0.0,0.0,0.0,0.0,0.0,0.0,0.0,0.0,0.0,0.0,0.0,0.0,0.0,0.0,0.0,0.0,0.0,0.0,0.0,0.0,0.0,0.0,0.0,0.0,0.0,0.0,0.0,0.0,0.0,0.0,0.0,0.0,-2.6135,-2.665,-2.5532,-2.4157,-2.2614,-1.9887,-1.7376,-1.5329,0.0,0.0,0.0,0.0,0.0,0.0,0.0,0.0,0.0,0.0,0.0,0.0,0.0,0.0,0.0,0.0,0.0,0.0,0.0,0.0,0.0,0.0,0.0,0.0,0.0,0.0,0.0,0.0,0.0,0.0,0.0,0.0,0.0,0.0,0.0,0.0,0.0,0.0,0.0,0.0,0.0,0.0,0.0,0.0,0.0,0.0,0.0,0.0,0.0,0.0,0.0,0.0,0.0,0.0,0.0,0.0,0.0,0.0,0.0,0.0,0.0,0.0,0.0,0.0,0.0,0.0,0.0,0.0,0.0,0.0,0.0,0.0,0.0,0.0,0.0,0.0,0.0,0.0,0.0,0.0,0.0,0.0,0.0,0.0,0.0,0.0,0.0,0.0,0.0,0.0,0.0,0.0,0.0,0.0,0.0,0.0,0.0,0.0,0.0,0.0,0.0,0.0,0.0,-2.466,-2.5409,-2.6088,-2.5252,-2.3976,-2.2322,-1.9294,-1.6714,-1.4849,-1.3628,0.0,0.0,0.0,0.0,0.0,0.0,0.0,0.0,0.0,0.0,0.0,0.0,0.0,0.0,0.0,0.0,0.0,0.0,0.0,0.0,0.0,0.0,0.0,0.0,0.0,0.0,0.0,0.0,0.0,0.0,0.0,0.0,0.0,0.0,0.0,0.0,0.0,0.0,0.0,0.0,0.0,0.0,0.0,0.0,0.0,0.0,0.0,0.0,0.0,0.0,0.0,0.0,0.0,0.0,0.0,0.0,0.0,0.0,0.0,0.0,0.0,0.0,0.0,0.0,0.0,0.0,0.0,0.0,0.0,0.0,0.0,0.0,0.0,0.0,0.0,0.0,0.0,0.0,0.0,0.0,0.0,0.0,0.0,0.0,0.0,0.0,0.0,0.0,0.0,0.0,0.0,0.0,0.0,0.0,0.0,0.0,0.0,0.0,0.0,0.0,0.0,0.0,-2.4371,-2.447,-2.5087,-2.4513,-2.3408,-2.1825,-1.8716,-1.6173,-1.4592,-1.2213,0.0,0.0,0.0,0.0,0.0,0.0,0.0,0.0,0.0,0.0,0.0,0.0,0.0,0.0,0.0,0.0,0.0,0.0,0.0,0.0,0.0,0.0,0.0,0.0,0.0,0.0,0.0,0.0,0.0,0.0,0.0,0.0,0.0,0.0,0.0,0.0,0.0,0.0,0.0,0.0,0.0,0.0,0.0,0.0,0.0,0.0,0.0,0.0,0.0,0.0,0.0,0.0,0.0,0.0,0.0,0.0,0.0,0.0,0.0,0.0,0.0,0.0,0.0,0.0,0.0,0.0,0.0,0.0,0.0,0.0,0.0,0.0,0.0,0.0,0.0,0.0,0.0,0.0,0.0,0.0,0.0,0.0,0.0,0.0,0.0,0.0,0.0,0.0,0.0,0.0,0.0,0.0,0.0,0.0,0.0,0.0,0.0,0.0,0.0,0.0,0.0,0.0,-2.4171,-2.4061,-2.4671,-2.3573,-2.2351,-2.1154,-1.7823,-1.5394,-1.4459,-1.1406,0.0,0.0,0.0,0.0,0.0,0.0,0.0,0.0,0.0,0.0,0.0,0.0,0.0,0.0,0.0,0.0,0.0,0.0,0.0,0.0,0.0,0.0,0.0,0.0,0.0,0.0,0.0,0.0,0.0,0.0,0.0,0.0,0.0,0.0,0.0,0.0,0.0,0.0,0.0,0.0,0.0,0.0,0.0,0.0,0.0,0.0,0.0,0.0,0.0,0.0,0.0,0.0,0.0,0.0,0.0,0.0,0.0,0.0,0.0,0.0,0.0,0.0,0.0,0.0,0.0,0.0,0.0,0.0,0.0,0.0,0.0,0.0,0.0,0.0,0.0,0.0,0.0,0.0,0.0,0.0,0.0,0.0,0.0,0.0,0.0,0.0,0.0,0.0,0.0,0.0,0.0,0.0,0.0,0.0,0.0,0.0,0.0,0.0,0.0,0.0,0.0,0.0,-2.4441,-2.467,-2.4588,-2.38,-2.2503,-2.0667,-1.746,-1.5072,-1.3851,0.0,0.0,0.0,0.0,0.0,0.0,0.0,0.0,0.0,0.0,0.0,0.0,0.0,0.0,0.0,0.0,0.0,0.0,0.0,0.0,0.0,0.0,0.0,0.0,0.0,0.0,0.0,0.0,0.0,0.0,0.0,0.0,0.0,0.0,0.0,0.0,0.0,0.0,0.0,0.0,0.0,0.0,0.0,0.0,0.0,0.0,0.0,0.0,0.0,0.0,0.0,0.0,0.0,0.0,0.0,0.0,0.0,0.0,0.0,0.0,0.0,0.0,0.0,0.0,0.0,0.0,0.0,0.0,0.0,0.0,0.0,0.0,0.0,0.0,0.0,0.0,0.0,0.0,0.0,0.0,0.0,0.0,0.0,0.0,0.0,0.0,0.0,0.0,0.0,0.0,0.0,0.0,0.0,0.0,0.0,0.0,0.0,0.0,0.0,0.0,0.0,0.0,-2.3604,-2.439,-2.4696,-2.4155,-2.3367,-2.2012,-1.9856,-1.6788,-1.4429,-1.3184,0.0,0.0,0.0,0.0,0.0,0.0,0.0,0.0,0.0,0.0,0.0,0.0,0.0,0.0,0.0,0.0,0.0,0.0,0.0,0.0,0.0,0.0,0.0,0.0,0.0,0.0,0.0,0.0,0.0,0.0,0.0,0.0,0.0,0.0,0.0,0.0,0.0,0.0,0.0,0.0,0.0,0.0,0.0,0.0,0.0,0.0,0.0,0.0,0.0,0.0,0.0,0.0,0.0,0.0,0.0,0.0,0.0,0.0,0.0,0.0,0.0,0.0,0.0,0.0,0.0,0.0,0.0,0.0,0.0,0.0,0.0,0.0,0.0,0.0,0.0,0.0,0.0,0.0,0.0,0.0,0.0,0.0,0.0,0.0,0.0,0.0,0.0,0.0,0.0,0.0,0.0,0.0,0.0,0.0,0.0,0.0,0.0,0.0,0.0,0.0,0.0,0.0,-2.3664,-2.4001,-2.3945,-2.3271,-2.2104,-2.0604,-1.8653,-1.5622,-1.3426,0.0,0.0,0.0,0.0,0.0,0.0,0.0,0.0,0.0,0.0,0.0,0.0,0.0,0.0,0.0,0.0,0.0,0.0,0.0,0.0,0.0,0.0,0.0,0.0,0.0,0.0,0.0,0.0,0.0,0.0,0.0,0.0,0.0,0.0,0.0,0.0,0.0,0.0,0.0,0.0,0.0,0.0,0.0,0.0,0.0,0.0,0.0,0.0,0.0,0.0,0.0,0.0,0.0,0.0,0.0,0.0,0.0,0.0,0.0,0.0,0.0,0.0,0.0,0.0,0.0,0.0,0.0,0.0,0.0,0.0,0.0,0.0,0.0,0.0,0.0,0.0,0.0,0.0,0.0,0.0,0.0,0.0,0.0,0.0,0.0,0.0,0.0,0.0,0.0,0.0,0.0,0.0,0.0,0.0,0.0,0.0,0.0,0.0,0.0,0.0,0.0,0.0,0.0,-2.3895,-2.3693,-2.3167,-2.2375,-2.1062,-1.961,-1.7995,-1.5244,-1.3008,-1.1667,0.0,0.0,0.0,0.0,0.0,0.0,0.0,0.0,0.0,0.0,0.0,0.0,0.0,0.0,0.0,0.0,0.0,0.0,0.0,0.0,0.0,0.0,0.0,0.0,0.0,0.0,0.0,0.0,0.0,0.0,0.0,0.0,0.0,0.0,0.0,0.0,0.0,0.0,0.0,0.0,0.0,0.0,0.0,0.0,0.0,0.0,0.0,0.0,0.0,0.0,0.0,0.0,0.0,0.0,0.0,0.0,0.0,0.0,0.0,0.0,0.0,0.0,0.0,0.0,0.0,0.0,0.0,0.0,0.0,0.0,0.0,0.0,0.0,0.0,0.0,0.0,0.0,0.0,0.0,0.0,0.0,0.0,0.0,0.0,0.0,0.0,0.0,0.0,0.0,0.0,0.0,0.0,0.0,0.0,0.0,0.0,0.0,0.0,0.0,0.0,0.0,0.0,-2.3479,-2.2836,-2.2232,-2.1928,-2.0446,-1.8859,-1.7315,-1.4776,-1.2626,-1.1137,0.0,0.0,0.0,0.0,0.0,0.0,0.0,0.0,0.0,0.0,0.0,0.0,0.0,0.0,0.0,0.0,0.0,0.0,0.0,0.0,0.0,0.0,0.0,0.0,0.0,0.0,0.0,0.0,0.0,0.0,0.0,0.0,0.0,0.0,0.0,0.0,0.0,0.0,0.0,0.0,0.0,0.0,0.0,0.0,0.0,0.0,0.0,0.0,0.0,0.0,0.0,0.0,0.0,0.0,0.0,0.0,0.0,0.0,0.0,0.0,0.0,0.0,0.0,0.0,0.0,0.0,0.0,0.0,0.0,0.0,0.0,0.0,0.0,0.0,0.0,0.0,0.0,0.0,0.0,0.0,0.0,0.0,0.0,0.0,0.0,0.0,0.0,0.0,0.0,0.0,0.0,0.0,0.0,0.0,0.0,0.0,0.0,0.0,0.0,0.0,0.0,0.0,-2.2733,-2.1756,-2.119,-2.1643,-1.9979,-1.8178,-1.6692,-1.4319,-1.2328,-1.0957,0.0,0.0,0.0,0.0,0.0,0.0,0.0,0.0,0.0,0.0,0.0,0.0,0.0,0.0,0.0,0.0,0.0,0.0,0.0,0.0,0.0,0.0,0.0,0.0,0.0,0.0,0.0,0.0,0.0,0.0,0.0,0.0,0.0,0.0,0.0,0.0,0.0,0.0,0.0,0.0,0.0,0.0,0.0,0.0,0.0,0.0,0.0,0.0,0.0,0.0,0.0,0.0,0.0,0.0,0.0,0.0,0.0,0.0,0.0,0.0,-2.529,-2.4874,0.0,0.0,0.0,0.0,0.0,0.0,0.0,0.0,0.0,0.0,0.0,0.0,0.0,0.0,0.0,0.0,0.0,0.0,0.0,0.0,0.0,0.0,0.0,0.0,0.0,0.0,0.0,0.0,0.0,0.0,0.0,0.0,0.0,0.0,0.0,0.0,0.0,0.0,0.0,0.0,-2.3635,-2.1761,-2.0318,-2.0328,-1.8578,-1.7117,-1.6362,-1.4299,-1.2559,-1.1428,-0.9478,0.0,0.0,0.0,0.0,0.0,0.0,0.0,0.0,0.0,0.0,0.0,0.0,0.0,0.0,0.0,0.0,0.0,0.0,0.0,0.0,0.0,0.0,0.0,0.0,0.0,0.0,0.0,0.0,0.0,0.0,0.0,0.0,0.0,0.0,0.0,0.0,0.0,0.0,0.0,0.0,0.0,0.0,0.0,0.0,0.0,0.0,0.0,0.0,0.0,0.0,0.0,0.0,0.0,0.0,0.0,0.0,0.0,0.0,0.0,-2.7018,-2.5977,0.0,0.0,0.0,0.0,0.0,0.0,0.0,0.0,0.0,0.0,0.0,0.0,0.0,0.0,0.0,0.0,0.0,0.0,0.0,0.0,0.0,0.0,0.0,0.0,0.0,0.0,0.0,0.0,0.0,0.0,0.0,0.0,0.0,0.0,0.0,0.0,0.0,0.0,0.0,0.0,-2.2927,-2.0957,-1.9473,-1.9459,-1.7774,-1.648,-1.6008,-1.3967,-1.2445,-1.1877,-0.9638,0.0,0.0,0.0,0.0,0.0,0.0,0.0,0.0,0.0,0.0,0.0,0.0,0.0,0.0,0.0,0.0,0.0,0.0,0.0,0.0,0.0,0.0,0.0,0.0,0.0,0.0,0.0,0.0,0.0,0.0,0.0,0.0,0.0,0.0,0.0,0.0,0.0,0.0,0.0,0.0,0.0,0.0,0.0,0.0,0.0,0.0,0.0,0.0,0.0,0.0,0.0,0.0,0.0,-2.9212,-2.9507,-3.0086,-3.0443,-3.0013,-2.9024,-2.9901,-2.8197,-2.4969,-2.6718,0.0,0.0,0.0,0.0,0.0,0.0,0.0,0.0,0.0,0.0,0.0,0.0,0.0,0.0,0.0,0.0,0.0,0.0,0.0,0.0,0.0,0.0,-2.8697,-2.9314,-2.916,-2.8397,-2.6505,0.0,0.0,0.0,0.0,0.0,0.0,0.0,0.0,0.0,0.0,0.0,-2.1877,-2.0194,-1.9033,-1.9237,-1.7573,-1.6338,-1.598,-1.3866,-1.2579,-1.2542,-1.0126,-0.9658,0.0,0.0,0.0,0.0,0.0,0.0,0.0,0.0,0.0,0.0,0.0,0.0,0.0,0.0,0.0,0.0,0.0,0.0,0.0,0.0,0.0,0.0,0.0,0.0,0.0,0.0,0.0,0.0,0.0,0.0,0.0,0.0,-2.9726,-2.8944,0.0,0.0,0.0,0.0,0.0,0.0,0.0,0.0,0.0,0.0,0.0,0.0,0.0,-3.0597,-2.9886,-2.975,-2.943,-2.8871,-3.0477,-3.104,-3.0843,-3.2581,-3.3467,-3.3587,-3.3412,0.0,-2.7705,-2.5954,0.0,0.0,0.0,0.0,0.0,0.0,0.0,0.0,0.0,0.0,0.0,0.0,0.0,0.0,0.0,0.0,0.0,0.0,0.0,0.0,0.0,0.0,-2.9601,-2.9584,-2.9399,-2.9044,-2.8297,-2.7416,-2.6753,-2.6399,-2.5525,0.0,0.0,0.0,0.0,0.0,0.0,0.0,-2.2183,-2.0677,-1.9809,-2.0179,-1.8336,-1.705,-1.7026,-1.4971,-1.3729,-1.3852,-1.22,-1.1502,-1.2101,-1.1216,0.0,0.0,0.0,0.0,0.0,0.0,0.0,0.0,0.0,0.0,0.0,0.0,0.0,0.0,0.0,0.0,0.0,0.0,0.0,0.0,0.0,0.0,0.0,0.0,0.0,0.0,0.0,0.0,0.0,-2.9639,-3.0539,-2.8293,-2.9292,-2.9949,0.0,0.0,0.0,0.0,0.0,0.0,0.0,0.0,0.0,-3.0135,-3.1612,-3.1845,-3.0536,-3.1055,-3.1134,-3.0838,-3.1436,-3.2075,-3.2803,-3.3665,-3.4498,-3.5251,-3.4727,-3.3921,-3.2728,-3.0145,-2.868,-2.8063,0.0,0.0,0.0,0.0,-2.9397,-2.9972,-2.9804,-2.9978,-3.0438,-3.1399,0.0,0.0,0.0,0.0,0.0,0.0,0.0,-2.854,-2.8402,-2.9319,-3.0228,-2.987,-3.0007,-2.9996,-2.9343,-2.8371,-2.7344,-2.6348,-2.5853,-2.5315,-2.4386,0.0,0.0,0.0,0.0,-2.1995,-2.213,-2.0647,-1.9571,-1.9527,-1.7757,-1.6669,-1.6836,-1.4841,-1.3749,-1.4177,-1.298,-1.222,-1.2097,-1.2015,-1.2159,0.0,0.0,0.0,0.0,0.0,0.0,0.0,0.0,0.0,0.0,0.0,0.0,0.0,0.0,0.0,0.0,0.0,0.0,0.0,0.0,0.0,0.0,0.0,0.0,0.0,0.0,0.0,0.0,-2.9111,-3.0426,-2.7519,-2.9193,-3.0455,0.0,0.0,0.0,0.0,0.0,0.0,-3.0363,-3.201,-3.2626,-3.184,-3.3338,-3.3395,-3.1743,-3.2418,-3.2698,-3.2658,-3.2291,-3.279,-3.4073,-3.4283,-3.4933,-3.5896,-3.5478,-3.5643,-3.6039,-3.3425,-3.1101,-2.9378,-3.0184,-3.0614,-3.0786,-3.0752,-3.124,-3.1909,-3.204,-3.2493,-3.3079,-3.374,-3.3836,-3.3481,-3.2702,0.0,0.0,0.0,0.0,-2.9311,-2.9624,-3.0249,-3.0773,-3.0598,-3.075,-3.0711,-2.9996,-2.91,-2.8035,0.0,-2.6311,-2.6028,-2.5303,0.0,0.0,0.0,0.0,-2.2133,-2.2013,-2.0627,-1.953,-1.9183,-1.7584,-1.6597,-1.674,-1.4881,-1.3851,-1.4277,-1.3395,-1.265,-1.2147,-1.2686,-1.2986,-1.2986,0.0,0.0,0.0,0.0,0.0,0.0,0.0,0.0,0.0,0.0,0.0,0.0,0.0,0.0,0.0,0.0,0.0,0.0,0.0,0.0,0.0,0.0,0.0,0.0,0.0,0.0,0.0,0.0,0.0,-2.7342,-2.8558,0.0,0.0,0.0,0.0,-3.0193,-3.1729,-3.2417,-3.192,-3.4254,-3.5115,-3.4079,-3.5474,-3.5697,-3.4519,-3.3756,-3.3335,-3.3352,-3.3027,-3.3127,-3.368,-3.4474,-3.525,-3.5907,-3.6025,-3.5886,-3.5442,-3.3035,-3.2513,-3.3095,-3.0897,-3.0422,-3.0987,-3.092,-3.1308,-3.1875,-3.1771,-3.2116,-3.2952,-3.4881,-3.5322,-3.4843,-3.3549,-3.2372,0.0,0.0,-3.0726,-3.1055,-3.1063,-3.1104,-3.1232,-3.1848,-3.1492,-3.084,-3.0279,-2.9566,-2.8864,0.0,-2.6964,-2.5861,-2.5289,0.0,-2.4995,-2.3271,-2.3443,-2.3242,-2.1791,-2.0878,-2.0279,-2.0058,-1.8642,-1.7564,-1.7191,-1.5674,-1.4598,-1.4325,-1.3636,-1.3036,-1.2502,-1.3344,-1.3886,-1.403,-1.4653,0.0,0.0,0.0,0.0,0.0,0.0,0.0,0.0,0.0,0.0,0.0,0.0,0.0,0.0,0.0,0.0,0.0,0.0,0.0,0.0,0.0,0.0,0.0,0.0,0.0,0.0,0.0,0.0,-2.9728,-3.1083,0.0,-3.0684,-3.0904,-3.1178,-3.1368,-3.2744,-3.3527,-3.3436,-3.5182,-3.6014,-3.5633,-3.6142,-3.6006,-3.5207,-3.4896,-3.4477,-3.3918,-3.3784,-3.3982,-3.4458,-3.5167,-3.5887,-3.663,-3.7056,-3.7097,-3.672,-3.5503,-3.4675,-3.4184,-3.3695,-3.3564,-3.3666,-3.3625,-3.4088,-3.4805,-3.5215,-3.5521,-3.5933,-3.6999,-3.677,-3.5881,-3.4692,-3.3581,-3.241,-3.1093,-3.1138,-3.1493,-3.1,-3.1187,-3.1448,-3.1194,-3.1057,-3.0798,-3.0127,-2.9738,-2.9389,-2.8818,-2.7656,-2.6507,-2.5655,-2.5616,-2.5348,-2.4328,-2.3954,-2.3432,-2.2558,-2.1432,-2.0736,-2.0736,-1.9034,-1.7904,-1.784,-1.6335,-1.5029,-1.4173,-1.3856,-1.3297,-1.2484,-1.3146,-1.3583,-1.3718,-1.44,-1.5187,0.0,0.0,0.0,0.0,0.0,0.0,0.0,0.0,0.0,0.0,0.0,0.0,0.0,0.0,0.0,0.0,0.0,0.0,0.0,0.0,0.0,0.0,0.0,0.0,0.0,-2.9717,-3.078,-3.1143,-3.2643,-3.3368,-3.2551,-3.2379,-3.2493,-3.2882,-3.427,-3.5058,-3.494,-3.6409,-3.7084,-3.6707,-3.6681,-3.6383,-3.583,-3.5583,-3.5223,-3.4673,-3.4471,-3.4571,-3.4992,-3.5576,-3.6173,-3.6812,-3.741,-3.7505,-3.7341,-3.6928,-3.6199,-3.5309,-3.5398,-3.5309,-3.5245,-3.5449,-3.5947,-3.6744,-3.7762,-3.8063,-3.8063,-3.8714,-3.8232,-3.7164,-3.6146,-3.5022,-3.3806,-3.2507,-3.2368,-3.2459,-3.1962,-3.1982,-3.1973,-3.1484,-3.1204,-3.0877,-3.0325,-2.9933,-2.9586,-2.9262,-2.8372,-2.7415,-2.6404,-2.6358,-2.6129,-2.5073,-2.4507,-2.3874,-2.2947,-2.1952,-2.1213,-2.0916,-1.9619,-1.8669,-1.8284,-1.7047,-1.5773,-1.4552,-1.4416,-1.3927,-1.2916,-1.3548,-1.391,-1.3899,-1.4858,-1.6178,-1.7847,0.0,0.0,0.0,0.0,0.0,0.0,0.0,0.0,0.0,0.0,0.0,0.0,0.0,0.0,0.0,0.0,0.0,0.0,0.0,0.0,0.0,0.0,0.0,-2.7697,-3.0988,-3.2896,-3.1541,-3.3093,-3.41,-3.3528,-3.3502,-3.3869,-3.467,-3.6282,-3.6985,-3.6455,-3.7989,-3.8366,-3.7236,-3.7186,-3.691,-3.6455,-3.5855,-3.5533,-3.5508,-3.5027,-3.4886,-3.5111,-3.5643,-3.608,-3.6334,-3.6878,-3.7108,-3.7108,-3.7108,-3.6922,-3.6607,-3.5768,-3.5449,-3.55,-3.6109,-3.6673,-3.7343,-3.8981,-3.9212,-3.8881,-3.9753,-3.9449,-3.8592,-3.7792,-3.6626,-3.5447,-3.4919,-3.4457,-3.4064,-3.4064,-3.3469,-3.2855,-3.2855,-3.1921,-3.0973,-3.1019,-3.0239,-2.9527,-2.9527,-2.9091,-2.8425,-2.7396,-2.7667,-2.73,-2.5279,-2.5108,0.0,-2.2926,-2.2415,-2.1753,-2.058,-2.0412,-1.9828,-1.8468,-1.7838,-1.6913,-1.5496,-1.5335,-1.4849,-1.3825,-1.4601,-1.4944,-1.474,-1.6113,-1.824,-2.1078,0.0,0.0,0.0,0.0,0.0,0.0,0.0,0.0,0.0,0.0,0.0,0.0,0.0,0.0,0.0,0.0,0.0,0.0,0.0,0.0,0.0,-3.0243,-3.128,-3.1406,-3.2435,-3.3576,-3.4827,-3.5831,-3.613,-3.5643,-3.6257,-3.6341,-3.5378,-3.7236,-3.799,-3.701,-3.7387,-3.7688,-3.7789,-3.7059,-3.6933,-3.7538,-3.701,-3.6558,-3.6182,-3.6391,-3.6014,-3.5098,-3.6038,-3.6391,-3.6308,-3.6852,-3.7015,-3.6803,-3.6803,-3.6687,-3.6474,-3.6379,-3.6278,-3.6164,-3.6315,-3.6855,-3.754,-3.7991,-3.8166,-3.8264,-3.8511,-3.7763,-3.6749,-3.6743,-3.5811,-3.4623,-3.416,-3.3915,-3.3697,-3.3105,-3.2653,-3.23,-3.2149,-3.1219,-3.0529,-3.0926,-3.0377,-2.9806,-2.9987,-2.9894,-2.9366,-2.8012,-2.8172,-2.7943,-2.6329,-2.5777,0.0,-2.3618,-2.2657,-2.1934,-2.1401,-2.0631,-1.9861,-1.9072,-1.8503,-1.7308,-1.5383,-1.5475,-1.4994,-1.3641,-1.4041,-1.4628,-1.5279,-1.6955,-1.8674,0.0,0.0,0.0,0.0,0.0,0.0,0.0,0.0,0.0,0.0,0.0,0.0,0.0,0.0,0.0,0.0,0.0,0.0,0.0,0.0,0.0,0.0,-3.1774,-3.3263,-3.4481,-3.4709,-3.5238,-3.6556,-3.6985,-3.7061,-3.6782,-3.6659,-3.6433,-3.5931,-3.7086,-3.7687,-3.7211,-3.7412,-3.7688,-3.799,-3.7387,-3.7362,-3.799,-3.7688,-3.7387,-3.7086,-3.7152,-3.6789,-3.5999,-3.6396,-3.6493,-3.6345,-3.6675,-3.6734,-3.6593,-3.6593,-3.6452,-3.6241,0.0,0.0,0.0,0.0,-3.6996,-3.7196,-3.7888,-3.7956,-3.7824,-3.7721,-3.7027,-3.6242,-3.5845,-3.5091,-3.4322,-3.3837,-3.3542,-3.3273,-3.2803,-3.2464,-3.2248,-3.2101,-3.1476,-3.0903,-3.1081,-3.0648,-3.017,-3.0216,-3.0055,0.0,-2.9045,-2.8976,-2.8517,-2.7001,-2.6358,-2.5524,-2.4091,-2.3156,-2.2405,-2.1841,-2.1245,-2.0563,-1.982,-1.9437,0.0,0.0,0.0,-1.6013,-1.4677,-1.4925,0.0,0.0,0.0,-1.9341,-2.1125,0.0,0.0,0.0,-2.7197,-2.817,0.0,0.0,0.0,0.0,0.0,0.0,0.0,0.0,0.0,0.0,0.0,0.0,0.0,0.0,0.0,0.0,-3.3024,-3.4059,-3.6821,-3.7219,-3.7211,-3.7262,-3.7287,-3.7236,-3.7111,-3.583,-3.5353,-3.6254,-3.648,-3.6782,-3.7161,-3.7713,0.0,0.0,0.0,-3.8065,-3.8191,-3.814,-3.809,-3.809,-3.7663,-3.7364,-3.719,-3.6759,-3.6505,-3.6405,-3.6405,-3.6405,-3.6405,-3.6358,-3.6193,-3.5908,-3.5955,-3.6098,-3.6388,-3.7171,-3.6998,-3.6604,-3.8099,0.0,0.0,-3.718,-3.6848,-3.6327,-3.5149,-3.4517,-3.4124,-3.3707,-3.3242,-3.2841,-3.2841,-3.2667,-3.2443,-3.2493,-3.2012,-3.1569,-3.1318,-3.0868,-3.0464,-3.0171,-2.9781,-2.9574,-3.001,-2.9734,-2.8953,-2.7598,-2.6909,-2.6014,-2.4545,-2.3843,-2.3109,-2.2078,0.0,0.0,-2.0504,-2.0458,-1.9631,-1.7614,-1.7664,-1.73,-1.6266,-1.6519,-1.7229,-1.8356,-1.8841,-2.0141,-2.2359,-2.3045,-2.4237,-2.59,-2.7343,-2.8324,0.0,0.0,0.0,0.0,0.0,0.0,0.0,0.0,0.0,0.0,0.0,0.0,0.0,0.0,0.0,-3.3342,-3.4711,-3.6142,-3.7522,-3.7447,-3.7337,-3.7789,-3.7839,-3.7513,-3.6634,-3.6634,-3.6433,-3.5708,-3.6935,-3.7538,-3.7211,-3.7713,-3.8216,-3.8693,-3.8241,-3.8442,-3.9346,-3.8919,-3.8718,-3.8718,-3.9044,0.0,-3.7216,-3.7551,-3.7205,-3.6405,-3.6405,-3.6405,-3.6358,-3.6193,-3.5812,-3.538,-3.5572,-3.5716,-3.5838,-3.6431,-3.6407,-3.6184,-3.7146,-3.6988,-3.6319,-3.6512,-3.5803,-3.482,-3.4559,-3.388,0.0,-3.3065,-3.2818,-3.2594,-3.2594,-3.2342,-3.2167,-3.2443,-3.1762,-3.1075,-3.1076,-3.051,-2.9972,-2.9667,-2.9398,-2.9238,-2.9329,-2.9051,-2.8746,-2.8448,-2.7644,-2.668,-2.5555,-2.4613,-2.3672,-2.2639,-2.2547,-2.195,-2.0527,-2.0779,-2.0159,-1.8088,-1.726,-1.6678,-1.6297,-1.6991,-1.7653,-1.8224,-1.988,-2.1153,-2.1987,-2.37,-2.4935,-2.5784,-2.7016,-2.7915,0.0,0.0,0.0,0.0,0.0,0.0,0.0,0.0,0.0,0.0,0.0,-3.1871,-3.2555,0.0,-3.4433,-3.52,-3.5913,-3.6627,-3.761,-3.7427,-3.7387,-3.7939,-3.7513,-3.7086,-3.6835,-3.6533,-3.6257,-3.5981,-3.6709,-3.7312,-3.7588,-3.7864,-3.8391,-3.9245,-3.8994,-3.912,-3.9697,-3.9421,-3.927,-3.927,-3.9296,-3.8667,-3.7592,-3.7581,-3.7172,-3.6405,-3.6405,-3.6405,-3.6358,-3.5955,-3.5572,-3.5235,-3.5235,-3.5235,-3.5284,-3.5966,-3.6134,-3.6047,-3.6449,-3.6331,-3.5944,-3.5531,-3.4778,-3.3958,-3.3706,-3.3202,-3.2718,-3.2718,-3.2493,-3.224,-3.224,-3.2037,-3.1812,-3.2037,-3.1636,-3.1162,-3.0878,-3.0496,-3.0119,-2.9596,-2.9263,-2.9103,-2.9103,-2.887,-2.8609,-2.8379,-2.7713,-2.6915,-2.6198,-2.4981,-2.3994,-2.3488,-2.3213,-2.2605,-2.1499,-2.0951,-2.0129,-1.8823,-1.8048,-1.7584,-1.7423,-1.8121,-1.8736,-1.9293,-2.038,-2.1337,-2.2146,-2.3647,-2.4749,-2.5407,-2.6806,-2.777,0.0,0.0,0.0,0.0,0.0,0.0,0.0,0.0,-3.1257,-3.3362,-3.3975,-3.4564,-3.5892,-3.5964,-3.6047,-3.6794,-3.6637,-3.6703,-3.7388,-3.7228,-3.7186,-3.7638,-3.6985,-3.6757,-3.7136,-3.6282,-3.5981,-3.6681,-3.6631,-3.7008,-3.7965,-3.8115,-3.8592,-3.9496,-3.9647,-3.9697,-3.9697,-3.9597,-3.9597,-3.9697,-3.9146,-3.8667,-3.8155,-3.7635,-3.7045,-3.6556,-3.6408,-3.6263,-3.6121,-3.5716,-3.538,-3.5114,-3.4872,-3.4775,-3.4871,-3.5452,-3.5687,-3.5693,-3.571,-3.5611,-3.541,-3.4593,-3.3935,-3.339,-3.3005,-3.2667,-3.2392,-3.2392,-3.219,-3.1913,-3.1913,-3.1761,-3.1629,-3.1629,-3.1629,-3.144,-3.0811,-3.0617,-3.0334,-2.9728,-2.9285,-2.9059,-2.9103,-2.887,-2.854,-2.8057,-2.7644,-2.7185,-2.668,-2.5463,-2.4568,-2.4361,-2.3935,-2.3372,-2.2525,-2.1151,-2.0128,-1.9606,-1.9067,-1.8691,-1.8583,-1.9174,-1.9794,-2.0412,-2.0927,-2.1689,-2.2667,-2.3767,-2.4602,-2.5194,-2.6667,-2.7699,-2.9786,-2.978,-2.9716,-2.9915,-2.9878,-3.0422,0.0,0.0,-3.2526,-3.3497,-3.4657,-3.519,-3.4311,-3.5703,-3.688,-3.6508,-3.676,-3.7057,-3.7138,-3.6789,-3.6531,-3.6581,-3.686,-3.7111,-3.7186,-3.6634,-3.6709,-3.7739,-3.7362,-3.7362,-3.7965,-3.8492,-3.8894,-3.902,-3.9446,-3.9697,-3.9697,-3.922,-3.922,-3.9697,-3.9146,-3.8869,-3.8793,-3.8187,-3.7606,-3.7061,-3.6345,-3.5764,-3.5307,-3.5259,-3.5066,-3.4823,-3.4823,-3.4775,-3.4775,-3.4651,-3.4552,-3.4572,-3.4594,-3.4299,-3.3993,-3.4065,-3.3554,-3.2959,-3.2914,-3.2516,-3.2066,-3.2066,-3.1863,-3.1629,-3.1629,-3.1629,-3.1629,-3.1629,-3.1629,-3.1476,-3.098,-3.0543,-3.0154,-2.9913,-2.928,-2.8835,-2.9059,-2.887,-2.854,-2.8057,-2.7943,-2.7713,-2.7208,-2.6588,-2.5892,-2.4935,-2.4774,-2.4177,-2.2765,-2.1697,-2.0871,-2.0312,-1.9395,-1.8868,-1.8868,-1.9495,-2.0026,-2.0389,-2.2045,-2.3125,-2.3549,-2.474,-2.5389,-2.546,-2.6588,-2.764,-2.9391,-2.9505,-2.9558,-3.0194,-3.0618,-3.1402,-3.3277,-3.3695,-3.4124,-3.5724,-3.6742,-3.7325,-3.7398,-3.7826,-3.8044,-3.7675,-3.7329,-3.7062,-3.6922,-3.6593,-3.6405,-3.6405,-3.6606,-3.6883,-3.7161,-3.6985,-3.7161,-3.7939,-3.7487,-3.7563,-3.8467,-3.8743,-3.9019,-3.9346,-3.9572,-3.9697,-3.9697,-3.9145,-3.9145,-3.9697,-3.9142,-3.8916,-3.889,-3.8667,-3.8114,-3.7418,-3.6578,-3.6039,-3.5673,-3.5357,-3.5017,-3.4775,-3.4775,-3.4775,-3.4775,-3.4677,-3.4623,-3.4563,-3.4316,-3.409,-3.3834,-3.3462,-3.3232,-3.3044,-3.2913,-3.2531,-3.2222,-3.2222,-3.1951,-3.1629,-3.1629,-3.1629,-3.1629,-3.1629,-3.1629,-3.1498,-3.0996,-3.0537,-3.0127,-2.9932,-2.9257,-2.8701,-2.8696,-2.8731,-2.8425,-2.7667,-2.7552,-2.7461,-2.7213,-2.6795,-2.6237,-2.5463,-2.5043,-2.432,-2.3201,-2.2354,-2.16,-2.0894,-2.0733,-2.0527,-2.0258,-2.108,-2.1578,-2.172,-2.2531,-2.3282,-2.3963,-2.451,-2.5257,-2.6255,-2.6698,-2.7552,-2.8279,-2.9094,-2.9917,-3.0319,-3.1446,-3.2812,-3.4022,-3.4595,-3.5435,-3.7429,-3.8227,-3.8693,-3.9311,-3.9156,-3.881,-3.8443,-3.7671,-3.7015,-3.6828,-3.6593,-3.6405,-3.6405,-3.6531,-3.6782,-3.7136,-3.7036,-3.7387,-3.8391,-3.7814,-3.7914,-3.9044,-3.9094,-3.927,-3.9672,-3.9697,-3.9697,-3.9697,-3.917,-3.912,-3.9569,-3.9019,-3.8791,-3.8879,-3.8715,-3.8191,-3.7369,-3.6604,-3.6136,-3.5841,-3.5284,-3.4969,-3.4775,-3.4775,-3.4871,-3.4967,-3.4774,-3.4621,-3.4557,-3.4056,-3.385,-3.3701,-3.3206,-3.3017,-3.2981,-3.2797,-3.2487,-3.2175,-3.2175,-3.1913,-3.1629,-3.1629,-3.1629,-3.1629,-3.1629,-3.1629,-3.1498,-3.0996,-3.0624,-3.0329,-2.9976,-2.9479,-2.906,-2.8855,-2.8847,-2.8677,-2.7966,-2.7621,-2.7346,-2.7047,-2.6565,-2.6129,-2.5761,-2.5142,-2.4374,-2.3499,-2.2959,-2.2366,-2.1661,-2.1789,-2.1766,-2.1431,-2.2088,-2.2547,-2.2719,-2.296,-2.3534,-2.4384,-2.482,-2.5678,-2.692,-2.7059,-2.7603,0.0,0.0,-3.0753,-2.9985,-3.2199,-3.4733,-3.5607,-3.5841,-3.631,-3.7955,-3.8372,-3.8425,-3.8111,-3.8532,-3.872,-3.8111,-3.7501,-3.7108,-3.7108,-3.6687,-3.6405,-3.6405,-3.6883,-3.7161,-3.7186,-3.6757,-3.7335,-3.9471,-3.8617,-3.8467,-3.9597,-3.9672,-3.9672,-3.9697,-3.9697,-3.9697,-3.9697,-3.9146,-3.9044,-3.9285,-3.8728,-3.8534,-3.8764,-3.8275,-3.7582,-3.6792,-3.6257,-3.5865,-3.5569,-3.504,-3.4823,-3.4775,-3.4775,-3.5136,-3.5471,-3.4722,-3.431,-3.4038,-3.3492,-3.3342,-3.3315,-3.3292,-3.2919,-3.2516,-3.2516,-3.211,-3.1651,-3.1651,-3.1578,-3.1629,-3.1629,-3.1629,-3.1629,-3.1629,-3.1629,-3.1498,-3.0996,-3.0887,-3.0702,-3.0042,-3.0036,-3.0092,-2.9874,-2.9623,-2.9458,-2.9435,-2.8586,-2.7598,-2.6651,-2.6037,-2.5739,-2.5716,-2.5233,-2.4485,-2.3499,-2.3384,-2.3155,-2.2696,-2.218,-2.1894,-2.1871,-2.1894,-2.218,-2.2696,-2.3649,-2.4384,-2.4889,-2.6365,-2.7121,-2.7231,-2.7713,-2.7985,0.0,0.0,-3.0887,-3.3002,-3.4121,-3.4951,-3.6016,-3.6222,-3.6416,-3.7126,-3.6215,-3.5345,-3.5737,-3.5803,-3.587,-3.6048,-3.6674,-3.7108,-3.7108,-3.7017,-3.6832,-3.6455,-3.6413,-3.6395,-3.6395,-3.6689,-3.7538,-3.9044,-3.8442,-3.8492,-3.9647,-3.9697,-3.9697,-3.9697,-3.9697,-3.9697,-3.9697,-3.917,-3.8993,-3.931,-3.884,-3.8711,-3.8788,-3.8436,-3.8108,-3.7785,-3.7097,-3.6753,-3.6603,-3.5713,-3.5352,-3.5328,-3.4968,-3.516,-3.5543,-3.4904,-3.4852,-3.4973,-3.3953,-3.3442,-3.3292,-3.3092,-3.2994,-3.2936,-3.273,-3.2443,-3.2132,-3.2132,-3.1891,-3.1629,-3.1629,-3.1629,-3.1629,-3.1629,-3.1629,-3.1586,-3.1411,-3.1127,-3.0899,-3.086,-3.0259,-2.9756,-2.9806,-2.9646,-2.9366,-2.9022,-2.8402,-2.7736,-2.707,-2.6818,-2.6588,-2.6244,-2.5739,-2.5164,-2.4439,-2.4131,-2.3879,-2.3695,-2.3833,-2.3764,-2.3442,-2.4085,-2.4361,-2.4154,-2.4843,-2.544,-2.5945,-2.6473,-2.707,-2.7736,-2.7552,-2.7417,0.0,-3.0834,-3.1925,-3.4842,-3.5364,-3.5445,-3.6707,-3.6681,-3.6452,-3.6662,-3.5244,-3.4043,-3.443,-3.3837,-3.3492,-3.4138,-3.4647,-3.5214,-3.6056,-3.614,-3.6257,-3.6631,-3.6538,-3.647,0.0,0.0,-3.7641,-3.8417,-3.8066,-3.8367,-3.9467,-3.9438,-3.9438,-3.9542,-3.9542,-3.9594,-3.9697,-3.9293,-3.9036,-3.8995,-3.8631,-3.8526,-3.8526,-3.8368,-3.8262,-3.8214,-3.7525,-3.7048,-3.6716,-3.6114,-3.5585,-3.512,-3.4986,-3.5156,-3.5368,-3.4866,-3.5007,-3.5301,-3.4423,-3.3846,-3.3534,-3.3234,-3.3039,-3.2936,-3.2627,-3.2317,-3.211,-3.211,-3.2001,-3.1848,-3.1673,-3.176,-3.1848,-3.1673,-3.1629,-3.1586,-3.1512,-3.1409,-3.1262,-3.1229,-3.0647,-3.0118,-3.0123,-2.9897,-2.9573,-2.9068,-2.8563,-2.7989,-2.7282,-2.707,-2.6841,-2.6536,-2.6175,-2.5761,-2.5233,-2.4912,-2.4728,-2.4728,-2.5027,-2.505,-2.4751,-2.5187,-2.5348,-2.521,-2.5532,-2.5968,-2.6513,-2.6881,-2.7346,-2.784,-2.7337,-2.6986,-2.9722,-3.1534,-3.3779,-3.5577,-3.604,-3.6354,-3.7686,-3.7159,-3.6424,-3.6557,-3.5339,-3.4202,0.0,0.0,-3.1668,-3.2541,-3.1868,-3.208,-3.4398,-3.4523,-3.5087,0.0,0.0,0.0,0.0,0.0,0.0,-3.7693,-3.7693,-3.8139,-3.9258,-3.9019,-3.9044,-3.9357,-3.9357,-3.9436,-3.9671,-3.9407,-3.8936,-3.8359,-3.8128,-3.7974,-3.795,-3.7974,-3.7974,-3.795,-3.7445,-3.6759,-3.5975,-3.624,-3.5565,-3.4407,-3.4964,-3.5215,-3.5189,-3.4684,-3.4797,-3.5258,-3.4946,-3.4477,-3.397,-3.3669,-3.3078,-3.2443,-3.2117,-3.1812,-3.1629,-3.16,-3.2001,-3.2285,-3.1826,-3.2066,-3.2285,-3.1782,-3.1651,-3.1593,-3.1412,-3.1705,-3.185,-3.1211,-3.1202,-3.1142,-3.0646,-3.0354,-3.0055,-2.9573,-2.9045,-2.8356,-2.7351,-2.6818,-2.6536,-2.6513,-2.6513,-2.6267,-2.5761,-2.5716,-2.5716,-2.5716,-2.5716,-2.5693,-2.567,-2.5233,-2.521,-2.5716,-2.5761,-2.6037,-2.6582,-2.7506,-2.7862,-2.7674,-2.7198,-2.6844,-3.252,-3.3952,-3.541,-3.7298,-3.7675,-3.771,-3.7954,-3.7147,-3.6018,-3.5045,-3.2935,-3.1015,-3.0164,-3.054,-3.135,-3.2314,-3.385,0.0,-3.7464,-3.7351,0.0,-3.7762,0.0,-3.7468,-3.7193,-3.6874,0.0,-3.7344,-3.8083,-3.877,-3.9512,-3.9824,-4.0045,-4.0099,-3.9705,-3.9562,-3.9639,-3.8957,-3.8331,-3.781,-3.7911,-3.7781,-3.7397,-3.7805,-3.7974,-3.7974,-3.7829,-3.7321,-3.645,-3.6168,-3.5689,-3.5152,-3.4947,-3.5328,-3.6043,-3.5655,-3.5858,-3.6284,-3.601,-3.509,-3.3981,-3.3683,-3.3078,-3.2443,-3.2117,-3.1812,-3.1695,-3.2088,-3.2285,-3.2437,-3.2634,-3.284,-3.2871,-3.2545,-3.2487,-3.2458,-3.2224,-3.2303,-3.2325,-3.2157,-3.1675,-3.1077,-3.0422,-3.0262,-3.0055,-2.9573,-2.9045,-2.8471,-2.7874,-2.7346,-2.6887,-2.6536,-2.6513,-2.6267,-2.5761,-2.5716,-2.5716,-2.5716,-2.5716,-2.5532,-2.5142,-2.5739,-2.5968,-2.5716,-2.645,-2.7093,-2.764,-2.7389,-2.7843,-2.9003,-2.7959,-2.7371,-3.4536,-3.544,-3.6337,-3.811,-3.8187,-3.7712,-3.7469,-3.6534,-3.5254,-3.3592,-3.1311,-2.9306,-2.8484,-2.871,-2.9435,0.0,0.0,0.0,-3.6612,-3.6796,-3.7013,0.0,-3.8141,0.0,-3.8166,-3.7841,-3.7763,-3.7958,-3.8172,-3.8607,-3.9389,-3.9623,-3.9843,-4.0212,-3.9916,-3.9661,-3.9447,-3.8999,-3.8287,-3.7412,-3.7597,-3.7348,-3.6867,-3.7397,-3.7637,-3.7637,-3.7796,-3.7317,-3.6486,-3.6209,-3.5619,-3.4877,-3.4903,-3.5129,-3.5485,-3.564,-3.5908,-3.6124,-3.5781,-3.5242,-3.4562,-3.4085,-3.3305,-3.2459,-3.2405,-3.2266,-3.22,-3.2757,-3.3149,-3.3431,-3.3475,-3.3652,-3.3652,-3.3101,-3.2997,-3.2915,-3.2729,-3.2667,-3.265,-3.2501,-3.1942,-3.1289,-3.0652,-3.0376,-3.0124,-2.9848,-2.9389,-2.8861,-2.8356,-2.7667,-2.7116,-2.6841,-2.6875,-2.6708,-2.6083,-2.6115,-2.6177,-2.6037,-2.6037,-2.6014,-2.5883,-2.6267,-2.645,-2.6381,-2.6726,-2.7139,-2.7644,-2.6976,-2.7357,-2.8619,-2.7323,-2.6779,-3.58,-3.6333,-3.6913,-3.8415,-3.8097,-3.7318,-3.6907,-3.5807,-3.4297,-3.2305,-3.0287,-2.8621,-2.794,-2.727,-2.744,-2.931,0.0,-3.1333,-3.4575,-3.5202,-3.6,-3.7912,-3.8567,-3.9094,-3.9595,-3.9413,-3.9102,-3.8788,-3.8108,-3.8222,-3.9218,-3.9165,-3.9419,-4.0055,-4.004,-3.9794,-3.9231,-3.9165,-3.8514,-3.7204,-3.7204,-3.6916,-3.6411,-3.6964,-3.7228,-3.7272,-3.7488,-3.7036,-3.6122,-3.6091,-3.5273,-3.4109,-3.4696,-3.4665,-3.4328,-3.5024,-3.5321,-3.5366,-3.5034,-3.519,-3.5369,-3.4502,-3.3553,-3.2699,-3.2871,-3.2878,-3.2989,-3.3506,-3.4164,-3.4648,-3.4266,-3.4513,-3.458,-3.3593,-3.3346,-3.3241,-3.3005,-3.2942,-3.2883,-3.2532,-3.2076,-3.1546,-3.1111,-3.056,-3.0261,-3.0261,-2.9847,-2.9364,-2.8948,-2.7985,-2.7277,-2.7139,-2.7366,-2.7284,-2.6615,-2.6751,-2.679,-2.6592,-2.6523,-2.6645,-2.7042,-2.6737,-2.6783,-2.729,-2.6944,-2.695,-2.7438,-2.6662,-2.6825,-2.783,-2.6447,-2.6065,-3.6044,-3.702,-3.805,-3.8637,-3.8715,-3.8407,-3.7555,-3.5656,0.0,0.0,-2.9894,-2.8541,-2.7119,-2.7479,-2.8793,-3.1288,-3.1961,-3.3497,-3.7194,-3.7216,-3.7329,0.0,-3.8869,-3.9044,-3.9312,-3.905,0.0,0.0,-3.8548,-3.887,-3.9496,-4.0363,-4.0652,-4.0354,-4.032,-4.0072,-3.9537,-3.9062,-3.834,-3.7204,-3.7204,-3.6916,-3.6411,-3.6964,-3.734,-3.7506,-3.7548,0.0,-3.5121,-3.5146,-3.457,-3.3716,-3.3802,-3.3927,-3.4062,-3.4205,-3.4593,-3.5012,-3.4925,-3.5135,-3.5302,-3.3934,-3.3558,-3.3592,-3.3448,-3.3365,-3.3506,-3.4285,-3.4594,-3.4751,-3.5087,-3.5221,-3.5096,-3.4298,-3.4125,-3.3928,-3.3376,-3.3242,-3.3082,-3.2581,-3.2099,-3.1616,-3.1111,-3.0743,-3.0532,-3.0532,-3.0092,-2.9788,-2.9913,-2.8854,-2.7777,-2.6983,-2.7462,-2.7629,-2.705,-2.7042,-2.7042,-2.7003,-2.6605,-2.6355,-2.6449,-2.6816,-2.7238,-2.7753,-2.7923,-2.824,-2.8769,-2.7485,-2.7669,-2.9118,-2.7897,-2.7477,-3.7779,-3.8272,-3.8562,-3.8743,-3.8821,-3.8232,-3.6004,0.0,0.0,0.0,-2.8607,-2.7521,-2.6738,-2.745,0.0,-3.0363,-3.1756,-3.3491,-3.6018,-3.6857,-3.7487,-3.8316,-3.8944,-3.9293,-3.9285,-3.9154,-3.8893,-3.8421,-3.9013,-3.9485,-3.9585,-4.0619,-4.1076,-4.0812,-4.0841,-4.0559,-4.0001,-3.9737,-3.8954,-3.7589,-3.7324,-3.672,-3.58,-3.6063,-3.62,-3.6383,-3.6638,-3.6324,-3.5611,-3.4946,-3.4447,-3.4056,-3.3727,-3.3671,-3.3818,-3.3966,-3.4164,-3.4441,-3.4289,-3.4612,-3.4979,-3.3604,-3.3639,-3.4146,-3.4097,-3.4173,-3.4446,-3.507,-3.5391,-3.56,-3.5827,-3.584,-3.5645,-3.4751,-3.4165,-3.3714,-3.3384,-3.3292,-3.3201,-3.2948,-3.2282,-3.1733,-3.1456,-3.0974,-3.0623,-3.0623,-3.0526,-3.0358,-3.0208,-2.9503,-2.8709,-2.7877,-2.8197,-2.8113,-2.7168,-2.7199,-2.7199,-2.7121,-2.6885,-2.6823,-2.7105,-2.7662,-2.7921,-2.7898,-2.8316,-2.8566,-2.8695,-2.7657,-2.7978,-2.946,-2.8009,-2.7659,-3.9102,-3.9165,-3.8956,-3.893,-3.88,-3.782,-3.4606,-3.3239,0.0,-2.9063,-2.7607,-2.6836,-2.6836,-2.7296,-2.8082,0.0,-3.0658,-3.2393,-3.4339,-3.5949,-3.7228,0.0,-3.9069,0.0,-3.9206,-3.9206,0.0,-3.8368,-3.931,-3.9902,-3.9922,-4.0739,-4.1172,-4.1172,-4.1172,-4.0985,-4.0612,-4.0434,-3.9664,-3.8142,-3.7517,-3.6597,-3.5434,-3.5365,-3.5315,-3.5381,-3.5939,-3.6074,-3.5832,-3.4934,-3.4413,-3.4043,-3.3614,-3.3353,-3.3332,-3.3593,-3.3643,-3.3699,-3.3487,-3.4065,-3.4724,-3.3593,-3.3766,-3.4387,-3.4294,-3.4578,-3.507,-3.5398,-3.584,-3.6168,-3.6114,-3.6022,-3.5702,-3.4772,-3.3976,-3.3407,-3.3315,-3.3292,-3.3292,-3.3292,-3.2632,-3.2011,-3.2011,-3.153,-3.1038,-3.0945,-3.108,-3.1071,-3.0572,-3.0233,-2.9806,-2.9243,-2.8987,-2.8552,-2.7656,-2.7632,-2.7608,-2.7546,-2.7451,-2.7593,-2.8018,-2.8444,-2.8515,-2.8208,-2.8568,-2.8704,-2.8612,-2.7872,-2.8241,-2.9525,-2.7934,-2.7579,-3.8428,-3.9017,-3.9469,-3.9295,-3.8923,-3.7866,-3.5085,0.0,-3.1811,-2.9078,-2.7972,-2.7495,-2.7495,-2.7091,-2.7391,-2.9424,-2.9402,-3.0498,-3.4413,-3.5504,-3.6642,-3.8592,0.0,0.0,-3.8893,-3.8841,-3.8631,-3.808,-3.9038,-4.0018,-4.098,-4.1124,-4.1172,-4.1172,-4.1172,-4.1172,-4.1148,-4.0636,-3.984,-3.8719,-3.7685,-3.6892,-3.6264,-3.5783,-3.5681,-3.5955,-3.6497,-3.5839,0.0,-3.4714,-3.4099,-3.2841,-3.2784,-3.2612,-3.242,-3.2477,-3.2592,-3.282,-3.2799,-3.3685,-3.4747,-3.3853,-3.3979,-3.4326,-3.3508,-3.3845,-3.4536,-3.4636,-3.5212,-3.5808,-3.5533,-3.5196,-3.4643,-3.3912,-3.38,-3.3821,-3.3384,-3.3292,-3.3292,-3.3292,-3.3007,-3.2808,-3.2808,-3.2724,-3.2508,-3.2033,-3.1962,-3.1862,-3.1605,-3.1332,-3.1049,-3.074,-2.9395,-2.8699,-2.9083,-2.8675,-2.8603,-2.9083,-2.8651,-2.8371,-2.8419,-2.8491,-2.8706,-2.9179,-2.8981,-2.9142,-2.9659,-2.8697,-2.8756,-2.9723,-2.8477,-2.7887,-3.8908,-3.9483,-3.952,-3.9321,-3.8058,-3.6257,-3.3995,0.0,-3.0248,-2.8338,-2.776,-2.7585,-2.7585,-2.7375,-2.7463,-2.8341,-2.8742,0.0,-3.1568,-3.3192,-3.4778,-3.6585,-3.7613,0.0,0.0,0.0,-3.8688,-3.8966,-3.9799,-4.0548,-4.1148,-4.1172,-4.1172,-4.1172,-4.0884,-4.0732,-4.0708,-4.0042,-3.9165,-3.8082,-3.7625,-3.6887,-3.5924,-3.5839,-3.589,-3.6026,-3.6417,-3.5945,0.0,-3.4934,-3.4267,-3.3239,-3.2841,-3.2612,-3.2498,-3.2363,-3.2363,-3.2534,-3.2856,-3.3346,-3.3741,-3.3402,-3.3459,-3.3741,-3.4099,-3.4491,-3.4858,-3.5433,-3.5676,-3.5808,-3.5698,-3.4709,-3.3804,-3.3982,-3.3366,-3.287,-3.3215,-3.3442,-3.3542,-3.3542,-3.3348,-3.3168,-3.3168,-3.3031,-3.2839,-3.2624,-3.243,-3.2304,-3.2202,-3.1512,-3.1052,-3.1094,-3.0387,-2.9893,-2.9773,-2.9581,-2.9412,-2.9316,-2.91,-2.8835,-2.8522,-2.8811,-2.8954,-2.8881,-2.9356,-2.9489,-2.9139,-2.9028,-2.9013,-2.9126,-2.8185,-2.7665,-3.8437,-3.9272,-3.9571,-3.9575,-3.7759,-3.5455,0.0,0.0,-2.9433,-2.7906,-2.7585,-2.7585,-2.7585,-2.7585,-2.7585,-2.7585,0.0,-2.8944,-2.9898,-3.1638,-3.342,0.0,0.0,-3.7526,-3.8086,-3.8526,-3.9008,-3.9537,-4.0258,-4.0773,-4.0932,-4.11,-4.1172,-4.1172,-4.0667,-4.0379,-4.0434,-3.9513,-3.8649,-3.7713,-3.7382,-3.674,-3.5821,-3.5887,-3.5836,-3.5746,-3.6103,-3.5733,0.0,-3.4714,-3.4099,-3.3296,-3.2841,-3.2669,-3.2669,-3.2498,-3.2363,-3.2363,-3.2742,-3.2949,-3.3063,-3.2892,-3.2949,-3.3289,-3.4289,-3.4624,-3.4747,-3.5323,-3.5511,-3.5488,-3.5166,-3.4207,-3.3377,-3.3312,-3.2856,-3.2523,-3.2813,-3.3269,-3.3519,-3.3369,-3.3464,-3.3499,-3.3282,-3.3362,-3.3409,-3.3266,-3.3071,-3.2899,-3.2755,-3.1937,-3.1424,-3.1641,-3.1409,-3.1033,-3.0586,-3.0247,-2.9939,-2.9656,-2.9342,-2.8964,-2.8522,-2.8859,-2.8944,-2.861,-2.9279,-2.9375,-2.8835,-2.8925,-2.8902,-2.8792,-2.7904,-2.7306,-3.6465,-3.8074,-3.9674,-4.0033,-3.8329,-3.604,0.0,0.0,-2.993,-2.7995,-2.7585,-2.7585,-2.7585,-2.7585,-2.7585,-2.7585,-2.7615,0.0,-3.0296,-3.1665,-3.2939,0.0,0.0,-3.7447,-3.7581,-3.8788,-3.9585,-3.9609,-4.009,-4.0403,-4.0403,-4.0908,-4.1172,-4.1172,-4.0667,-4.0418,-4.0409,-3.9352,-3.8551,-3.7974,-3.6916,-3.6411,-3.6386,-3.5857,-3.5429,-3.5155,-3.566,-3.4908,0.0,-3.3828,-3.348,-3.2727,-3.2669,-3.2669,-3.2669,-3.2669,-3.2555,-3.2305,-3.2305,-3.2685,-3.3006,-3.2477,-3.2685,-3.3176,-3.3501,-3.3818,-3.3966,-3.3685,-3.4289,-3.4759,-3.3648,-3.3677,-3.3489,-3.1506,-3.2254,-3.3113,-3.2214,-3.2695,-3.3119,-3.2521,-3.3346,-3.3892,-3.33,-3.4115,-3.4583,-3.4054,-3.3982,-3.379,-3.3332,-3.2827,-3.2557,-3.2783,-3.2297,-3.1894,-3.1638,-3.0606,-3.0106,-3.0348,-2.9399,-2.8697,-2.8498,-2.8522,-2.8562,-2.861,-2.8633,-2.8746,-2.9103,-2.8274,-2.8311,-2.9071,-2.7857,-2.6812,-3.3826,-3.4727,-3.5151,-3.4978,-3.3742,-3.2214,-3.1126,-2.966,-2.8367,-2.7739,-2.7585,-2.7585,-2.7585,-2.7585,-2.7764,-2.8188,-2.8278,0.0,0.0,0.0,0.0,-3.3344,-3.5974,-3.8076,0.0,-3.9855,-4.0338,-4.0138,-4.0789,-4.1136,-4.0932,-4.11,-4.1172,-4.1172,-4.0331,-3.9812,-3.9828,-3.8224,-3.714,-3.663,-3.6637,-3.6171,-3.5283,-3.5993,-3.5955,-3.5287,-3.5446,-3.4857,-3.375,-3.3957,-3.348,-3.2669,-3.2669,-3.2669,-3.2669,-3.2669,-3.2669,-3.2555,-3.2555,-3.2669,-3.282,-3.2612,-3.2669,-3.282,-3.2955,-3.348,-3.4134,-3.488,-3.5099,-3.4863,-3.389,-3.2856,-3.2019,-3.2196,-3.1936,-3.1875,-3.2712,-3.3369,-3.3767,-3.3618,-3.4089,-3.4531,-3.4335,-3.458,-3.4727,-3.4558,-3.4222,-3.3934,-3.3813,-3.3472,-3.3196,-3.3101,-3.3039,-3.2808,-3.2179,-3.1835,-3.135,-3.0719,-2.9939,-2.9121,-2.8323,-2.8146,-2.811,-2.8191,-2.8815,-2.8967,-2.862,-2.8506,-2.8269,-2.7857,-2.7165,-2.6687,0.0,-3.2662,-3.3108,-3.3025,-3.1778,0.0,0.0,-2.8738,-2.7585,-2.7585,-2.7585,-2.7585,-2.7585,-2.7585,-2.7735,-2.8128,-2.801,0.0,0.0,0.0,0.0,-3.435,0.0,0.0,-3.9697,-4.0248,-4.0667,-4.0837,-4.1208,-4.1402,-4.1172,-4.1004,-4.0917,-4.0925,-4.0018,-3.9522,-3.9279,-3.7742,-3.6689,-3.6148,-3.5999,-3.552,-3.4893,-3.5191,-3.5219,-3.4858,-3.4737,-3.4205,0.0,-3.3537,-3.3218,-3.2727,-3.2841,-3.2898,-3.2898,-3.2898,-3.2898,-3.282,-3.254,-3.2525,-3.2649,-3.2463,-3.2582,-3.2784,-3.3218,-3.3818,-3.4536,-3.5536,-3.5557,-3.4993,-3.3822,-3.2728,-3.1965,-3.1973,-3.1927,-3.2192,-3.3062,-3.3495,-3.3796,-3.3997,-3.4132,-3.4213,-3.4311,-3.4628,-3.4775,-3.4775,-3.4607,-3.4438,-3.4438,-3.4216,-3.4032,-3.3942,-3.39,-3.3672,-3.3281,-3.2884,-3.2007,-3.0531,-3.0097,-2.9344,-2.8122,-2.799,-2.8009,-2.8275,-2.8856,-2.8902,-2.8395,-2.842,-2.8139,-2.7573,-2.7139,-2.6884,0.0,-3.1483,-3.2782,-3.3043,0.0,0.0,0.0,-2.8797,0.0,-2.7509,-2.7509,-2.7564,-2.7675,-2.7615,-2.7615,-2.7735,-2.7195,0.0,0.0,-3.0719,0.0,0.0,-3.7638,-3.8428,-3.998,-4.0224,-4.0571,-4.1435,-4.1344,-4.123,-4.1172,-4.0691,-4.0363,-4.0362,-3.9809,-3.9316,-3.8819,-3.7722,-3.694,-3.6336,-3.5098,-3.4639,-3.4953,-3.3792,-3.3533,0.0,-3.3569,-3.3154,-3.2784,-3.2784,-3.2784,-3.2784,-3.3126,-3.326,-3.326,-3.3182,-3.3203,-3.3063,-3.2321,-3.2313,-3.2602,-3.2168,-3.2354,-3.2955,-3.4155,-3.4692,-3.5024,-3.5711,-3.5709,-3.5123,-3.3489,-3.3175,-3.2906,-3.1179,-3.2317,-3.3698,-3.3405,-3.336,-3.3485,-3.4004,-3.3641,-3.3396,-3.3694,-3.4335,-3.4847,-3.492,-3.509,-3.5235,-3.5235,-3.5036,-3.4952,-3.5161,-3.4761,-3.4483,-3.4595,-3.3709,-3.2228,-3.008,-3.0086,-2.9503,-2.8038,-2.8,-2.8241,-2.8701,-2.8723,-2.8629,-2.8395,-2.8139,-2.8045,-2.7998,-2.7715,-2.7411,-2.7085,0.0,-2.8179,-2.8213,-2.7847,-2.7337,0.0,0.0,0.0,0.0,0.0,0.0,0.0,-2.7944,-2.7944,-2.8963,-2.8979,-2.9604,-3.1675,-3.3471,0.0,-3.7952,-3.7864,-3.8147,-3.9423,-4.0148,-4.0571,-4.0513,-4.1148,-4.1459,-4.1172,-4.0691,-4.0314,-4.0098,-3.937,-3.893,-3.8819,-3.7722,-3.6709,-3.5774,-3.5451,-3.478,-3.3816,-3.3901,-3.389,-3.3671,-3.3599,-3.3473,-3.3409,-3.3409,-3.3409,-3.3409,-3.3466,-3.3523,-3.3466,-3.3296,-3.3203,-3.3119,-3.2525,-3.2364,-3.2448,-3.2344,-3.2446,-3.2955,-3.4357,-3.4858,-3.5024,-3.5711,-3.5748,-3.5276,-3.4096,-3.3356,-3.2887,-3.265,-3.3141,-3.3788,-3.431,-3.4611,-3.4773,-3.4886,-3.4648,-3.4678,-3.5399,-3.5308,-3.5308,-3.5917,-3.5746,-3.5524,-3.5524,-3.5618,-3.5561,-3.5233,-3.4898,-3.4379,-3.3624,-3.3443,-3.2873,-3.1548,-3.0849,-2.9942,-2.8808,-2.8991,-2.9002,-2.8778,-2.8778,-2.8637,-2.8395,-2.8348,-2.8186,-2.7998,-2.7951,-2.7767,-2.5797,-2.6026,-2.6297,-2.7259,-2.6756,-2.6067,-2.633,0.0,0.0,0.0,0.0,0.0,0.0,-2.7126,-2.7424,-2.8481,-2.8941,0.0,0.0,0.0,-3.6691,-3.8629,-3.8184,-3.8395,-4.014,-4.0257,-4.049,-4.1206,-4.1492,-4.1452,-4.1039,-4.0531,-4.0037,-3.9658,-3.9053,-3.8708,-3.862,-3.744,-3.6554,-3.5951,-3.5051,-3.432,-3.3763,-3.3441,-3.3418,-3.3614,-3.3402,-3.3423,-3.3636,-3.3636,-3.3636,-3.3636,-3.3749,-3.3861,-3.3805,-3.3692,-3.3579,-3.3515,-3.286,-3.2635,-3.2635,-3.2635,-3.2693,-3.3015,-3.4362,-3.4699,-3.4778,-3.5695,-3.5667,-3.5149,-3.4078,-3.3681,-3.3472,-3.325,-3.3792,-3.4509,-3.5199,-3.5175,-3.5207,-3.5982,-3.5274,-3.4937,-3.6054,-3.5842,-3.5697,-3.6137,-3.6161,-3.6084,-3.5789,-3.6003,-3.5926,-3.5297,-3.5414,-3.5011,-3.3667,-3.3672,-3.3007,-3.1275,-3.1017,-3.046,-2.9279,-2.9393,-2.9358,-2.9142,-2.9142,-2.8939,-2.8581,-2.8581,-2.8535,-2.8373,-2.8233,-2.8045,-2.5129,-2.5458,-2.5989,-2.7815,-2.6818,-2.5689,-2.6885,0.0,0.0,0.0,0.0,0.0,0.0,-2.6155,0.0,0.0,0.0,0.0,-3.3981,-3.5669,-3.7165,-3.8948,-3.8417,-3.8783,-4.1013,-4.0374,-4.049,-4.2174,-4.1761,-4.1233,-4.0716,-4.011,-3.9522,-3.9062,-3.89,-3.8659,-3.8477,-3.7307,-3.6621,-3.6326,-3.4697,-3.3958,-3.4117,-3.3019,-3.2971,-3.3727,-3.3322,0.0,-3.3749,-3.3749,-3.3749,-3.3805,-3.403,-3.4142,-3.4142,-3.4086,-3.4086,-3.3966,-3.3249,-3.2925,-3.2861,-3.2861,-3.2806,-3.3026,-3.4203,-3.4328,-3.4289,-3.5553,-3.5601,-3.5049,-3.4035,-3.4115,-3.4286,-3.3598,-3.4366,-3.5411,-3.5935,-3.5535,-3.5486,-3.6996,-3.6014,-3.5333,-3.6675,-3.662,-3.643,-3.6577,-3.6702,-3.6721,-3.625,-3.6338,-3.6121,-3.5331,-3.5883,-3.5595,-3.3876,-3.3777,-3.2745,-3.0351,-3.0886,-3.0826,-2.9755,-2.9668,-2.9668,-2.9707,-2.9554,-2.927,-2.8924,-2.8836,-2.8792,-2.8792,-2.8581,-2.8348,-2.4827,-2.5679,-2.6341,-2.675,-2.6098,-2.5439,-2.5689,0.0,0.0,0.0,0.0,0.0,0.0,-2.6833,-2.7559,0.0,0.0,-3.427,0.0,0.0,-3.8521,-3.8537,-3.8159,-3.8331,-3.9556,-3.9966,-4.0466,-4.1263,-4.0829,-4.0451,-4.0153,-3.9109,-3.8537,-3.8466,-3.8688,-3.8788,-3.8736,-3.8533,-3.7641,-3.6069,-3.5753,-3.5009,-3.3846,-3.3683,-3.3878,-3.4345,0.0,-3.428,-3.4345,-3.4345,-3.4345,-3.4367,-3.4423,-3.4423,-3.4423,-3.4199,-3.4086,-3.4022,-3.3471,-3.2964,-3.262,-3.262,-3.2479,-3.2588,-3.3958,-3.3675,-3.3324,-3.5186,-3.5589,-3.5397,-3.4772,-3.4677,-3.4726,-3.458,-3.5084,-3.5711,-3.624,-3.618,-3.6444,-3.7652,-3.7469,-3.757,-3.8945,-3.8576,-3.8363,-3.9041,-3.7991,-3.7113,-3.7038,-3.6659,-3.6168,-3.562,-3.5668,-3.492,-3.292,-3.275,-3.201,-3.0302,-3.068,-3.0905,-3.069,-3.0541,-3.0519,-3.0668,-2.9882,-2.9445,-2.9379,-2.8989,-2.8792,-2.8792,-2.8746,-2.8581,-2.385,-2.4318,-2.4993,-2.6622,-2.7371,-2.7916,-2.8695,0.0,0.0,0.0,0.0,0.0,0.0,0.0,-2.8571,-3.1206,-3.3506,-3.5494,-3.7047,-3.7412,-3.7761,-3.8248,-3.8069,-3.8364,-3.9487,-3.9638,-3.9966,-4.0548,-3.9992,-3.9476,-3.9047,-3.8761,-3.8431,-3.8144,-3.8859,-3.9258,-3.9258,-3.9154,-3.8206,-3.6396,-3.5816,-3.5069,-3.4228,-3.4164,-3.4316,-3.4534,0.0,-3.4534,-3.4534,-3.4534,-3.4534,-3.4534,-3.4534,-3.4534,-3.4479,-3.4367,-3.4311,-3.4224,-3.3746,-3.3421,-3.3204,-3.2922,-3.263,-3.2488,-3.3414,-3.316,-3.2757,-3.3993,-3.4492,-3.4742,-3.4798,-3.4775,-3.4798,-3.479,-3.4986,-3.537,-3.6132,-3.6508,-3.7021,-3.8129,-3.8461,-3.8717,-3.9306,-3.9146,-3.8963,-3.8964,-3.8467,-3.7864,-3.7262,-3.696,-3.6445,-3.5476,-3.5787,-3.5281,-3.3469,-3.3713,-3.2924,-3.0595,-3.0602,-3.0762,-3.0909,-3.1028,-3.1064,-3.0923,-3.071,-3.0302,-2.966,-2.9191,-2.8897,-2.8792,-2.8222,-2.8259,-2.3271,-2.3703,-2.4645,-2.67,-2.7841,-2.9001,-3.1232,-3.0611,0.0,0.0,0.0,0.0,0.0,-2.7975,-2.9959,-3.3776,-3.5228,-3.6377,-3.778,-3.7494,-3.7469,-3.8388,-3.8275,-3.8508,-3.9488,-3.93,-3.9348,-3.9847,-3.901,-3.8261,-3.7868,-3.8185,-3.8168,-3.7732,-3.8788,-3.9465,-3.9594,-3.9134,-3.8237,-3.6848,-3.5925,-3.5196,-3.4568,-3.4504,-3.4534,-3.4534,-3.4534,-3.4534,-3.4534,-3.4534,-3.4534,-3.4534,-3.4534,-3.4534,-3.4534,-3.4534,-3.4534,-3.4447,-3.3967,-3.3726,-3.3551,-3.3124,-3.259,-3.2301,-3.2849,-3.2632,-3.237,-3.2996,-3.3396,-3.3793,-3.4433,-3.4871,-3.5063,-3.5073,-3.5103,-3.5363,-3.6317,-3.6895,-3.7506,-3.8436,-3.9194,-3.9634,-3.9526,-3.9541,-3.9411,-3.8963,-3.8918,-3.8567,-3.7688,-3.7337,-3.6769,-3.5599,-3.6053,-3.5761,-3.4268,-3.4438,-3.3576,-3.1275,-3.0852,-3.0689,-3.0759,-3.1335,-3.1481,-3.1064,-3.1414,-3.1112,-3.0079,-2.9806,-2.9557,-2.9318,-2.8655,-2.8717,-2.3778,-2.5517,-2.7082,-2.6587,-2.5593,-2.5903,-3.0552,-3.0348,0.0,-3.0692,0.0,0.0,0.0,-3.0215,-3.1871,-3.405,-3.6003,-3.7733,-3.9001,-3.9163,-3.9163,-3.9231,-3.8938,-3.8801,-3.9024,-3.8828,-3.8735,-3.8868,-3.7548,-3.6746,-3.6723,-3.7045,-3.7089,-3.6796,-3.7868,-3.8788,-3.931,-3.8246,-3.7521,-3.7079,-3.6727,-3.5881,-3.4525,-3.4513,-3.4534,-3.4534,-3.4534,-3.4534,-3.4534,-3.4534,-3.4534,-3.4534,-3.4534,-3.4534,-3.4534,-3.4534,-3.4534,-3.4447,-3.3967,-3.3486,-3.3103,-3.259,-3.2088,-3.1775,-3.2263,-3.2088,-3.1885,-3.2896,-3.2873,-3.2773,-3.3793,-3.4987,-3.5915,-3.5915,-3.5903,-3.6193,-3.7204,-3.7495,-3.7803,-3.8483,-3.9757,-4.0686,-4.0439,-4.0401,-4.0398,-4.0348,-3.9521,-3.8894,-3.8818,-3.7839,-3.6967,-3.6382,-3.6372,-3.5874,-3.4553,-3.3409,-3.2747,-3.2723,-3.1576,-3.067,-3.0292,-3.1368,-3.1855,-3.1544,-3.16,-3.1344,-3.0835,-3.1297,-3.1274,-3.0858,-3.1228,-3.1113,-2.3371,-2.5244,-2.692,-2.6102,-2.593,-2.7076,-3.1396,-3.2192,-3.233,-3.3647,-3.4098,0.0,0.0,0.0,-3.4541,-3.4293,-3.6932,-3.9161,-3.9275,-3.9584,-3.9652,-3.9331,-3.8915,-3.8524,-3.8144,-3.7791,-3.7427,-3.7109,-3.6409,-3.6061,-3.6061,-3.642,-3.6796,-3.7203,-3.7471,-3.795,-3.8736,-3.7288,-3.6332,-3.5856,-3.6254,-3.5902,-3.4813,-3.459,-3.4646,-3.4813,-3.459,-3.4534,-3.4534,-3.4534,-3.4534,-3.4534,-3.4534,-3.4534,-3.4491,-3.4185,-3.4076,-3.401,-3.3508,-3.3027,-3.2612,-3.2437,-3.2044,-3.1629,-3.1812,-3.1761,-3.168,-3.2088,-3.2565,-3.313,-3.4012,-3.4912,-3.5785,-3.6536,-3.6347,-3.636,-3.784,-3.7871,-3.7854,-3.8935,-4.0111,-4.0774,-4.0343,-4.0386,-4.04,-4.0049,-3.9647,-3.927,-3.8969,-3.8492,-3.8041,-3.7468,-3.7089,-3.6563,-3.5752,-3.4478,-3.3881,-3.4068,-3.2836,-3.1993,-3.1621,-3.2328,-3.2551,-3.2115,-3.237,-3.2204,-3.1556,-3.1468,-3.1481,-3.1436,-3.1031,-3.1385,-2.2594,-2.391,-2.5277,-2.5237,0.0,0.0,-3.2253,-3.3212,-3.392,-3.6464,-3.6748,-3.5632,-3.2723,0.0,0.0,-3.4789,-3.7521,-3.9698,-3.9354,-3.9469,-3.9469,-3.9124,-3.8642,-3.8079,-3.7321,-3.6914,-3.6382,-3.5747,-3.553,-3.5501,-3.5467,-3.5863,-3.6271,-3.6838,-3.6484,-3.6679,-3.7545,-3.6004,-3.5083,-3.4873,-3.5241,-3.5146,-3.4626,-3.4405,-3.4493,-3.4813,-3.4415,-3.4294,-3.4272,-3.4119,-3.4163,-3.4316,-3.4469,-3.4425,-3.425,-3.3923,-3.3704,-3.3486,-3.3005,-3.2634,-3.235,-3.2197,-3.1965,-3.1732,-3.1732,-3.1783,-3.1885,-3.1885,-3.2536,-3.3401,-3.4421,-3.5413,-3.6405,-3.737,-3.7276,-3.731,-3.8516,-3.8398,-3.8287,-3.9077,-4.006,-4.0611,-3.9957,-4.0092,-4.0124,-3.9747,-3.9697,-3.9546,-3.917,-3.8994,-3.8693,-3.8066,-3.7664,-3.7287,-3.6958,-3.5951,-3.5414,-3.5561,-3.459,-3.363,-3.2777,-3.3342,-3.3341,-3.269,-3.3127,-3.2941,-3.2133,-3.2111,-3.2215,-3.2406,-3.191,-3.2394,-2.1468,-2.1689,-2.2271,-2.3979,0.0,0.0,-3.284,-3.3031,-3.3571,-3.8977,-3.8626,-3.6882,-3.5211,-3.5865,-3.6398,-3.5718,-3.7692,-3.9308,-3.9285,-3.8895,-3.8596,-3.8573,-3.8114,-3.7473,-3.669,-3.6331,-3.5871,-3.508,-3.5013,-3.5013,-3.498,-3.5287,-3.5474,-3.5527,-3.4804,-3.4791,-3.5671,-3.4234,-3.3821,-3.4373,-3.3799,-3.3623,-3.3792,-3.3792,-3.4054,-3.4491,-3.3988,-3.3792,-3.3748,-3.3268,-3.3355,-3.3835,-3.4316,-3.4207,-3.3792,-3.3792,-3.3486,-3.3037,-3.2525,-3.2372,-3.2285,-3.1782,-3.1761,-3.2015,-3.2015,-3.224,-3.2493,-3.2493,-3.2823,-3.3538,-3.4878,-3.6617,-3.8117,-3.8434,-3.8893,-3.915,-3.9121,-3.915,-3.9121,-3.8767,-3.9705,-4.022,-3.9461,-3.9517,-3.9697,-3.9697,-3.9697,-3.9697,-3.9697,-3.9246,-3.8693,-3.8091,-3.7991,-3.8015,-3.799,-3.7501,-3.7216,-3.7209,-3.6732,-3.5506,-3.3423,-3.4226,-3.4225,-3.3207,-3.3676,-3.3427,-3.24,-3.3427,-3.395,-3.4019,-3.4474,-3.464,-2.1043,-2.3174,-2.5277,-2.4122,0.0,0.0,0.0,-3.359,0.0,0.0,-3.8804,-3.7161,-3.5474,-3.6701,-3.7442,-3.5662,-3.7887,-3.9584,-3.8895,-3.8964,-3.8826,-3.8114,-3.7563,-3.6835,-3.5869,-3.568,-3.5335,-3.4493,-3.4946,-3.5211,-3.507,-3.5021,-3.5123,-3.5544,-3.4411,-3.4291,-3.531,-3.3999,-3.3353,-3.3562,-3.3044,-3.3056,-3.359,-3.3375,-3.3463,-3.381,-3.3624,-3.3451,-3.3321,-3.319,-3.3212,-3.3289,-3.3442,-3.342,-3.3246,-3.2918,-3.27,-3.2556,-3.2207,-3.2105,-3.2134,-3.2183,-3.2291,-3.2342,-3.2342,-3.2443,-3.2493,-3.2493,-3.3095,-3.407,-3.5446,-3.6771,-3.8014,-3.9088,-3.8998,-3.8896,-3.9873,-3.9329,-3.8766,-3.9297,-3.9663,-3.9873,-3.9619,-3.9645,-3.9697,-3.9697,-3.9697,-3.9697,-3.9697,-3.9573,-3.9094,-3.8066,-3.7991,-3.784,-3.749,-3.7285,-3.7333,-3.7739,-3.7236,-3.6338,-3.4913,-3.5111,-3.4951,-3.425,-3.4385,-3.431,-3.4,-3.3909,-3.4285,-3.5048,-3.4826,-3.5307,-2.0376,-2.231,0.0,-2.5428,-2.8187,-3.1313,-3.3653,0.0,0.0,0.0,-3.8711,-3.7527,-3.6757,-3.7548,-3.7826,-3.6394,-3.793,-3.9017,-3.8217,-3.8171,-3.7919,-3.7119,-3.6681,-3.6068,-3.5111,-3.4859,-3.4706,-3.4368,-3.4808,-3.507,-3.4877,-3.4696,-3.4676,-3.4773,-3.3711,-3.3443,-3.4091,-3.3356,-3.2942,-3.2942,-3.265,-3.2654,-3.29,-3.2964,-3.3109,-3.3316,-3.3268,-3.2994,-3.2661,-3.2911,-3.2893,-3.2862,-3.3165,-3.3121,-3.2955,-3.2796,-3.2627,-3.2406,-3.2228,-3.219,-3.224,-3.2443,-3.2544,-3.2667,-3.2667,-3.2718,-3.2818,-3.2818,-3.3604,-3.4704,-3.5779,-3.6819,-3.794,-3.9343,-3.931,-3.9149,-4.0019,-3.9504,-3.9072,-3.9594,-3.9697,-3.9697,-3.9697,-3.9697,-3.9697,-3.9697,-3.9697,-3.9697,-3.9697,-3.9697,-3.9445,-3.8741,-3.8667,-3.8517,-3.8216,-3.8089,-3.8138,-3.8316,-3.7961,-3.7352,-3.6557,-3.6067,-3.5823,-3.5705,-3.5571,-3.5516,-3.5516,-3.5234,-3.5466,-3.6323,-3.5915,-3.637,-1.978,-2.0273,-2.1789,-2.7293,-2.9507,0.0,-3.4653,-3.7265,-3.8964,-3.901,0.0,-3.7747,-3.8275,-3.8022,-3.7667,-3.7383,-3.7758,-3.7917,-3.7451,-3.6895,-3.6395,-3.595,-3.5588,-3.5138,-3.4425,-3.4057,-3.408,-3.4459,-3.4575,-3.4584,-3.4437,-3.4396,-3.4077,-3.3532,-3.287,-3.2544,-3.2544,-3.2544,-3.2544,-3.2544,-3.2544,-3.2392,-3.2088,-3.2502,-3.284,-3.3024,-3.2796,-3.2509,-3.211,-3.2576,-3.2619,-3.2455,-3.3157,-3.3174,-3.2827,-3.3034,-3.2897,-3.2493,-3.2594,-3.2594,-3.2594,-3.2645,-3.2818,-3.2992,-3.2942,-3.3092,-3.3342,-3.3369,-3.4286,-3.5357,-3.5941,-3.6797,-3.7878,-3.9322,-3.9622,-3.9647,-3.9697,-3.9697,-3.9697,-3.9697,-3.9697,-3.9697,-3.9697,-3.9697,-3.9697,-3.9697,-3.9749,-3.9749,-3.9697,-3.9749,-3.9724,-3.9622,-3.9673,-3.9673,-3.9622,-3.9474,-3.9221,-3.902,-3.8665,-3.8377,-3.82,-3.7067,-3.6732,-3.7258,-3.702,-3.6887,-3.6861,-3.6887,-3.7118,-3.7577,-3.7289,-3.7445,-2.0632,-2.244,0.0,-2.6987,-3.0498,-3.3711,-3.4722,-3.5657,-3.6438,-3.6828,-3.6438,-3.6162,-3.6668,-3.7012,-3.714,-3.7084,-3.7496,-3.7656,-3.7153,-3.6483,-3.5927,-3.5642,-3.5009,-3.4403,-3.3799,-3.3832,-3.3787,-3.3518,-3.3832,-3.3825,-3.3288,-3.3617,-3.3447,-3.2735,-3.276,-3.2942,-3.3119,-3.3119,-3.3119,-3.3119,-3.3119,-3.2969,-3.2667,-3.2352,-3.2339,-3.2603,-3.2288,-3.2403,-3.269,-3.2628,-3.252,-3.2469,-3.2683,-3.2661,-3.2549,-3.26,-3.2583,-3.2594,-3.3147,-3.3346,-3.3396,-3.3595,-3.3694,-3.3694,-3.3319,-3.3242,-3.3419,-3.4017,-3.4629,-3.5453,-3.6624,-3.6908,-3.727,-3.8918,-3.9196,-3.917,-3.9597,-3.9697,-3.9697,-3.9697,-3.9697,-3.9697,-3.9697,-3.9697,-3.9697,-3.9697,-3.9878,-3.9929,-3.9749,-3.9878,-3.9778,-3.9145,-3.9247,-3.9297,-3.9095,-3.9398,-3.97,-3.9855,-3.9398,-3.9271,-3.965,-3.7937,-3.7281,-3.7826,-3.7556,-3.7437,-3.7455,-3.7439,-3.7493,-3.7593,-3.691,-3.7086,-2.0991,0.0,0.0,-2.7801,0.0,-3.3142,-3.3192,-3.3343,-3.3594,-3.3743,-3.4514,-3.5474,-3.6461,-3.6461,-3.6214,-3.594,-3.605,-3.5836,-3.512,-3.4879,-3.4714,-3.4411,-3.4295,-3.3954,-3.33,-3.335,-3.3434,-3.3389,-3.3434,-3.326,-3.2841,-3.2969,-3.2777,-3.2167,-3.2551,-3.2754,-3.2902,-3.3155,-3.3292,-3.3292,-3.3292,-3.3142,-3.2891,-3.2443,-3.2392,-3.2667,-3.2516,-3.2617,-3.2891,-3.2718,-3.2617,-3.2493,-3.2667,-3.2718,-3.2718,-3.2818,-3.2869,-3.3019,-3.372,-3.3967,-3.4066,-3.4605,-3.4751,-3.4702,-3.4482,-3.4237,-3.4139,-3.4799,-3.5283,-3.5789,-3.6709,-3.7235,-3.78,-3.893,-3.884,-3.8693,-3.9521,-3.9697,-3.9697,-3.9697,-3.9697,-3.9697,-3.9697,-3.9697,-3.9697,-3.9697,-3.9826,-3.9826,-3.9749,-3.9826,-3.9726,-3.9346,-3.9423,-3.9499,-3.9499,-3.9854,-4.0133,-4.0262,-4.0134,-4.0159,-4.0312,-3.8969,-3.8439,-3.8988,-3.8708,-3.874,-3.8991,-3.8742,-3.8542,-3.8391,-3.7565,-3.7492,-2.1038,0.0,-2.3615,-2.8579,-3.0606,0.0,-3.117,-3.1258,-3.1275,-3.106,-3.2687,-3.4595,-3.5779,-3.5466,-3.4879,-3.4493,-3.4276,-3.3907,-3.3153,-3.3263,-3.3401,-3.3286,-3.3419,-3.3348,-3.2878,-3.2737,-3.2778,-3.3186,-3.2846,-3.2574,-3.2411,-3.2388,-3.2144,-3.171,-3.2216,-3.2515,-3.2489,-3.3017,-3.3292,-3.3292,-3.3201,-3.3055,-3.2805,-3.2542,-3.256,-3.2891,-3.2891,-3.2942,-3.2992,-3.2992,-3.2818,-3.2645,-3.2869,-3.2992,-3.2992,-3.3242,-3.3292,-3.3419,-3.4115,-3.4434,-3.4678,-3.5379,-3.5667,-3.5715,-3.5523,-3.5211,-3.5066,-3.5523,-3.5906,-3.6238,-3.6781,-3.7561,-3.8381,-3.8929,-3.8577,-3.8416,-3.9548,-3.9749,-3.9697,-3.9697,-3.9697,-3.9697,-3.9697,-3.9697,-3.9697,-3.9697,-3.9749,-3.9749,-3.9697,-3.98,-3.9877,-3.9926,-3.9851,-3.9979,-4.0311,-4.0466,-4.0567,-4.0567,-4.0744,-4.0771,-4.0594,-3.9878,-3.9728,-4.0225,-3.9872,-3.9952,-4.0414,-4.0032,-3.9624,-3.921,-3.839,-3.7942,-2.0932,0.0,-2.541,0.0,-2.9234,-3.0125,0.0,0.0,-3.1012,0.0,-3.1431,-3.1897,-3.2101,-3.2548,-3.304,-3.3398,-3.3635,-3.3821,-3.4132,-3.3298,-3.2864,-3.3498,-3.2438,-3.19,-3.2509,-3.19,-3.155,-3.1595,-3.155,-3.1324,-3.0918,-3.1497,-3.1639,-3.1134,-3.2011,-3.2494,-3.2489,-3.3017,-3.3292,-3.3269,-3.281,-3.2581,-3.2532,-3.2119,-3.2248,-3.2891,-3.2891,-3.3042,-3.3242,-3.3242,-3.3242,-3.317,-3.3242,-3.3242,-3.3242,-3.3292,-3.3292,-3.3419,-3.4139,-3.4702,-3.5138,-3.5475,-3.5906,-3.6048,-3.5163,-3.5211,-3.5571,-3.5858,-3.6238,-3.6781,-3.7551,-3.7675,-3.7764,-3.8286,-3.8537,-3.896,-3.9829,-3.9826,-3.9697,-3.9697,-3.9697,-3.9697,-3.9697,-3.9697,-3.9697,-3.9697,-3.9878,-3.9981,-3.9749,-4.0108,-4.0491,-4.0691,-4.0542,-4.0619,-4.1157,-4.1003,-4.0821,-4.0821,-4.0869,-4.0867,-4.0843,-4.0515,-4.0465,-4.0796,-4.008,-3.9826,-4.008,-4.0313,-3.9852,-3.8839,-3.825,-3.774,-2.0411,-2.2273,-2.4361,0.0,-2.7003,-2.7745,-2.7489,-2.812,-2.8745,-2.8564,-2.9168,-3.0137,-3.1405,-3.1757,-3.1877,-3.1788,-3.1863,-3.1909,-3.1887,-3.1626,-3.1634,-3.2229,-3.1877,-3.175,-3.2053,-3.1796,-3.1563,-3.1563,-3.1312,-3.1038,-3.0833,-3.0881,-3.0974,-3.1252,-3.1761,-3.2317,-3.2951,-3.304,-3.3017,-3.2856,-3.2321,-3.2228,-3.2507,-3.1995,-3.206,-3.2662,-3.2411,-3.2483,-3.2833,-3.2833,-3.3017,-3.3292,-3.3292,-3.3292,-3.3292,-3.3292,-3.3568,-3.4017,-3.4799,-3.5523,-3.6143,-3.6687,-3.6811,-3.6621,-3.6299,-3.6181,-3.6299,-3.6805,-3.7062,-3.7294,-3.792,-3.8109,-3.8314,-3.8886,-3.9265,-3.9689,-4.0413,-4.0338,-4.0083,-3.9929,-3.9929,-3.9878,-3.9749,-3.9697,-3.9697,-3.9697,-4.0052,-4.0357,-4.0357,-4.0896,-4.1333,-4.1615,-4.1541,-4.1646,-4.2034,-4.1931,-4.1905,-4.2087,-4.2084,-4.1948,-4.1631,-4.1352,-4.1175,-4.1151,-4.0613,-4.0434,-4.0509,-4.0337,-3.9949,-3.9303,-3.8284,-3.7828,0.0,0.0,-2.2145,-2.3458,-2.4597,-2.5396,0.0,0.0,-2.6688,0.0,-2.7283,-2.8474,-3.0256,-3.0653,-3.0661,-3.0392,-3.0227,-3.0096,-2.9989,-3.0229,-3.0599,-3.1233,-3.1382,-3.1433,-3.157,-3.1456,-3.1364,-3.1364,-3.1019,-3.0813,-3.0813,-3.0468,-3.0582,-3.1158,-3.167,-3.23,-3.3101,-3.3052,-3.2816,-3.2465,-3.1971,-3.1924,-3.2254,-3.176,-3.1786,-3.2268,-3.206,-3.2245,-3.2684,-3.2684,-3.3007,-3.3492,-3.3492,-3.3492,-3.3519,-3.3479,-3.378,-3.4365,-3.5013,-3.5672,-3.6396,-3.7111,-3.7246,-3.7075,-3.698,-3.7004,-3.7168,-3.7439,-3.7656,-3.7874,-3.8213,-3.8589,-3.9029,-3.938,-3.9842,-4.0296,-4.0716,-4.0643,-4.0389,-4.0134,-4.0083,-4.0032,-3.9749,-3.9697,-3.9799,-3.9976,-4.0354,-4.0761,-4.115,-4.1663,-4.2074,-4.2362,-4.2365,-4.2445,-4.2785,-4.2655,-4.2681,-4.2995,-4.2892,-4.2627,-4.2203,-4.1889,-4.1579,-4.1324,-4.1069,-4.0913,-4.0778,-4.0456,-4.0048,-3.9556,-3.8515,-3.8174,0.0,-1.8569,0.0,-2.0941,-2.2316,-2.3537,0.0,0.0,-2.6039,-2.6282,-2.6541,-2.6824,-2.717,-2.8187,-2.9082,-2.9485,-2.9149,-2.9172,-3.0135,-3.003,-3.0214,-3.1188,-3.0696,-3.0491,-3.0996,-3.0583,-3.0285,-3.0285,-3.0285,-3.0262,-3.0262,-3.0465,-3.0578,-3.0669,-3.1809,-3.2488,-3.2536,-3.3029,-3.3029,-3.2489,-3.1971,-3.1736,-3.1736,-3.1243,-3.1313,-3.1784,-3.2277,-3.277,-3.3263,-3.3263,-3.3545,-3.4064,-3.4064,-3.4064,-3.4066,-3.391,-3.3911,-3.3982,-3.4195,-3.4615,-3.5181,-3.5653,-3.6549,-3.7245,-3.6332,-3.72,-3.8307,-3.7206,-3.7719,-3.8557,-3.8557,-3.9028,-3.9389,-3.921,-3.996,-4.069,-4.0591,-4.0517,-4.0389,-4.0134,-4.0083,-4.0032,-3.9749,-3.9697,-3.9976,-4.0741,-4.0843,-4.1203,-4.2002,-4.2368,-4.268,-4.29,-4.2756,-4.2785,-4.3329,-4.2909,-4.2729,-4.2995,-4.2528,-4.2215,-4.2189,-4.1639,-4.1324,-4.1324,-4.1324,-4.0979,-4.043,-4.0726,-4.0306,-3.922,-3.9216,-3.889,0.0,0.0,0.0,-1.8751,-1.9871,-2.0796,-2.1085,-2.2564,-2.3859,-2.3993,-2.4729,-2.5377,-2.5444,-2.6889,-2.8099,-2.8076,-2.8055,-2.821,-2.8566,-2.8948,-2.9353,-2.9897,-3.0102,-3.017,-3.0055,-2.9983,-2.9867,-2.9757,-2.9867,-3.0095,-3.0419,-3.0532,-3.0898,-3.1567,-3.2157,-3.2746,-3.3267,-3.3601,-3.3338,-3.248,-3.2289,-3.2027,-3.1714,-3.1523,-3.1547,-3.1738,-3.1884,-3.2272,-3.2771,-3.2771,-3.3288,-3.4113,-3.4113,-3.3876,-3.3595,-3.3551,-3.3883,-3.4354,-3.4429,-3.5188,-3.6166,-3.6341,-3.6409,-3.6422,-3.6253,-3.6663,-3.7059,-3.6775,-3.7176,-3.7782,-3.8157,-3.8336,-3.8538,-3.9421,-4.0197,-4.0837,-4.0993,-4.0896,-4.0694,-4.0389,-4.0619,-4.0669,-4.0056,-4.0536,-4.1071,-4.1206,-4.1794,-4.2437,-4.2962,-4.3405,-4.3715,-4.3813,-4.3767,-4.3769,-4.3976,-4.379,-4.3821,-4.4064,-4.3909,-4.365,-4.3284,-4.2708,-4.221,-4.1873,-4.1507,-4.1217,-4.0975,-4.1074,-4.0929,-4.0509,-3.9848,-3.9622,-1.8138,0.0,0.0,0.0,-1.8043,-1.8565,-1.9149,-2.0632,-2.1955,-2.221,-2.3118,-2.3847,-2.3767,-2.5072,-2.6234,-2.6454,-2.6645,-2.688,-2.7277,-2.7827,-2.8382,-2.8963,-2.9415,-2.9573,-2.9362,-2.9424,-2.9535,-2.9471,-2.9741,-3.0106,-3.0456,-3.0709,-3.1357,-3.2478,-3.2669,-3.3216,-3.4054,-3.4006,-3.3693,-3.3112,-3.2704,-3.2343,-3.2047,-3.1834,-3.1761,-3.1805,-3.1805,-3.2088,-3.2486,-3.2723,-3.3268,-3.4073,-3.4239,-3.405,-3.3648,-3.3672,-3.3893,-3.4259,-3.4458,-3.5132,-3.5933,-3.6231,-3.6182,-3.6037,-3.6058,-3.6356,-3.671,-3.6618,-3.6941,-3.7407,-3.8044,-3.8282,-3.8701,-3.9894,-4.0499,-4.0834,-4.108,-4.1067,-4.0946,-4.0694,-4.0901,-4.0927,-4.0236,-4.0974,-4.1692,-4.1644,-4.2519,-4.3375,-4.3825,-4.4242,-4.4422,-4.4313,-4.4367,-4.4422,-4.4313,-4.4367,-4.4531,-4.4668,-4.4539,-4.4278,-4.3885,-4.331,-4.2759,-4.2238,-4.1794,-4.1507,-4.1324,-4.1284,-4.1179,-4.0961,-4.0279,-3.998,0.0,0.0,0.0,0.0,0.0,0.0,-1.9134,0.0,-2.0445,-2.1174,-2.1829,-2.2264,-2.2096,-2.2649,-2.3499,-2.46,-2.4807,-2.517,-2.6371,-2.6734,-2.7304,-2.8497,-2.8677,-2.8763,-2.8935,-2.9001,-2.9153,-2.939,-2.9926,-3.0208,-3.0232,-3.09,-3.1929,-3.3236,-3.326,-3.3765,-3.4727,-3.4222,-3.41,-3.4313,-3.3109,-3.2602,-3.2755,-3.2067,-3.1849,-3.1981,-3.1981,-3.2208,-3.2515,-3.309,-3.3573,-3.403,-3.4607,-3.4607,-3.4358,-3.4308,-3.399,-3.3595,-3.4228,-3.4298,-3.4298,-3.5168,-3.583,-3.6222,-3.5859,-3.6551,-3.7365,-3.6741,-3.7012,-3.7567,-3.8233,-3.9087,-3.993,-4.0548,-4.0712,-4.0777,-4.0777,-4.1054,-4.1198,-4.0946,-4.0896,-4.0744,-4.0236,-4.0875,-4.162,-4.2158,-4.2962,-4.3799,-4.4615,-4.4668,-4.4613,-4.4313,-4.4531,-4.4559,-4.4313,-4.4531,-4.4668,-4.4668,-4.4199,-4.3885,-4.3885,-4.3363,-4.2762,-4.2238,-4.2238,-4.1873,-4.1324,-4.1324,-4.101,-4.0461,-4.0484,-3.9931,-1.8709,0.0,0.0,0.0,0.0,0.0,0.0,0.0,-1.9246,-1.9338,-1.9973,-2.0607,-2.0823,-2.1162,-2.1533,-2.1993,-2.3366,-2.457,-2.5152,-2.5748,-2.6422,-2.7304,-2.8008,-2.8449,-2.8491,-2.9113,-2.9494,0.0,-3.0009,-3.0612,-3.0992,-3.1512,-3.2075,-3.2707,-3.2844,-3.3204,-3.3717,-3.3689,-3.3562,-3.322,-3.3064,-3.2812,-3.2509,-3.2318,-3.2269,-3.2313,-3.2313,-3.2342,-3.245,-3.2807,-3.3225,-3.3758,-3.4291,-3.4208,-3.3835,-3.44,-3.4319,-3.405,-3.4962,-3.5156,-3.5221,-3.6184,-3.6443,-3.6358,-3.6233,-3.6426,-3.6645,-3.648,-3.6482,-3.6702,-3.7501,-3.8385,-3.9156,-3.9868,-4.0241,-4.0516,-4.0746,-4.1054,-4.1198,-4.0946,-4.1207,-4.126,-4.0517,-4.1749,-4.2783,-4.2525,-4.354,-4.4431,-4.4668,-4.4668,-4.4613,-4.4313,-4.4367,-4.4367,-4.4313,-4.4367,-4.4476,-4.4668,-4.4591,-4.4487,-4.4487,-4.3938,-4.3363,-4.2788,-4.2369,-4.1873,-4.1324,-4.1324,-4.1219,-4.1013,-4.0642,-4.0236,0.0,0.0,0.0,0.0,0.0,0.0,-1.7446,-1.792,-1.8474,-1.876,-1.9179,-1.9535,-1.9533,-1.983,-2.003,-2.0101,-2.1489,-2.2901,-2.38,-2.4502,-2.5279,-2.6417,-2.7025,-2.7574,-2.8199,-2.8644,-2.9022,-2.9451,-3.0356,-3.1199,-3.1952,-3.2113,-3.2381,-3.2783,-3.2897,-3.3186,-3.3608,-3.3722,-3.3668,-3.3416,-3.3265,-3.3084,-3.2852,-3.2542,-3.2444,-3.2506,-3.2506,-3.2593,-3.2686,-3.2965,-3.3371,-3.3863,-3.4728,-3.4693,-3.4329,-3.5099,-3.5095,-3.4787,-3.5717,-3.5907,-3.5939,-3.6784,-3.6754,-3.6405,-3.6405,-3.6405,-3.6405,-3.6405,-3.6518,-3.6783,-3.7577,-3.8218,-3.8885,-3.9617,-4.0026,-4.0346,-4.0547,-4.0969,-4.1248,-4.1097,-4.1307,-4.1413,-4.108,-4.2268,-4.315,-4.302,-4.3879,-4.4531,-4.4531,-4.4422,-4.4313,-4.4148,-4.4203,-4.4313,-4.4313,-4.4422,-4.4531,-4.4668,-4.4668,-4.4668,-4.4668,-4.4408,-4.3964,-4.3389,-4.2814,-4.2134,-4.1324,-4.1324,-4.1248,-4.1145,-4.0821,-4.0542,0.0,0.0,0.0,0.0,0.0,0.0,-1.8426,-1.8153,-1.7958,-1.8669,-1.8784,-1.8648,-1.8228,-1.85,-1.8763,-1.8699,-1.9436,-2.0658,-2.2572,-2.3248,-2.4144,-2.5692,-2.6015,-2.6628,-2.7989,-2.8011,-2.844,-2.9642,-3.0932,-3.2063,-3.2993,-3.2723,-3.2753,-3.3088,-3.3113,-3.3379,-3.3826,-3.3826,-3.3962,-3.4119,-3.3514,-3.3266,-3.3419,-3.2772,-3.2574,-3.2766,-3.2766,-3.2921,-3.3194,-3.3477,-3.3682,-3.4065,-3.5324,-3.5596,-3.5403,-3.6103,-3.607,-3.5747,-3.6461,-3.651,-3.6387,-3.7098,-3.6982,-3.6524,-3.6524,-3.6524,-3.6524,-3.6524,-3.6912,-3.7425,-3.8076,-3.8418,-3.8824,-3.9536,-4.0059,-4.0334,-4.0287,-4.083,-4.1374,-4.1324,-4.135,-4.1484,-4.175,-4.2502,-4.3179,-4.3381,-4.395,-4.4313,-4.4258,-4.4064,-4.3899,-4.3955,-4.4094,-4.4258,-4.4367,-4.4531,-4.4668,-4.4668,-4.4668,-4.4668,-4.4668,-4.4668,-4.446,-4.3939,-4.3258,-4.2422,-4.14,-4.1324,-4.1172,-4.0967,-4.0919,-4.0767,0.0,0.0,0.0,0.0,0.0,0.0,-1.8363,-1.7847,-1.7363,-1.6937,-1.6853,-1.6792,-1.666,-1.6708,-1.6943,-1.7454,-1.7873,-1.9102,-2.1946,-2.2732,-2.3623,-2.5182,-2.6085,-2.6909,-2.7723,-2.8825,-2.9776,-3.0493,-3.2085,-3.3081,-3.3318,-3.3386,-3.3179,-3.2591,-3.2723,-3.2772,-3.272,-3.2871,-3.2959,-3.2978,-3.3121,-3.3158,-3.3176,-3.3032,-3.2982,-3.3025,-3.3025,-3.3276,-3.3746,-3.3803,-3.3726,-3.3702,-3.4853,-3.5547,-3.5945,-3.6306,-3.6396,-3.6476,-3.6989,-3.6674,-3.6197,-3.7204,-3.7354,-3.7123,-3.7123,-3.724,-3.7317,-3.7162,-3.7208,-3.7467,-3.8254,-3.8367,-3.8516,-3.947,-4.0196,-4.0569,-4.0334,-4.0976,-4.1547,-4.1374,-4.169,-4.2005,-4.1802,-4.2866,-4.3596,-4.3164,-4.3787,-4.4203,-4.401,-4.3955,-4.401,-4.4203,-4.4064,-4.4148,-4.4559,-4.4476,-4.4476,-4.4668,-4.4668,-4.4668,-4.4668,-4.4668,-4.446,-4.3939,-4.2866,-4.2261,-4.204,-4.1529,-4.1248,-4.1222,-4.0993,-4.0893,0.0,0.0,0.0,-2.039,0.0,0.0,0.0,-1.8559,-1.814,-1.7926,-1.7728,-1.7439,-1.7149,-1.7096,-1.6964,-1.6569,-1.7444,-1.8533,-1.9474,-2.1033,-2.2719,-2.4518,-2.5278,-2.6274,-2.7982,-2.8923,-3.0292,-3.2356,-3.3265,-3.3989,-3.4511,-3.423,-3.3852,-3.3386,-3.3197,-3.3025,-3.2896,-3.2896,-3.3021,-3.3296,-3.3452,-3.3621,-3.3897,-3.3621,-3.3495,-3.3539,-3.3626,-3.3864,-3.4123,-3.4679,-3.4881,-3.4976,-3.6051,-3.6573,-3.6888,-3.7785,-3.7915,-3.7699,-3.8088,-3.7749,-3.7207,-3.7861,-3.7561,-3.6988,-3.6988,-3.7063,-3.7101,-3.7025,-3.7139,-3.7477,-3.8199,-3.8322,-3.8588,-3.9617,-4.0377,-4.0911,-4.0944,-4.1307,-4.1647,-4.1547,-4.2105,-4.2553,-4.2398,-4.3258,-4.3857,-4.3684,-4.3913,-4.3984,-4.3708,-4.3543,-4.3543,-4.3793,-4.3738,-4.3874,-4.4422,-4.4367,-4.4422,-4.4668,-4.4668,-4.4668,-4.4668,-4.4668,-4.446,-4.3939,-4.3363,-4.2917,-4.2574,-4.2287,-4.1869,-4.1274,-4.0743,-4.0743,0.0,0.0,0.0,0.0,0.0,-2.0532,0.0,0.0,0.0,-1.9207,0.0,0.0,0.0,0.0,0.0,-1.5963,0.0,0.0,0.0,-1.8857,0.0,-2.3218,-2.4145,-2.5505,-2.7654,-2.8298,-3.0103,-3.3851,-3.375,-3.4134,-3.5573,-3.4965,-3.4522,-3.4397,-3.3768,-3.3471,-3.3471,-3.3427,-3.3662,-3.4161,-3.413,-3.4477,-3.5105,-3.4325,-3.4029,-3.4204,-3.4292,-3.4361,-3.4437,-3.5531,-3.6095,-3.6335,-3.7306,-3.764,-3.7723,-3.8941,-3.9089,-3.8615,-3.8802,-3.8422,-3.7934,-3.8129,-3.7587,-3.6839,-3.6761,-3.6868,-3.704,-3.6897,-3.7139,-3.7546,-3.8172,-3.8464,-3.8811,-3.964,-4.0539,-4.1199,-4.1423,-4.1634,-4.1773,-4.1855,-4.2471,-4.3023,-4.3023,-4.3545,-4.4038,-4.4206,-4.3984,-4.3708,-4.3351,-4.3229,-4.3255,-4.3462,-4.3563,-4.3811,-4.4364,-4.4258,-4.4341,-4.4668,-4.4642,-4.4642,-4.4668,-4.4668,-4.4513,-4.4042,-4.3938,-4.365,-4.318,-4.3074,-4.2497,-4.143,-4.0645,-4.0543,0.0,0.0,0.0,0.0,-2.0691,0.0,0.0,0.0,-1.8884,-1.8461,0.0,0.0,0.0,0.0,0.0,0.0,0.0,0.0,-1.5499,-1.6858,-1.8516,-2.0129,-2.321,-2.5219,-2.5227,-2.6329,-2.8953,-3.3595,-3.2324,-3.255,-3.5294,-3.5358,-3.5018,-3.4439,-3.3937,-3.3683,-3.3683,-3.4152,-3.465,-3.5132,-3.5021,-3.5543,-3.6575,-3.4915,-3.4528,-3.5132,-3.4727,-3.4553,-3.463,-3.5801,-3.6161,-3.6129,-3.7144,-3.7682,-3.796,-3.8012,-3.813,-3.8178,-3.7703,-3.7234,-3.6882,-3.7069,-3.725,-3.7346,-3.6934,-3.7477,-3.8185,-3.7565,-3.7626,-3.7959,-3.8601,-3.8757,-3.8878,-3.9368,-4.046,-4.1268,-4.0884,-4.1437,-4.2153,-4.2433,-4.2759,-4.3023,-4.3023,-4.3724,-4.418,-4.3984,-4.3653,-4.3351,-4.3073,-4.347,-4.3739,-4.384,-4.4056,-4.43,-4.4611,-4.4235,-4.418,-4.4668,-4.4455,-4.4455,-4.4668,-4.4668,-4.4696,-4.4643,-4.4121,-4.3833,-4.3781,-4.3232,-4.2683,-4.2082,-4.1205,-4.0617,0.0,0.0,0.0,0.0,0.0,0.0,-2.1039,0.0,-1.9409,0.0,0.0,0.0,0.0,0.0,0.0,0.0,-1.702,0.0,0.0,0.0,-1.846,-1.8992,0.0,0.0,-2.5932,-2.7057,-2.9623,-3.4511,-3.2889,-3.3185,-3.6684,-3.686,-3.6548,-3.5951,-3.5352,-3.5037,-3.4994,-3.4727,-3.5061,-3.5856,-3.6115,-3.6489,-3.7,-3.6204,-3.5631,-3.5365,-3.5321,-3.5097,-3.4847,-3.6025,-3.6333,-3.6175,-3.7368,-3.7889,-3.807,-3.8047,-3.8171,-3.8239,-3.7358,-3.7214,-3.7336,-3.6881,-3.6937,-3.704,-3.6463,-3.6899,-3.7592,-3.768,-3.7886,-3.8225,-3.8861,-3.9024,-3.9168,-3.9773,-4.0509,-4.1096,-4.1201,-4.1405,-4.1754,-4.2459,-4.2786,-4.3075,-4.3177,-4.3823,-4.4148,-4.3708,-4.3517,-4.3295,-4.3042,-4.3463,-4.3885,-4.4107,-4.4534,-4.4761,-4.4713,-4.4678,-4.4568,-4.4474,-4.4533,-4.4561,-4.4668,-4.4668,-4.4668,-4.4668,-4.4487,-4.4356,-4.4356,-4.4121,-4.3437,-4.2365,-4.0852,-4.0059,-2.4539,0.0,0.0,0.0,0.0,0.0,0.0,0.0,0.0,0.0,0.0,0.0,0.0,0.0,0.0,0.0,0.0,-1.7763,0.0,-1.6785,0.0,0.0,0.0,0.0,0.0,-2.6076,-2.8247,-3.3694,-3.225,-3.2958,-3.7292,-3.8012,-3.7997,-3.7377,-3.6661,-3.6404,-3.6545,-3.5824,-3.6017,-3.7209,-3.7429,-3.7719,-3.8069,-3.7535,-3.6823,-3.6017,-3.6079,-3.5574,-3.4873,-3.5989,-3.6217,-3.5963,-3.7236,-3.7739,-3.7797,-3.7941,-3.804,-3.7987,-3.7192,-3.7341,-3.773,-3.681,-3.6733,-3.6902,-3.6251,-3.6601,-3.7334,-3.7807,-3.826,-3.8655,-3.915,-3.9406,-3.9628,-4.004,-4.0503,-4.0958,-4.1302,-4.1405,-4.1701,-4.2644,-4.297,-4.3282,-4.3661,-4.3968,-4.4039,-4.3517,-4.3351,-4.329,-4.3243,-4.3689,-4.4155,-4.4497,-4.5062,-4.5323,-4.4956,-4.5122,-4.4941,-4.4338,-4.4692,-4.4855,-4.4722,-4.4668,-4.4668,-4.4668,-4.4668,-4.4559,-4.4341,-4.4341,-4.3563,-4.1953,-4.0557,-3.9701,0.0,0.0,0.0,-2.4192,0.0,0.0,0.0,0.0,-2.1443,0.0,0.0,0.0,0.0,0.0,0.0,0.0,0.0,0.0,0.0,0.0,0.0,0.0,0.0,0.0,0.0,-2.1746,-2.3151,-2.9884,-2.9203,-3.0885,-3.6353,-3.8226,-3.8859,-3.8167,-3.7496,-3.7489,-3.8104,-3.7801,-3.8212,-3.9409,-3.901,-3.9458,-4.0531,-3.8815,-3.7898,-3.7485,-3.7086,-3.5923,-3.4502,-3.5652,-3.5726,-3.5233,-3.6456,-3.697,-3.7035,-3.7268,-3.7215,-3.7037,-3.7008,-3.7346,-3.7647,-3.6585,-3.6726,-3.7251,-3.6656,-3.7237,-3.8074,-3.8074,-3.8767,-3.9437,-3.9466,-3.9931,-4.0272,-3.9844,-4.0328,-4.0893,-4.0742,-4.1411,-4.2339,-4.3226,-4.3388,-4.3661,-4.4489,-4.4233,-4.3764,-4.3462,-4.3184,-4.3218,-4.3714,-4.4242,-4.4709,-4.5023,-4.5879,-4.6155,-4.554,-4.533,-4.4926,-4.432,-4.5068,-4.5336,-4.4748,-4.4668,-4.4668,-4.4668,-4.4668,-4.4287,-4.3436,-4.3436,-4.2544,-4.0731,-4.055,-3.9712,0.0,0.0,-2.7666,-2.5856,0.0,0.0,0.0,0.0,0.0,0.0,0.0,0.0,0.0,0.0,0.0,0.0,0.0,0.0,0.0,0.0,0.0,0.0,0.0,0.0,0.0,0.0,-2.6383,-3.1466,-3.2275,-3.4622,-3.9313,-4.0373,-4.0556,-3.9916,-3.9577,-3.934,-3.9187,-3.8818,-3.8628,-3.8742,-3.9648,-3.9905,-3.9559,-3.9251,-3.8684,-3.7909,-3.7254,-3.6245,-3.5051,-3.5783,-3.5529,-3.4741,-3.6016,-3.6251,-3.6042,-3.6807,-3.7402,-3.7808,-3.7949,-3.7732,-3.7362,-3.7088,-3.7289,-3.7519,-3.6987,-3.7609,-3.8582,-3.9032,-3.9526,-4.0052,-4.0753,-4.0797,-4.0592,-4.0576,-4.043,-4.0354,-4.0634,-4.109,-4.1838,-4.2916,-4.3256,-4.3558,-4.4108,-4.4168,-4.4046,-4.3739,-4.357,-4.3589,-4.379,-4.4945,-4.5598,-4.5422,-4.6476,-4.6534,-4.4951,-4.4446,-4.4204,-4.4173,-4.4704,-4.509,-4.5291,-4.4929,-4.4796,-4.5022,-4.4658,-4.3965,-4.3051,-4.3058,-4.227,-4.0693,-3.9938,-3.9038,-2.9504,-2.9521,0.0,-2.7324,-2.6721,0.0,-2.4805,0.0,-2.246,0.0,0.0,0.0,0.0,0.0,0.0,0.0,0.0,0.0,0.0,-1.8481,0.0,0.0,0.0,0.0,0.0,-2.296,-2.5882,-3.0362,-3.2547,-3.5166,-3.8611,-4.0985,-4.1853,-4.1003,-4.096,-4.0821,-4.0656,-4.0069,-3.966,-3.9517,-4.0491,-4.042,-3.9474,-3.9731,-3.9158,-3.7916,-3.7431,-3.6534,-3.5338,-3.5678,-3.526,-3.4533,-3.5609,-3.5939,-3.5792,-3.6476,-3.7275,-3.806,-3.8554,-3.8375,-3.7923,-3.7618,-3.779,-3.8024,-3.7246,-3.7879,-3.8897,-3.9244,-3.9895,-4.0642,-4.1194,-4.1197,-4.106,-4.1,-4.0656,-4.0436,-4.0904,-4.1411,-4.208,-4.2971,-4.3355,-4.373,-4.4249,-4.4376,-4.4269,-4.3897,-4.3966,-4.4166,-4.4367,-4.5522,-4.6175,-4.5824,-4.6673,-4.6531,-4.4629,-4.422,-4.4002,-4.3913,-4.4529,-4.5098,-4.5386,-4.4934,-4.4779,-4.4862,-4.4156,-4.328,-4.209,-4.2139,-4.1476,-4.0198,-3.9174,-3.8391]},{"header":{"parameterUnit":"m.s-1","parameterCategory":1,"la1":30.6,"la2":29.2853,"lo1":-89.7004,"lo2":-87.6739,"dy":0.0162,"dx":0.0183,"nx":112,"ny":82,"refTime":"2023-04-06T06:00:00:Z","depth":0,"parameterNumber":3,"parameterNumberName":"V-component_of_WINDS"},"data":[0.0,0.0,0.0,0.0,0.0,0.0,0.0,0.0,0.0,0.0,0.0,0.0,0.0,0.0,0.0,0.0,0.0,0.0,0.0,0.0,0.0,0.0,0.0,0.0,0.0,0.0,0.0,0.0,0.0,0.0,0.0,0.0,0.0,0.0,0.0,0.0,0.0,0.0,0.0,0.0,0.0,0.0,0.0,0.0,0.0,0.0,0.0,0.0,0.0,0.0,0.0,0.0,0.0,0.0,0.0,0.0,0.0,0.0,0.0,0.0,0.0,0.0,0.0,0.0,0.0,0.0,0.0,0.0,0.0,0.0,0.0,0.0,0.0,0.0,0.0,0.0,0.0,0.0,0.0,0.0,0.0,0.0,0.0,0.0,0.0,0.0,0.0,0.0,0.0,0.0,2.8983,2.7652,2.7006,2.6234,2.5056,2.3766,2.2081,1.9922,0.0,0.0,0.0,0.0,0.0,0.0,0.0,0.0,0.0,0.0,0.0,0.0,0.0,0.0,0.0,0.0,0.0,0.0,0.0,0.0,0.0,0.0,0.0,0.0,0.0,0.0,0.0,0.0,0.0,0.0,0.0,0.0,0.0,0.0,0.0,0.0,0.0,0.0,0.0,0.0,0.0,0.0,0.0,0.0,0.0,0.0,0.0,0.0,0.0,0.0,0.0,0.0,0.0,0.0,0.0,0.0,0.0,0.0,0.0,0.0,0.0,0.0,0.0,0.0,0.0,0.0,0.0,0.0,0.0,0.0,0.0,0.0,0.0,0.0,0.0,0.0,0.0,0.0,0.0,0.0,0.0,0.0,0.0,0.0,0.0,0.0,0.0,0.0,0.0,0.0,0.0,0.0,0.0,0.0,0.0,0.0,0.0,0.0,0.0,0.0,0.0,0.0,0.0,0.0,3.2418,3.169,3.0026,2.8221,2.6303,2.3648,2.1315,1.9401,0.0,0.0,0.0,0.0,0.0,0.0,0.0,0.0,0.0,0.0,0.0,0.0,0.0,0.0,0.0,0.0,0.0,0.0,0.0,0.0,0.0,0.0,0.0,0.0,0.0,0.0,0.0,0.0,0.0,0.0,0.0,0.0,0.0,0.0,0.0,0.0,0.0,0.0,0.0,0.0,0.0,0.0,0.0,0.0,0.0,0.0,0.0,0.0,0.0,0.0,0.0,0.0,0.0,0.0,0.0,0.0,0.0,0.0,0.0,0.0,0.0,0.0,0.0,0.0,0.0,0.0,0.0,0.0,0.0,0.0,0.0,0.0,0.0,0.0,0.0,0.0,0.0,0.0,0.0,0.0,0.0,0.0,0.0,0.0,0.0,0.0,0.0,0.0,0.0,0.0,0.0,0.0,0.0,0.0,0.0,0.0,0.0,0.0,0.0,0.0,0.0,0.0,0.0,3.2725,3.3039,3.2505,3.1323,2.9542,2.6958,2.3933,2.1393,1.9527,1.8586,0.0,0.0,0.0,0.0,0.0,0.0,0.0,0.0,0.0,0.0,0.0,0.0,0.0,0.0,0.0,0.0,0.0,0.0,0.0,0.0,0.0,0.0,0.0,0.0,0.0,0.0,0.0,0.0,0.0,0.0,0.0,0.0,0.0,0.0,0.0,0.0,0.0,0.0,0.0,0.0,0.0,0.0,0.0,0.0,0.0,0.0,0.0,0.0,0.0,0.0,0.0,0.0,0.0,0.0,0.0,0.0,0.0,0.0,0.0,0.0,0.0,0.0,0.0,0.0,0.0,0.0,0.0,0.0,0.0,0.0,0.0,0.0,0.0,0.0,0.0,0.0,0.0,0.0,0.0,0.0,0.0,0.0,0.0,0.0,0.0,0.0,0.0,0.0,0.0,0.0,0.0,0.0,0.0,0.0,0.0,0.0,0.0,0.0,0.0,0.0,0.0,0.0,3.3087,3.277,3.2547,3.1658,2.9894,2.7011,2.3795,2.1268,1.972,1.777,0.0,0.0,0.0,0.0,0.0,0.0,0.0,0.0,0.0,0.0,0.0,0.0,0.0,0.0,0.0,0.0,0.0,0.0,0.0,0.0,0.0,0.0,0.0,0.0,0.0,0.0,0.0,0.0,0.0,0.0,0.0,0.0,0.0,0.0,0.0,0.0,0.0,0.0,0.0,0.0,0.0,0.0,0.0,0.0,0.0,0.0,0.0,0.0,0.0,0.0,0.0,0.0,0.0,0.0,0.0,0.0,0.0,0.0,0.0,0.0,0.0,0.0,0.0,0.0,0.0,0.0,0.0,0.0,0.0,0.0,0.0,0.0,0.0,0.0,0.0,0.0,0.0,0.0,0.0,0.0,0.0,0.0,0.0,0.0,0.0,0.0,0.0,0.0,0.0,0.0,0.0,0.0,0.0,0.0,0.0,0.0,0.0,0.0,0.0,0.0,0.0,0.0,3.304,3.2295,3.2815,3.1,2.8737,2.6298,2.2659,2.029,1.972,1.6949,0.0,0.0,0.0,0.0,0.0,0.0,0.0,0.0,0.0,0.0,0.0,0.0,0.0,0.0,0.0,0.0,0.0,0.0,0.0,0.0,0.0,0.0,0.0,0.0,0.0,0.0,0.0,0.0,0.0,0.0,0.0,0.0,0.0,0.0,0.0,0.0,0.0,0.0,0.0,0.0,0.0,0.0,0.0,0.0,0.0,0.0,0.0,0.0,0.0,0.0,0.0,0.0,0.0,0.0,0.0,0.0,0.0,0.0,0.0,0.0,0.0,0.0,0.0,0.0,0.0,0.0,0.0,0.0,0.0,0.0,0.0,0.0,0.0,0.0,0.0,0.0,0.0,0.0,0.0,0.0,0.0,0.0,0.0,0.0,0.0,0.0,0.0,0.0,0.0,0.0,0.0,0.0,0.0,0.0,0.0,0.0,0.0,0.0,0.0,0.0,0.0,0.0,3.3181,3.2962,3.2044,3.0876,2.8867,2.5636,2.2347,2.0092,1.9196,0.0,0.0,0.0,0.0,0.0,0.0,0.0,0.0,0.0,0.0,0.0,0.0,0.0,0.0,0.0,0.0,0.0,0.0,0.0,0.0,0.0,0.0,0.0,0.0,0.0,0.0,0.0,0.0,0.0,0.0,0.0,0.0,0.0,0.0,0.0,0.0,0.0,0.0,0.0,0.0,0.0,0.0,0.0,0.0,0.0,0.0,0.0,0.0,0.0,0.0,0.0,0.0,0.0,0.0,0.0,0.0,0.0,0.0,0.0,0.0,0.0,0.0,0.0,0.0,0.0,0.0,0.0,0.0,0.0,0.0,0.0,0.0,0.0,0.0,0.0,0.0,0.0,0.0,0.0,0.0,0.0,0.0,0.0,0.0,0.0,0.0,0.0,0.0,0.0,0.0,0.0,0.0,0.0,0.0,0.0,0.0,0.0,0.0,0.0,0.0,0.0,0.0,3.1467,3.2293,3.2257,3.0848,2.9976,2.811,2.4685,2.1633,1.95,1.8569,0.0,0.0,0.0,0.0,0.0,0.0,0.0,0.0,0.0,0.0,0.0,0.0,0.0,0.0,0.0,0.0,0.0,0.0,0.0,0.0,0.0,0.0,0.0,0.0,0.0,0.0,0.0,0.0,0.0,0.0,0.0,0.0,0.0,0.0,0.0,0.0,0.0,0.0,0.0,0.0,0.0,0.0,0.0,0.0,0.0,0.0,0.0,0.0,0.0,0.0,0.0,0.0,0.0,0.0,0.0,0.0,0.0,0.0,0.0,0.0,0.0,0.0,0.0,0.0,0.0,0.0,0.0,0.0,0.0,0.0,0.0,0.0,0.0,0.0,0.0,0.0,0.0,0.0,0.0,0.0,0.0,0.0,0.0,0.0,0.0,0.0,0.0,0.0,0.0,0.0,0.0,0.0,0.0,0.0,0.0,0.0,0.0,0.0,0.0,0.0,0.0,0.0,3.0289,3.0173,2.9768,2.9256,2.8038,2.6136,2.3346,2.0313,1.8395,0.0,0.0,0.0,0.0,0.0,0.0,0.0,0.0,0.0,0.0,0.0,0.0,0.0,0.0,0.0,0.0,0.0,0.0,0.0,0.0,0.0,0.0,0.0,0.0,0.0,0.0,0.0,0.0,0.0,0.0,0.0,0.0,0.0,0.0,0.0,0.0,0.0,0.0,0.0,0.0,0.0,0.0,0.0,0.0,0.0,0.0,0.0,0.0,0.0,0.0,0.0,0.0,0.0,0.0,0.0,0.0,0.0,0.0,0.0,0.0,0.0,0.0,0.0,0.0,0.0,0.0,0.0,0.0,0.0,0.0,0.0,0.0,0.0,0.0,0.0,0.0,0.0,0.0,0.0,0.0,0.0,0.0,0.0,0.0,0.0,0.0,0.0,0.0,0.0,0.0,0.0,0.0,0.0,0.0,0.0,0.0,0.0,0.0,0.0,0.0,0.0,0.0,0.0,3.0108,2.9719,2.919,2.8768,2.7018,2.4931,2.2572,1.9468,1.7539,1.7338,0.0,0.0,0.0,0.0,0.0,0.0,0.0,0.0,0.0,0.0,0.0,0.0,0.0,0.0,0.0,0.0,0.0,0.0,0.0,0.0,0.0,0.0,0.0,0.0,0.0,0.0,0.0,0.0,0.0,0.0,0.0,0.0,0.0,0.0,0.0,0.0,0.0,0.0,0.0,0.0,0.0,0.0,0.0,0.0,0.0,0.0,0.0,0.0,0.0,0.0,0.0,0.0,0.0,0.0,0.0,0.0,0.0,0.0,0.0,0.0,0.0,0.0,0.0,0.0,0.0,0.0,0.0,0.0,0.0,0.0,0.0,0.0,0.0,0.0,0.0,0.0,0.0,0.0,0.0,0.0,0.0,0.0,0.0,0.0,0.0,0.0,0.0,0.0,0.0,0.0,0.0,0.0,0.0,0.0,0.0,0.0,0.0,0.0,0.0,0.0,0.0,0.0,2.919,2.8454,2.7887,2.7878,2.6111,2.403,2.1964,1.9041,1.7141,1.6706,0.0,0.0,0.0,0.0,0.0,0.0,0.0,0.0,0.0,0.0,0.0,0.0,0.0,0.0,0.0,0.0,0.0,0.0,0.0,0.0,0.0,0.0,0.0,0.0,0.0,0.0,0.0,0.0,0.0,0.0,0.0,0.0,0.0,0.0,0.0,0.0,0.0,0.0,0.0,0.0,0.0,0.0,0.0,0.0,0.0,0.0,0.0,0.0,0.0,0.0,0.0,0.0,0.0,0.0,0.0,0.0,0.0,0.0,0.0,0.0,0.0,0.0,0.0,0.0,0.0,0.0,0.0,0.0,0.0,0.0,0.0,0.0,0.0,0.0,0.0,0.0,0.0,0.0,0.0,0.0,0.0,0.0,0.0,0.0,0.0,0.0,0.0,0.0,0.0,0.0,0.0,0.0,0.0,0.0,0.0,0.0,0.0,0.0,0.0,0.0,0.0,0.0,2.8136,2.6866,2.6168,2.6907,2.5286,2.3372,2.151,1.9046,1.7164,1.6168,0.0,0.0,0.0,0.0,0.0,0.0,0.0,0.0,0.0,0.0,0.0,0.0,0.0,0.0,0.0,0.0,0.0,0.0,0.0,0.0,0.0,0.0,0.0,0.0,0.0,0.0,0.0,0.0,0.0,0.0,0.0,0.0,0.0,0.0,0.0,0.0,0.0,0.0,0.0,0.0,0.0,0.0,0.0,0.0,0.0,0.0,0.0,0.0,0.0,0.0,0.0,0.0,0.0,0.0,0.0,0.0,0.0,0.0,0.0,0.0,2.1695,2.0918,0.0,0.0,0.0,0.0,0.0,0.0,0.0,0.0,0.0,0.0,0.0,0.0,0.0,0.0,0.0,0.0,0.0,0.0,0.0,0.0,0.0,0.0,0.0,0.0,0.0,0.0,0.0,0.0,0.0,0.0,0.0,0.0,0.0,0.0,0.0,0.0,0.0,0.0,0.0,0.0,2.9515,2.7113,2.5715,2.6794,2.4542,2.2562,2.1615,1.9061,1.7286,1.6745,1.4665,0.0,0.0,0.0,0.0,0.0,0.0,0.0,0.0,0.0,0.0,0.0,0.0,0.0,0.0,0.0,0.0,0.0,0.0,0.0,0.0,0.0,0.0,0.0,0.0,0.0,0.0,0.0,0.0,0.0,0.0,0.0,0.0,0.0,0.0,0.0,0.0,0.0,0.0,0.0,0.0,0.0,0.0,0.0,0.0,0.0,0.0,0.0,0.0,0.0,0.0,0.0,0.0,0.0,0.0,0.0,0.0,0.0,0.0,0.0,2.4168,2.2632,0.0,0.0,0.0,0.0,0.0,0.0,0.0,0.0,0.0,0.0,0.0,0.0,0.0,0.0,0.0,0.0,0.0,0.0,0.0,0.0,0.0,0.0,0.0,0.0,0.0,0.0,0.0,0.0,0.0,0.0,0.0,0.0,0.0,0.0,0.0,0.0,0.0,0.0,0.0,0.0,2.9279,2.6704,2.5037,2.559,2.3534,2.182,2.1099,1.8577,1.6934,1.6766,1.535,0.0,0.0,0.0,0.0,0.0,0.0,0.0,0.0,0.0,0.0,0.0,0.0,0.0,0.0,0.0,0.0,0.0,0.0,0.0,0.0,0.0,0.0,0.0,0.0,0.0,0.0,0.0,0.0,0.0,0.0,0.0,0.0,0.0,0.0,0.0,0.0,0.0,0.0,0.0,0.0,0.0,0.0,0.0,0.0,0.0,0.0,0.0,0.0,0.0,0.0,0.0,0.0,0.0,2.8457,2.8432,2.8675,2.9206,2.892,2.8089,2.8189,2.6065,2.2532,2.3742,0.0,0.0,0.0,0.0,0.0,0.0,0.0,0.0,0.0,0.0,0.0,0.0,0.0,0.0,0.0,0.0,0.0,0.0,0.0,0.0,0.0,0.0,3.0977,3.5013,3.6251,3.586,3.3472,0.0,0.0,0.0,0.0,0.0,0.0,0.0,0.0,0.0,0.0,0.0,2.8511,2.6258,2.4637,2.4677,2.2902,2.1486,2.0825,1.836,1.6884,1.6911,1.5781,1.3262,0.0,0.0,0.0,0.0,0.0,0.0,0.0,0.0,0.0,0.0,0.0,0.0,0.0,0.0,0.0,0.0,0.0,0.0,0.0,0.0,0.0,0.0,0.0,0.0,0.0,0.0,0.0,0.0,0.0,0.0,0.0,0.0,2.8768,2.6348,0.0,0.0,0.0,0.0,0.0,0.0,0.0,0.0,0.0,0.0,0.0,0.0,0.0,3.1271,3.0546,3.0077,2.9624,2.9188,3.0677,3.1108,3.0642,3.3155,3.3982,3.3587,3.3926,0.0,2.6813,2.3887,0.0,0.0,0.0,0.0,0.0,0.0,0.0,0.0,0.0,0.0,0.0,0.0,0.0,0.0,0.0,0.0,0.0,0.0,0.0,0.0,0.0,0.0,3.2375,3.6209,3.7209,3.7091,3.6138,3.5091,3.432,3.4249,3.3491,0.0,0.0,0.0,0.0,0.0,0.0,0.0,2.8521,2.6526,2.5469,2.6121,2.3843,2.227,2.2239,1.9777,1.8219,1.8175,1.6338,1.5299,1.5281,1.4683,0.0,0.0,0.0,0.0,0.0,0.0,0.0,0.0,0.0,0.0,0.0,0.0,0.0,0.0,0.0,0.0,0.0,0.0,0.0,0.0,0.0,0.0,0.0,0.0,0.0,0.0,0.0,0.0,0.0,2.6628,2.7438,2.322,2.5129,2.5863,0.0,0.0,0.0,0.0,0.0,0.0,0.0,0.0,0.0,3.0135,3.3385,3.445,3.3106,3.4114,3.4201,3.336,3.3711,3.4022,3.4192,3.5475,3.6354,3.6824,3.6675,3.5824,3.4263,3.0014,2.7939,2.7397,0.0,0.0,0.0,0.0,2.7413,2.7827,2.7491,2.759,2.8014,2.8584,0.0,0.0,0.0,0.0,0.0,0.0,0.0,2.6556,2.9156,3.1997,3.485,3.7384,3.8321,3.8479,3.7897,3.6724,3.5395,3.4337,3.4076,3.3748,3.2881,0.0,0.0,0.0,0.0,2.9255,2.9301,2.7091,2.5505,2.5391,2.3351,2.197,2.1842,1.9385,1.7958,1.8269,1.6726,1.5783,1.573,1.5448,1.5633,0.0,0.0,0.0,0.0,0.0,0.0,0.0,0.0,0.0,0.0,0.0,0.0,0.0,0.0,0.0,0.0,0.0,0.0,0.0,0.0,0.0,0.0,0.0,0.0,0.0,0.0,0.0,0.0,2.5812,2.6919,2.15,2.4823,2.665,0.0,0.0,0.0,0.0,0.0,0.0,2.9514,3.3003,3.4683,3.3921,3.7106,3.7996,3.6276,3.7706,3.8032,3.7239,3.6418,3.6338,3.6859,3.725,3.7873,3.8578,3.838,3.8812,3.9244,3.484,3.1926,3.0223,3.0582,3.0815,3.092,3.0954,3.124,3.1563,3.1486,3.1861,3.2436,3.2653,3.289,3.2974,3.2206,0.0,0.0,0.0,0.0,2.9632,3.1768,3.4416,3.7,3.89,3.9624,3.9753,3.9268,3.8183,3.6784,0.0,3.4758,3.4776,3.4195,0.0,0.0,0.0,0.0,2.964,2.9681,2.7498,2.5683,2.5113,2.3335,2.2025,2.162,1.9306,1.7929,1.8192,1.7145,1.6191,1.5443,1.6311,1.6771,1.6771,0.0,0.0,0.0,0.0,0.0,0.0,0.0,0.0,0.0,0.0,0.0,0.0,0.0,0.0,0.0,0.0,0.0,0.0,0.0,0.0,0.0,0.0,0.0,0.0,0.0,0.0,0.0,0.0,0.0,2.5721,2.8064,0.0,0.0,0.0,0.0,3.0792,3.2785,3.3642,3.2982,3.7382,3.9343,3.8015,4.1261,4.2354,4.1047,3.9698,3.903,3.8964,3.8161,3.7608,3.7324,3.871,3.9064,3.8674,3.9574,3.9594,3.8678,3.4888,3.4037,3.4723,3.1304,3.029,3.0718,3.0786,3.1171,3.1598,3.1702,3.2186,3.2952,3.4503,3.5168,3.5149,3.4066,3.3522,0.0,0.0,3.2877,3.4114,3.645,3.7233,3.8141,4.0948,4.132,4.0834,4.0181,3.9593,3.8654,0.0,3.5783,3.4949,3.4254,0.0,3.4324,3.1665,3.1538,3.1054,2.9116,2.7456,2.6488,2.6558,2.4739,2.3203,2.2506,2.0519,1.8981,1.8253,1.7651,1.7028,1.6256,1.7628,1.8345,1.8284,1.884,0.0,0.0,0.0,0.0,0.0,0.0,0.0,0.0,0.0,0.0,0.0,0.0,0.0,0.0,0.0,0.0,0.0,0.0,0.0,0.0,0.0,0.0,0.0,0.0,0.0,0.0,0.0,0.0,2.9989,3.2755,0.0,3.1021,3.1243,3.1796,3.2483,3.5268,3.683,3.6489,4.0118,4.1981,4.1537,4.2693,4.291,4.2051,4.1496,4.0726,3.9713,3.9469,3.9092,3.8777,3.9662,4.012,4.0238,4.1065,4.1291,4.1051,3.9257,3.8426,3.8132,3.7258,3.7113,3.7389,3.7426,3.7692,3.8149,3.8515,3.8765,3.9129,4.0112,3.9952,3.9071,3.7776,3.6728,3.5681,3.4081,3.5195,3.6956,3.7523,3.9032,4.0615,4.1302,4.1307,4.0964,4.0344,4.0098,3.9627,3.8592,3.746,3.6316,3.5149,3.5177,3.4889,3.3409,3.2521,3.1595,3.0347,2.8506,2.7269,2.7269,2.503,2.3386,2.3041,2.1193,1.9586,1.847,1.8221,1.7566,1.6418,1.7288,1.7741,1.7637,1.8144,1.8965,0.0,0.0,0.0,0.0,0.0,0.0,0.0,0.0,0.0,0.0,0.0,0.0,0.0,0.0,0.0,0.0,0.0,0.0,0.0,0.0,0.0,0.0,0.0,0.0,0.0,3.0109,3.272,3.232,3.5468,3.6816,3.4754,3.4647,3.5074,3.5885,3.8735,4.033,4.0018,4.2723,4.4097,4.3648,4.3618,4.3359,4.2701,4.25,4.1884,4.0867,4.0628,4.0388,4.0077,4.0656,4.1067,4.1336,4.2006,4.2392,4.2485,4.2016,4.146,4.0888,4.0811,4.0888,4.0994,4.1231,4.1627,4.2176,4.3154,4.3307,4.3307,4.4242,4.3885,4.2847,4.1765,4.0825,3.9757,3.8145,3.9179,4.0715,4.0362,4.1585,4.2817,4.2451,4.1977,4.1539,4.117,4.0731,4.0258,3.9818,3.8872,3.7733,3.6342,3.6279,3.5963,3.451,3.3423,3.2337,3.1225,2.9532,2.8279,2.7819,2.6154,2.4719,2.3882,2.2419,2.0885,1.9311,1.9217,1.8608,1.7218,1.8061,1.8376,1.7991,1.8679,2.0023,2.199,0.0,0.0,0.0,0.0,0.0,0.0,0.0,0.0,0.0,0.0,0.0,0.0,0.0,0.0,0.0,0.0,0.0,0.0,0.0,0.0,0.0,0.0,0.0,2.5048,3.2089,3.6136,3.302,3.6115,3.8206,3.7565,3.7536,3.862,4.1227,4.324,4.4077,4.3349,4.5173,4.5622,4.4377,4.4317,4.3988,4.3349,4.2731,4.244,4.241,4.1743,4.13,4.1109,4.1733,4.1873,4.1705,4.2423,4.2688,4.2688,4.2688,4.285,4.2862,4.142,4.087,4.0929,4.1538,4.2187,4.3053,4.4942,4.5207,4.4925,4.6442,4.6599,4.6196,4.5744,4.5635,4.5472,4.4795,4.4905,4.5204,4.5204,4.482,4.44,4.44,4.3535,4.2728,4.2695,4.162,4.064,4.064,4.004,3.9123,3.7794,3.8081,3.7575,3.4794,3.4242,0.0,3.1482,3.0501,2.9533,2.8261,2.8094,2.7166,2.5015,2.4217,2.2909,2.0751,2.0676,2.0113,1.8683,2.0004,2.0382,1.956,2.0624,2.2726,2.5856,0.0,0.0,0.0,0.0,0.0,0.0,0.0,0.0,0.0,0.0,0.0,0.0,0.0,0.0,0.0,0.0,0.0,0.0,0.0,0.0,0.0,2.9915,3.3107,3.2879,3.5552,3.8201,4.0064,4.1675,4.2396,4.1733,4.2545,4.2832,4.2162,4.4377,4.5274,4.4107,4.4556,4.4915,4.5035,4.4067,4.3917,4.4736,4.4107,4.3569,4.312,4.2892,4.1981,4.0554,4.1548,4.1863,4.1676,4.2393,4.2769,4.29,4.29,4.305,4.318,4.2595,4.2476,4.2624,4.2803,4.3728,4.4937,4.5477,4.5992,4.6418,4.6822,4.6323,4.5687,4.6192,4.5733,4.5122,4.5229,4.5315,4.5332,4.4944,4.4839,4.4661,4.4047,4.3466,4.2998,4.2762,4.2099,4.1499,4.1368,4.1146,4.0419,3.8555,3.8776,3.846,3.6156,3.5398,0.0,3.2137,3.0759,2.9642,2.8724,2.7691,2.6657,2.554,2.4892,2.3444,2.0932,2.13,2.078,1.8818,1.9685,2.0226,2.023,2.1849,2.3529,0.0,0.0,0.0,0.0,0.0,0.0,0.0,0.0,0.0,0.0,0.0,0.0,0.0,0.0,0.0,0.0,0.0,0.0,0.0,0.0,0.0,0.0,3.2688,3.67,3.8547,3.9753,4.1258,4.3469,4.4077,4.4167,4.3738,4.3688,4.3419,4.2821,4.4197,4.4814,4.4347,4.4586,4.4915,4.5274,4.4556,4.4526,4.5274,4.4915,4.4556,4.4197,4.3886,4.3169,4.2149,4.2426,4.2446,4.2367,4.2752,4.301,4.313,4.313,4.325,4.3478,0.0,0.0,0.0,0.0,4.478,4.5526,4.6373,4.6872,4.7128,4.721,4.6864,4.6388,4.6399,4.6043,4.5547,4.552,4.5641,4.5692,4.5358,4.5409,4.5419,4.49,4.4434,4.393,4.3373,4.277,4.2199,4.1685,4.1367,0.0,3.9977,3.9882,3.925,3.7164,3.6279,3.5051,3.2856,3.1653,3.0557,2.9517,2.8646,2.779,2.6785,2.6388,0.0,0.0,0.0,2.2501,2.0719,2.1021,0.0,0.0,0.0,2.4645,2.6321,0.0,0.0,0.0,3.2556,3.3423,0.0,0.0,0.0,0.0,0.0,0.0,0.0,0.0,0.0,0.0,0.0,0.0,0.0,0.0,0.0,0.0,3.4952,3.8243,4.2265,4.3675,4.4347,4.4407,4.4436,4.4377,4.4227,4.2701,4.2132,4.311,4.3379,4.3738,4.4287,4.4945,0.0,0.0,0.0,4.5364,4.5514,4.5454,4.5394,4.5394,4.4885,4.4627,4.4518,4.3808,4.3409,4.329,4.329,4.329,4.329,4.3329,4.3518,4.3754,4.3714,4.3596,4.3558,4.5092,4.5385,4.5303,4.7258,0.0,0.0,4.7588,4.7698,4.7556,4.6538,4.6329,4.6328,4.5761,4.5859,4.6148,4.6148,4.6223,4.6333,4.6298,4.5824,4.5085,4.4211,4.3476,4.2709,4.1814,4.1084,4.0799,4.14,4.0925,3.985,3.7986,3.7038,3.5805,3.3783,3.2892,3.188,3.0457,0.0,0.0,2.8221,2.8158,2.702,2.4188,2.4537,2.4366,2.3231,2.3052,2.3551,2.4806,2.4833,2.5953,2.8235,2.9037,3.0334,3.2055,3.3096,3.3905,0.0,0.0,0.0,0.0,0.0,0.0,0.0,0.0,0.0,0.0,0.0,0.0,0.0,0.0,0.0,3.2837,3.7386,4.1302,4.326,4.3942,4.4496,4.5035,4.5095,4.4706,4.3658,4.3658,4.3419,4.265,4.4018,4.4736,4.4347,4.4945,4.5544,4.6112,4.5574,4.5813,4.689,4.6381,4.6142,4.6142,4.6531,0.0,4.3575,4.4162,4.4046,4.329,4.329,4.329,4.3329,4.3518,4.3832,4.4181,4.4026,4.391,4.3962,4.4789,4.516,4.5489,4.7119,4.7342,4.7119,4.7907,4.7512,4.6736,4.6492,4.6313,0.0,4.6036,4.6116,4.6227,4.6227,4.6404,4.6477,4.6333,4.5998,4.5427,4.4381,4.3776,4.3104,4.2173,4.131,4.0801,4.0928,4.0262,3.9566,3.9155,3.8049,3.6722,3.5173,3.3878,3.2582,3.116,3.1033,3.0212,2.8252,2.86,2.7747,2.4954,2.3866,2.3274,2.3113,2.3386,2.3966,2.4855,2.6203,2.7442,2.8525,3.0063,3.1277,3.2198,3.3363,3.4243,0.0,0.0,0.0,0.0,0.0,0.0,0.0,0.0,0.0,0.0,0.0,2.7101,2.7016,0.0,3.3397,3.5124,3.8935,4.2227,4.3649,4.4113,4.4556,4.5214,4.4706,4.4197,4.3898,4.3539,4.321,4.288,4.3748,4.4466,4.4796,4.5125,4.5753,4.677,4.6471,4.6621,4.7309,4.698,4.68,4.68,4.6728,4.6184,4.53,4.4393,4.3715,4.329,4.329,4.329,4.3329,4.3714,4.4026,4.4297,4.4297,4.4297,4.4358,4.4913,4.5528,4.6243,4.6969,4.7455,4.77,4.7473,4.7107,4.674,4.6392,4.6226,4.6187,4.6187,4.6298,4.6474,4.6474,4.6615,4.6722,4.6615,4.6463,4.5982,4.4614,4.4166,4.3619,4.2366,4.1406,4.0801,4.0801,4.0103,3.9376,3.906,3.8144,3.713,3.6058,3.4383,3.3024,3.2329,3.195,3.1184,2.9863,2.9102,2.7961,2.6206,2.5128,2.4595,2.471,2.5171,2.5787,2.6493,2.7293,2.8186,2.919,3.0748,3.1821,3.2447,3.408,3.4912,0.0,0.0,0.0,0.0,0.0,0.0,0.0,0.0,2.9084,2.9907,3.0861,3.1258,3.0452,3.3027,3.5656,3.6955,3.9808,4.2315,4.3582,4.3975,4.4317,4.4855,4.4077,4.3708,4.4257,4.324,4.288,4.3618,4.3559,4.4007,4.5244,4.5424,4.5992,4.707,4.7249,4.7309,4.7309,4.7189,4.7189,4.7309,4.6446,4.6389,4.7012,4.4654,4.3567,4.3469,4.3389,4.3409,4.3527,4.391,4.4181,4.4343,4.4534,4.461,4.4633,4.5072,4.578,4.6516,4.6749,4.7364,4.7854,4.6856,4.6708,4.6812,4.6271,4.6223,4.6369,4.6369,4.6509,4.6652,4.6652,4.6756,4.6892,4.6892,4.6892,4.6502,4.504,4.4652,4.4136,4.2654,4.1534,4.0833,4.0801,4.0103,3.9281,3.8618,3.8049,3.7417,3.6722,3.5047,3.3814,3.353,3.3019,3.2317,3.1434,2.9584,2.8154,2.7423,2.6608,2.6204,2.6233,2.6819,2.7432,2.8094,2.8346,2.9045,3.0217,3.154,3.2427,3.2908,3.4831,3.5613,2.5272,2.6116,2.7529,2.9078,2.9618,3.029,0.0,0.0,3.2384,3.2846,3.1967,3.1202,3.1303,3.3366,3.5305,3.6191,3.9854,4.2629,4.2817,4.3169,4.3439,4.3499,4.3928,4.4227,4.4317,4.3658,4.3748,4.4975,4.4526,4.4526,4.5244,4.5873,4.6249,4.6399,4.701,4.7309,4.7309,4.6741,4.6741,4.7309,4.6446,4.6117,4.6334,4.5108,4.4422,4.4167,4.3797,4.3871,4.4189,4.4228,4.4381,4.4572,4.4572,4.461,4.461,4.4854,4.5029,4.5259,4.6222,4.6247,4.5939,4.6565,4.6502,4.6207,4.6144,4.633,4.6547,4.6547,4.6687,4.6892,4.6892,4.6892,4.6892,4.6892,4.6892,4.6666,4.5822,4.5175,4.4495,4.3524,4.2109,4.0991,4.0833,4.0103,3.9281,3.8618,3.846,3.8144,3.7449,3.6595,3.5556,3.432,3.4099,3.3277,3.1406,2.9864,2.8726,2.8022,2.6757,2.6029,2.6029,2.6587,2.7312,2.8063,2.9657,3.0898,3.1752,3.3056,3.3692,3.3786,3.5283,3.6103,2.7648,2.8995,3.021,3.1335,3.2335,3.3528,3.5143,3.5662,3.6116,3.7236,3.7226,3.692,3.6511,3.7579,3.863,3.9099,4.1186,4.2729,4.285,4.313,4.329,4.329,4.3529,4.3858,4.4287,4.4077,4.4287,4.5214,4.4676,4.4766,4.5843,4.6172,4.6501,4.689,4.716,4.7309,4.7309,4.6651,4.6651,4.7309,4.6959,4.6791,4.6864,4.5878,4.5323,4.509,4.4669,4.4604,4.4847,4.445,4.4419,4.461,4.461,4.461,4.461,4.4685,4.5122,4.5659,4.5747,4.5965,4.625,4.6375,4.6589,4.6865,4.7005,4.7223,4.7435,4.7435,4.7147,4.6892,4.6892,4.6892,4.6892,4.6892,4.6892,4.6698,4.5953,4.5273,4.456,4.3653,4.2173,4.0894,4.0324,3.9818,3.9123,3.8081,3.7923,3.7796,3.7541,3.688,3.6029,3.5047,3.4627,3.3704,3.2007,3.098,2.9935,2.8758,2.8537,2.8252,2.7819,2.8816,2.9564,2.9896,3.0658,3.1608,3.2756,3.3275,3.4132,3.524,3.5835,3.6562,2.8839,3.0658,3.2082,3.3306,3.5078,3.6843,3.8119,3.876,3.9528,4.0937,4.1264,4.1042,4.0178,4.0547,4.0986,4.0956,4.193,4.2769,4.293,4.313,4.329,4.329,4.3439,4.3738,4.4257,4.4137,4.4556,4.5753,4.5065,4.5185,4.6531,4.6591,4.68,4.7279,4.7309,4.7309,4.7309,4.6578,4.6621,4.7366,4.6604,4.6641,4.748,4.6653,4.6124,4.5839,4.5303,4.5227,4.5362,4.4657,4.4458,4.461,4.461,4.4733,4.4856,4.4709,4.5222,4.5859,4.5503,4.585,4.6492,4.6126,4.6502,4.7101,4.7277,4.749,4.7702,4.7702,4.7313,4.6892,4.6892,4.6892,4.6892,4.6892,4.6892,4.6698,4.5953,4.5403,4.4754,4.3718,4.2494,4.1406,4.0546,4.0071,3.9471,3.8491,3.8017,3.7638,3.7227,3.6564,3.5963,3.5458,3.4845,3.3858,3.2418,3.1892,3.1068,2.9746,2.999,2.9959,2.943,3.0401,3.1033,3.1198,3.1602,3.2392,3.3561,3.4162,3.518,3.6546,3.6735,3.7304,0.0,0.0,3.15,3.4646,3.7534,4.0043,4.1507,4.1872,4.2139,4.3089,4.2244,4.1026,4.0249,4.0604,4.0802,4.0249,4.1558,4.2688,4.2688,4.305,4.329,4.329,4.3858,4.4287,4.4317,4.3708,4.4396,4.704,4.6022,4.5843,4.7189,4.7279,4.7279,4.7309,4.7309,4.7309,4.7309,4.6446,4.6531,4.7551,4.4748,4.5018,4.7976,4.7266,4.6722,4.6253,4.5581,4.5393,4.5526,4.4849,4.4572,4.461,4.461,4.4972,4.5503,4.5046,4.5017,4.5272,4.5677,4.5787,4.5855,4.5823,4.6044,4.633,4.633,4.6612,4.6925,4.6925,4.6927,4.6892,4.6892,4.6892,4.6892,4.6892,4.6892,4.6698,4.5953,4.5791,4.5303,4.3814,4.3297,4.2877,4.1979,4.1149,4.0546,4.0514,3.9345,3.7986,3.6598,3.5837,3.5426,3.5394,3.4731,3.3778,3.2418,3.226,3.1943,3.1167,3.0528,3.0204,3.0172,3.0204,3.0528,3.1167,3.255,3.3561,3.4257,3.6371,3.7415,3.748,3.8144,3.8429,0.0,0.0,3.453,3.8132,3.9951,4.1194,4.2544,4.2882,4.2922,4.3086,4.0665,3.8236,3.7331,3.7646,3.7799,3.7086,4.0198,4.2688,4.2688,4.3437,4.3798,4.3349,4.3588,4.3858,4.3858,4.3918,4.4736,4.6531,4.5813,4.5873,4.7249,4.7309,4.7309,4.7309,4.7309,4.7309,4.7309,4.6578,4.6676,4.7581,4.6803,4.696,4.8007,4.789,4.7801,4.7609,4.7058,4.6831,4.685,4.5711,4.5249,4.5218,4.4756,4.5003,4.5596,4.5694,4.5832,4.5887,4.5677,4.5714,4.5823,4.5968,4.647,4.7037,4.718,4.7426,4.7637,4.7637,4.7281,4.6892,4.6892,4.6892,4.6892,4.6892,4.6892,4.6828,4.6568,4.6147,4.5594,4.5006,4.3618,4.2397,4.1979,4.1181,4.0419,3.9945,3.9092,3.8175,3.7259,3.6911,3.6595,3.6121,3.5426,3.4636,3.3715,3.3214,3.2866,3.2613,3.2803,3.2708,3.2266,3.3151,3.353,3.3245,3.4194,3.5015,3.571,3.6437,3.7259,3.8175,3.7923,3.8261,0.0,3.3576,3.6324,4.0258,4.1406,4.2055,4.3648,4.3618,4.325,4.3021,4.0011,3.7152,3.6203,3.504,3.4231,3.4362,3.659,3.8938,4.0754,4.1666,4.2545,4.3559,4.3738,4.3948,0.0,0.0,4.5158,4.5987,4.5668,4.6029,4.7349,4.7525,4.7525,4.7439,4.7439,4.7396,4.7309,4.7036,4.7249,4.794,4.8133,4.8218,4.8218,4.8343,4.8427,4.8366,4.7814,4.7741,4.7849,4.6537,4.5959,4.5873,4.5287,4.5303,4.5781,4.6164,4.6351,4.6423,4.6203,4.595,4.584,4.6059,4.6534,4.7037,4.7252,4.7464,4.7605,4.7605,4.7443,4.7216,4.6957,4.7087,4.7216,4.6957,4.6892,4.6828,4.65,4.6239,4.5914,4.5227,4.3871,4.2715,4.2329,4.153,4.0704,4.0008,3.9313,3.8523,3.7636,3.7259,3.6943,3.644,3.6026,3.5458,3.4731,3.4288,3.4036,3.4036,3.4446,3.4478,3.4067,3.4668,3.4889,3.4699,3.5142,3.5742,3.6408,3.6914,3.7638,3.8583,3.7886,3.8184,3.2793,3.4946,3.6864,4.1017,4.2011,4.2565,4.4713,4.4186,4.3121,4.2802,4.0032,3.7325,0.0,0.0,3.0581,3.2258,3.166,3.2716,3.7621,3.851,4.0097,0.0,0.0,0.0,0.0,0.0,0.0,4.5623,4.5725,4.6369,4.7624,4.797,4.8001,4.7744,4.7744,4.7628,4.7382,4.7804,4.8189,4.855,4.8583,4.8604,4.8573,4.8604,4.8604,4.8573,4.7927,4.8013,4.8506,4.7229,4.6664,4.6605,4.6188,4.5997,4.6066,4.6448,4.6705,4.6896,4.7226,4.6699,4.5908,4.6129,4.6267,4.6333,4.6512,4.6722,4.6892,4.6959,4.7443,4.7864,4.7184,4.754,4.7864,4.7119,4.6925,4.6728,4.5812,4.6132,4.6127,4.4573,4.415,4.3761,4.2964,4.2164,4.1367,4.0704,3.9977,3.9029,3.7731,3.6911,3.644,3.6408,3.6408,3.6153,3.5458,3.5394,3.5394,3.5394,3.5394,3.5363,3.5331,3.4731,3.4699,3.5394,3.5458,3.5837,3.6503,3.7859,3.8614,3.8798,3.813,3.8427,3.5103,3.6971,3.8813,4.2158,4.2398,4.2158,4.3661,4.3016,4.1617,3.9874,3.6101,3.2117,2.8876,2.9556,3.074,3.1205,3.5515,0.0,4.2532,4.3253,0.0,4.4904,0.0,4.515,4.482,4.5032,0.0,4.5808,4.6819,4.777,4.8576,4.9179,4.9452,4.9408,4.8923,4.8637,4.8624,4.8323,4.7973,4.764,4.8306,4.8358,4.7865,4.8389,4.8604,4.8604,4.8419,4.8419,4.859,4.8215,4.8231,4.8383,4.7662,4.7526,4.7723,4.7965,4.8349,4.8812,4.9111,4.8187,4.6771,4.636,4.6267,4.6333,4.6512,4.6722,4.6989,4.7572,4.7864,4.8091,4.8382,4.8573,4.8505,4.7687,4.749,4.7226,4.6343,4.624,4.6272,4.5818,4.4819,4.3568,4.2162,4.1748,4.1367,4.0704,3.9977,3.9187,3.8365,3.7638,3.7006,3.644,3.6408,3.6153,3.5458,3.5394,3.5394,3.5394,3.5394,3.5142,3.4604,3.5426,3.5742,3.5394,3.6406,3.7291,3.7956,3.8665,3.9396,4.0103,3.9745,4.0199,3.7442,3.9102,4.0712,4.3265,4.3353,4.2626,4.1797,4.1113,3.9585,3.5866,3.2212,2.8862,2.633,2.689,2.8056,0.0,0.0,0.0,4.12,4.2235,4.3337,0.0,4.5657,0.0,4.5788,4.6007,4.6323,4.6769,4.735,4.8103,4.9078,4.9591,4.9865,4.9769,4.9957,4.9861,4.9481,4.9139,4.8458,4.7456,4.7907,4.7804,4.7188,4.7865,4.8173,4.8173,4.8594,4.8963,4.9196,4.9158,4.9251,4.9349,4.8707,4.8351,4.8285,4.8607,4.8749,4.893,5.0048,4.9521,4.8231,4.713,4.6584,4.6465,4.693,4.7168,4.7403,4.811,4.8458,4.8643,4.8707,4.8965,4.8965,4.7826,4.7566,4.7337,4.6418,4.6223,4.6092,4.567,4.4678,4.3463,4.2286,4.181,4.1462,4.1083,4.0451,3.9724,3.9029,3.8081,3.7322,3.6943,3.6821,3.6508,3.59,3.578,3.5783,3.5837,3.5837,3.5805,3.5707,3.6153,3.6406,3.6311,3.6785,3.7354,3.8049,3.8526,3.907,3.9754,3.9569,4.0268,3.9673,4.0977,4.2184,4.4192,4.4312,4.3024,3.9665,3.882,3.7184,3.1607,2.8804,2.7042,2.6054,2.4879,2.4925,2.7392,0.0,3.2517,3.8147,3.9527,4.1322,4.4982,4.5963,4.6591,4.7292,4.7495,4.7752,4.8007,4.7801,4.816,4.9414,4.9904,5.0002,4.9796,5.0905,5.1049,5.01,4.9904,4.9074,4.7619,4.7619,4.725,4.6603,4.7311,4.765,4.7814,4.8635,4.9372,4.9947,5.0018,5.0026,4.9978,4.9667,4.9164,4.8685,4.9101,4.8839,4.8566,5.0384,5.0608,4.9815,4.837,4.7367,4.6917,4.7605,4.7838,4.7999,4.8638,4.9133,4.9367,4.8824,4.9175,4.9271,4.7864,4.7513,4.7253,4.6271,4.6076,4.5782,4.4879,4.4148,4.3519,4.2821,4.2062,4.1555,4.1555,4.0987,4.0324,3.9661,3.8429,3.7543,3.7354,3.7237,3.6957,3.6382,3.6234,3.6205,3.635,3.6256,3.6506,3.7135,3.6632,3.6695,3.7389,3.6916,3.7008,3.7765,3.8078,3.8488,3.8926,3.8843,3.9756,4.092,4.1569,4.2167,4.4154,4.3092,4.1097,3.8889,3.7084,0.0,0.0,2.7393,2.6383,2.3522,2.4472,2.7086,3.1357,3.3753,3.7121,4.2976,4.3575,4.4094,0.0,4.6219,4.6634,4.7478,4.7794,0.0,0.0,4.8898,4.9639,5.0439,5.1546,5.1915,5.1304,5.2074,5.1871,5.0605,4.9438,4.8416,4.7619,4.7619,4.725,4.6603,4.7311,4.8009,4.8769,4.8934,0.0,5.0275,5.0544,5.0892,5.1182,5.1312,5.1136,5.0858,5.095,5.0688,5.0352,5.0697,5.0884,5.0769,5.0191,4.9171,4.8198,4.8441,4.8546,4.8638,4.9192,4.9405,4.9629,5.0109,5.0301,5.0007,4.8419,4.8063,4.7675,4.6149,4.5859,4.5638,4.4843,4.418,4.3516,4.2821,4.1929,4.1357,4.1357,4.0759,4.0256,3.9967,3.8905,3.771,3.6548,3.6776,3.6749,3.606,3.5968,3.5968,3.5998,3.5466,3.5214,3.5339,3.5748,3.631,3.6997,3.765,3.8339,3.8968,3.898,3.9423,4.0262,4.0027,4.0929,4.2514,4.3069,4.3491,4.4373,4.3783,4.1632,3.6638,0.0,0.0,0.0,2.4487,2.4189,2.2585,2.4446,0.0,2.9514,3.3463,3.7441,4.0891,4.3059,4.4676,4.5663,4.6411,4.7036,4.7551,4.7709,4.7922,4.8301,4.9377,5.0199,5.0667,5.199,5.2575,5.2236,5.251,5.2383,5.1778,5.0746,4.9524,4.8112,4.7773,4.7105,4.6237,4.6576,4.6964,4.7415,4.84,4.8977,4.9353,5.0492,5.107,5.1331,5.1688,5.1725,5.1582,5.1438,5.1494,5.1544,5.1317,5.1194,5.1134,5.1255,5.0107,4.8765,4.9037,4.9032,4.9079,4.9738,4.9846,4.9794,5.0112,5.0246,4.9857,4.8384,4.7458,4.6724,4.595,4.5823,4.5697,4.5349,4.4433,4.3576,4.3295,4.2147,4.129,4.129,4.0972,4.0562,4.0088,3.9152,3.8185,3.7247,3.725,3.697,3.5971,3.585,3.585,3.5909,3.5597,3.5595,3.597,3.6626,3.6969,3.6938,3.7747,3.8341,3.878,3.8953,3.9588,4.0641,4.1041,4.1887,4.3427,4.4366,4.4912,4.4883,4.4634,4.2374,3.4833,3.2663,0.0,2.3325,2.2206,2.2468,2.2468,2.4149,2.5902,0.0,3.1266,3.5273,3.7887,4.1263,4.3975,0.0,4.6561,0.0,4.7666,4.7666,0.0,4.8343,4.9641,5.0616,5.1097,5.2144,5.2698,5.2698,5.2698,5.2695,5.2688,5.1986,5.0654,4.882,4.8019,4.7053,4.6075,4.5882,4.592,4.6214,4.7801,4.853,4.8757,5.0358,5.114,5.1434,5.1762,5.1977,5.1944,5.1729,5.1929,5.2265,5.1937,5.1466,5.1118,5.1729,5.0774,4.9454,4.9898,4.9844,4.9738,5.032,5.0246,5.001,5.005,4.9923,4.948,4.808,4.6871,4.5981,4.5855,4.5823,4.5823,4.5823,4.4709,4.3857,4.3857,4.2611,4.1565,4.144,4.1338,4.0953,4.0204,3.9579,3.902,3.8369,3.7777,3.7126,3.6287,3.6011,3.598,3.6224,3.61,3.6286,3.6846,3.7406,3.7499,3.7095,3.7655,3.8091,3.8404,3.8896,3.9593,4.0545,4.161,4.2266,4.2773,4.4392,4.5605,4.5806,4.4579,4.1596,3.5239,0.0,2.9406,2.3181,2.25,2.302,2.302,2.2833,2.3863,2.7498,2.8147,3.0765,3.8136,4.0042,4.2059,4.5789,0.0,0.0,4.7922,4.7964,4.8133,4.8521,4.9854,5.1221,5.2452,5.2637,5.2698,5.2698,5.2698,5.2698,5.2667,5.1778,5.0764,4.9558,4.8235,4.7219,4.652,4.5904,4.6082,4.6857,4.7672,4.8655,0.0,5.051,5.1397,5.2302,5.2338,5.2445,5.2518,5.2483,5.2412,5.2269,5.2236,5.1623,5.0914,5.1512,5.1336,5.101,5.1598,5.1377,5.0962,5.0989,5.064,5.0317,5.0512,5.0032,4.9132,4.7543,4.6951,4.655,4.595,4.5823,4.5823,4.5823,4.5016,4.4338,4.4338,4.3426,4.2461,4.1841,4.1748,4.143,4.0543,4.0557,4.0282,3.9434,3.7709,3.6815,3.7308,3.6785,3.6692,3.7308,3.6754,3.6477,3.6538,3.6631,3.6908,3.7431,3.7684,3.8151,3.8739,3.9408,3.9945,4.0352,4.1241,4.1736,4.3497,4.5022,4.5664,4.5938,4.3206,3.9309,3.505,0.0,2.7236,2.3412,2.2884,2.3095,2.3095,2.292,2.33,2.4854,2.6337,0.0,3.2124,3.4901,3.8121,4.2366,4.3749,0.0,0.0,0.0,4.8638,4.9762,5.0598,5.155,5.2667,5.2698,5.2698,5.2698,5.2329,5.1901,5.1523,5.1251,5.0696,4.9854,4.8924,4.7964,4.7029,4.6601,4.6562,4.695,4.7783,4.8577,0.0,5.0358,5.1285,5.205,5.2302,5.2445,5.2516,5.2553,5.2553,5.2447,5.22,5.1842,5.1586,5.1806,5.1769,5.1586,5.1397,5.1135,5.0838,5.0486,5.0363,5.0317,5.0395,4.9801,4.8955,4.7972,4.7212,4.651,4.5927,4.5714,4.5641,4.5641,4.4862,4.4216,4.4216,4.3438,4.27,4.2421,4.1979,4.1533,4.1217,4.0516,3.9835,3.9355,3.8719,3.8262,3.8108,3.7861,3.7646,3.7523,3.7246,3.6907,3.6507,3.6876,3.731,3.7809,3.8085,3.8868,4.0198,4.023,4.0769,4.1693,4.2382,4.2397,4.2502,4.4584,4.5723,4.6132,4.2585,3.8188,0.0,0.0,2.6155,2.3624,2.3095,2.3095,2.3095,2.3095,2.3095,2.3095,0.0,2.658,2.8249,3.1227,3.4683,0.0,0.0,4.279,4.6615,4.8218,4.9481,5.0605,5.1181,5.172,5.239,5.2606,5.2698,5.2698,5.2052,5.1335,5.0493,5.0574,5.0255,4.9595,4.8717,4.788,4.7107,4.6663,4.6702,4.7115,4.802,4.8733,0.0,5.051,5.1397,5.2013,5.2302,5.2409,5.2409,5.2516,5.2553,5.2553,5.2272,5.2095,5.2023,5.2131,5.2095,5.1878,5.1317,5.1092,5.0914,5.0563,5.048,5.0448,5.0339,5.0005,4.9483,4.8582,4.7806,4.6991,4.6215,4.5792,4.5609,4.5719,4.5018,4.4455,4.457,4.3873,4.3246,4.3061,4.252,4.2109,4.1925,4.0878,4.004,3.9868,3.9753,3.9453,3.8711,3.8282,3.7977,3.7703,3.7304,3.6906,3.6507,3.6938,3.7466,3.7966,3.8243,3.9248,4.0991,4.0928,4.1469,4.2586,4.3174,4.2861,3.8848,4.2565,4.5841,4.6666,4.3228,3.8818,0.0,0.0,2.6655,2.37,2.3095,2.3095,2.3095,2.3095,2.3095,2.3095,2.312,0.0,2.8624,3.0246,3.2299,0.0,0.0,4.0069,4.3519,4.8007,5.0667,5.0697,5.1313,5.1713,5.1713,5.2359,5.2698,5.2698,5.2052,5.1155,5.0012,4.9806,4.9343,4.8604,4.725,4.6603,4.6573,4.5895,4.6276,4.7509,4.8302,4.9279,0.0,5.1108,5.1802,5.2373,5.2409,5.2409,5.2409,5.2409,5.248,5.2589,5.2589,5.2307,5.2059,5.2483,5.2307,5.1951,5.1835,5.1582,5.1438,5.1623,5.1317,5.0811,5.0477,5.088,5.0957,4.9217,4.873,4.8292,4.6872,4.6156,4.59,4.623,4.5687,4.5284,4.5624,4.5067,4.4363,4.3685,4.3593,4.3347,4.2663,4.2017,4.1484,4.1306,4.0694,3.9917,3.907,3.7795,3.7344,3.8152,3.696,3.632,3.6476,3.6507,3.6971,3.7966,3.7997,3.8937,4.0801,4.1332,4.1874,4.2397,4.3204,4.2804,3.4724,3.6675,3.7777,3.8256,3.5402,3.2144,3.0856,2.7417,2.4227,2.3276,2.3095,2.3095,2.3095,2.3095,2.3246,2.3653,2.3728,0.0,0.0,0.0,0.0,3.6468,4.2682,4.7126,0.0,5.0105,5.1168,5.1374,5.1857,5.2181,5.239,5.2606,5.2698,5.2698,5.1621,5.0389,4.9075,4.8706,4.7966,4.6779,4.7318,4.7675,4.79,4.82,4.8812,4.9585,4.9808,5.0364,5.1112,5.1303,5.1802,5.2409,5.2409,5.2409,5.2409,5.2409,5.2409,5.248,5.248,5.2409,5.2269,5.2445,5.2409,5.2269,5.223,5.1802,5.1327,5.087,5.0243,4.9789,5.0126,4.9877,4.9305,4.8299,4.7909,4.748,4.6287,4.5719,4.5426,4.5536,4.5136,4.4799,4.4949,4.4761,4.4548,4.4332,4.3901,4.3531,4.3279,4.2554,4.1826,4.1151,4.08,4.0334,3.9738,3.9313,3.88,3.8105,3.7977,3.7526,3.6662,3.7435,3.8338,3.934,3.9661,4.061,4.2231,4.2261,4.2608,4.3204,4.295,4.2605,0.0,3.302,3.406,3.4574,3.1917,0.0,0.0,2.5819,2.3095,2.3095,2.3095,2.3095,2.3095,2.3095,2.3221,2.3602,2.3923,0.0,0.0,0.0,0.0,3.7982,0.0,0.0,4.9131,5.094,5.2052,5.1918,5.2273,5.2518,5.2698,5.2483,5.2253,5.2147,5.1221,5.0021,4.8614,4.8091,4.7278,4.6164,4.7021,4.7676,4.8137,4.8548,4.9489,5.0838,5.0542,5.095,0.0,5.1765,5.2017,5.2373,5.2302,5.2266,5.2266,5.2266,5.2266,5.2269,5.2075,5.2177,5.2376,5.2078,5.2142,5.2338,5.2017,5.1582,5.0962,4.9935,4.9392,4.9171,4.9558,4.9213,4.864,4.8307,4.8009,4.7502,4.6566,4.6207,4.5987,4.5839,4.5397,4.4993,4.4918,4.4723,4.461,4.461,4.4195,4.3881,4.3881,4.3111,4.2308,4.1728,4.1308,4.0939,4.0553,4.007,3.9525,3.8903,3.8697,3.8242,3.7404,3.8087,3.9086,4.0382,4.0642,4.1469,4.2899,4.2836,4.3021,4.3386,4.3013,4.2712,0.0,3.0939,3.3286,3.4068,0.0,0.0,0.0,2.5929,0.0,2.3185,2.3185,2.318,2.317,2.312,2.312,2.3221,2.385,0.0,0.0,3.126,0.0,0.0,4.4855,4.7243,4.7122,5.091,5.3113,5.2442,5.2563,5.2653,5.2698,5.2082,5.1546,5.1199,5.0839,4.9984,4.8584,4.7958,4.7281,4.6612,4.6577,4.6919,4.7561,4.7484,4.8905,0.0,5.0717,5.1175,5.2338,5.2338,5.2338,5.2338,5.2122,5.2083,5.2083,5.2086,5.2119,5.2023,5.1475,5.1711,5.2175,5.1479,5.1777,5.223,5.1359,5.0951,5.0486,4.9039,4.8702,4.8789,4.884,4.8723,4.867,4.8823,4.8595,4.8125,4.7376,4.7312,4.7271,4.6803,4.6197,4.5651,4.5431,4.4949,4.4603,4.4595,4.4412,4.4297,4.4297,4.3556,4.297,4.2749,4.2168,4.1739,4.1595,4.0351,3.9798,4.0282,3.9298,3.8711,3.868,3.8804,3.9593,4.118,4.1212,4.1753,4.2899,4.3021,4.3082,4.3113,4.3295,4.3026,2.5368,0.0,2.5096,2.5292,2.5406,2.5326,0.0,0.0,0.0,0.0,0.0,0.0,0.0,2.3396,2.3396,2.4249,2.4532,2.5962,2.9667,3.7092,0.0,4.9461,5.1287,5.2145,5.2317,5.2797,5.3113,5.3157,5.2667,5.2473,5.2698,5.2082,5.1138,4.9961,4.9941,4.9493,4.8584,4.7958,4.741,4.7045,4.7045,4.7542,4.8519,4.8983,5.0126,5.1725,5.1492,5.1667,5.1941,5.1941,5.1941,5.1941,5.1904,5.1868,5.1904,5.2013,5.2119,5.1987,5.13,5.1171,5.1303,5.1138,5.1673,5.223,5.1177,5.0838,5.0486,4.9039,4.8091,4.7565,4.7363,4.698,4.6642,4.6522,4.6893,4.7151,4.6579,4.6988,4.7208,4.6296,4.6084,4.5915,4.5411,4.4788,4.4488,4.4852,4.4439,4.4065,4.4065,4.3789,4.3331,4.2741,4.2712,4.2931,4.3426,4.2328,4.1234,4.029,4.1218,4.1401,4.0388,4.1693,4.2396,4.2266,4.2266,4.2456,4.2899,4.293,4.299,4.3113,4.3143,4.3169,2.5021,2.4269,2.3626,2.3179,2.3933,2.4682,2.4286,0.0,0.0,0.0,0.0,0.0,0.0,2.4105,2.3944,2.4813,2.6002,0.0,0.0,0.0,4.4018,4.9777,5.0903,5.1769,5.3147,5.3302,5.3126,5.2622,5.2397,5.2229,5.2058,5.1414,5.0559,4.9413,4.9096,4.8772,4.8443,4.8029,4.753,4.6959,4.7586,4.8115,4.8556,4.9345,5.0489,5.1762,5.1434,5.1467,5.1794,5.1794,5.1794,5.1794,5.1721,5.1647,5.1684,5.1758,5.1831,5.1733,5.1086,5.0859,5.0859,5.0859,5.1194,5.1451,5.0467,4.9903,4.9323,4.813,4.7224,4.6538,4.6265,4.583,4.5546,4.566,4.6087,4.6529,4.65,4.7105,4.7471,4.6787,4.6493,4.6258,4.594,4.5262,4.4878,4.5126,4.4655,4.4164,4.3901,4.3675,4.3485,4.3395,4.3249,4.3526,4.4475,4.3981,4.3211,4.2362,4.2986,4.3,4.2206,4.317,4.3524,4.3104,4.3104,4.3005,4.2775,4.2775,4.2806,4.2867,4.2959,4.3082,2.5909,2.6134,2.616,2.4447,2.4736,2.5354,2.5181,0.0,0.0,0.0,0.0,0.0,0.0,2.4929,0.0,0.0,0.0,0.0,3.8833,4.0052,4.2379,4.7776,4.8951,5.0202,5.2376,5.3214,5.3126,5.1849,5.2033,5.1954,5.1417,5.0651,5.0021,4.9438,4.8468,4.8061,4.8157,4.8183,4.7725,4.6916,4.8086,4.861,4.8499,4.93,5.0409,5.1688,5.1067,0.0,5.1721,5.1721,5.1721,5.1684,5.1536,5.1462,5.1462,5.1499,5.1499,5.1438,5.0834,5.0579,5.0481,5.0481,5.0517,5.0373,4.9534,4.8685,4.785,4.6967,4.6292,4.578,4.5372,4.5067,4.4986,4.5405,4.5709,4.6044,4.6725,4.7372,4.7847,4.7781,4.7254,4.6889,4.6942,4.614,4.5492,4.5574,4.5021,4.4349,4.3877,4.3498,4.3527,4.412,4.3723,4.3858,4.4954,4.5028,4.4966,4.4786,4.4419,4.4127,4.401,4.3881,4.3881,4.4043,4.3816,4.3395,4.278,4.2651,4.2586,4.2586,4.2775,4.293,2.7212,2.954,3.0774,2.5551,2.482,2.5384,2.5354,0.0,0.0,0.0,0.0,0.0,0.0,2.5464,2.5143,0.0,0.0,3.8735,0.0,0.0,5.1236,5.3408,5.3869,5.3987,5.3825,5.3521,5.3095,5.2577,5.2024,5.1775,5.1858,5.0739,4.9996,4.9904,4.8638,4.8007,4.8049,4.8012,4.8071,4.8192,4.8427,4.8968,4.9826,4.9936,5.0464,5.128,0.0,5.1182,5.128,5.128,5.128,5.1312,5.1275,5.1275,5.1275,5.1424,5.1499,5.1401,5.0688,5.004,4.9518,4.9518,4.9657,4.9586,4.861,4.8093,4.7481,4.6167,4.5758,4.5511,4.4909,4.4685,4.4648,4.4761,4.521,4.5811,4.6489,4.7472,4.8253,4.8409,4.8501,4.8522,4.8633,4.7425,4.6539,4.6941,4.5477,4.4327,4.4237,4.3688,4.3488,4.3988,4.3949,4.4098,4.4692,4.4768,4.4773,4.4819,4.5271,4.5496,4.55,4.4751,4.4719,4.5467,4.4302,4.3654,4.3557,4.2877,4.2586,4.2586,4.2618,4.2775,2.7558,2.8853,2.9918,2.8799,3.0599,3.2613,3.2505,0.0,0.0,0.0,0.0,0.0,0.0,0.0,3.0773,3.4506,3.7375,4.0831,4.5647,4.6407,4.7578,5.0757,5.133,5.2083,5.373,5.3813,5.3521,5.3082,5.2474,5.2032,5.1818,5.0514,4.9634,4.9264,4.8201,4.7624,4.7624,4.7709,4.7924,4.819,4.8624,4.9165,4.9802,5.0413,5.0876,5.1199,0.0,5.1199,5.1199,5.1199,5.1199,5.1199,5.1199,5.1199,5.1237,5.1312,5.135,5.122,5.0505,5.0018,4.9693,4.9271,4.8949,4.8621,4.7942,4.7357,4.6781,4.5939,4.5566,4.5277,4.474,4.461,4.474,4.5339,4.5287,4.5681,4.7949,4.8448,4.8795,4.9916,4.9561,4.9113,4.9194,4.8019,4.7056,4.6954,4.6047,4.5125,4.4407,4.4047,4.3918,4.4104,4.3801,4.396,4.482,4.4637,4.4495,4.462,4.4946,4.5074,4.4973,4.4415,4.4056,4.406,4.3253,4.2777,4.2655,4.1981,4.1947,4.2586,4.184,4.2192,2.7794,2.8248,2.9241,3.175,3.4152,3.6378,3.8141,3.8141,0.0,0.0,0.0,0.0,0.0,3.1002,3.5389,4.1157,4.1983,4.316,4.6863,4.5484,4.5453,4.9024,4.9656,5.0756,5.3244,5.3722,5.3541,5.2878,5.248,5.2062,5.1527,5.0216,4.9294,4.8841,4.8007,4.7452,4.7396,4.7473,4.7749,4.8239,4.8883,4.9458,4.9946,5.0795,5.1199,5.1199,5.1199,5.1199,5.1199,5.1199,5.1199,5.1199,5.1199,5.1199,5.1199,5.1199,5.1199,5.107,5.0357,5.0001,4.9742,4.8994,4.8317,4.7664,4.7241,4.682,4.6337,4.5941,4.5651,4.5358,4.4874,4.4733,4.4979,4.5811,4.5541,4.5982,4.9079,4.9184,4.9212,5.1006,5.0278,4.9382,4.9469,4.8503,4.7598,4.7056,4.6586,4.5963,4.4915,4.4496,4.4309,4.4356,4.3735,4.3672,4.4558,4.4178,4.3956,4.405,4.4061,4.4032,4.4031,4.3527,4.3132,4.2855,4.2357,4.2045,4.1976,4.1403,4.1629,4.2559,4.1402,4.1881,2.8338,3.0142,3.199,3.2906,3.0231,2.9343,3.698,3.649,0.0,3.9372,0.0,0.0,0.0,3.3558,3.501,3.9084,4.3675,4.8296,5.2827,5.329,5.329,5.3627,5.384,5.365,5.2858,5.2954,5.2586,5.1463,5.1326,5.1279,5.1247,4.9949,4.9331,4.9501,4.8687,4.8007,4.7581,4.7441,4.7917,4.9094,4.9407,5.0073,5.1065,5.1167,5.1199,5.1199,5.1199,5.1199,5.1199,5.1199,5.1199,5.1199,5.1199,5.1199,5.1199,5.1199,5.1199,5.107,5.0357,4.9645,4.8961,4.8317,4.7572,4.6888,4.6506,4.658,4.6719,4.6012,4.5981,4.6052,4.5358,4.5187,4.5253,4.5353,4.6058,4.7167,4.8705,4.8975,4.9378,5.1069,5.0432,4.9686,4.9938,4.901,4.8251,4.8191,4.71,4.6249,4.616,4.5095,4.4449,4.4828,4.3927,4.3326,4.3342,4.3148,4.2967,4.2838,4.2771,4.2898,4.3261,4.2391,4.2466,4.3617,4.2608,4.2262,4.2539,4.2103,4.2168,4.257,4.2106,4.2239,2.7914,3.0218,3.2584,3.2595,3.1526,3.2556,4.0458,4.167,4.1661,4.326,4.4639,0.0,0.0,0.0,4.1995,4.3697,4.8568,5.2562,5.3934,5.4482,5.4577,5.4134,5.3809,5.3513,5.3353,5.2981,5.2713,5.2507,5.1997,5.162,5.162,5.0359,4.9501,4.9147,4.8944,4.8573,4.8049,4.8049,4.8434,4.9126,4.8883,4.9528,5.101,5.1162,5.1124,5.101,5.1162,5.1199,5.1199,5.1199,5.1199,5.1199,5.1199,5.1199,5.1135,5.0681,5.0519,5.0422,4.9677,4.8965,4.835,4.8091,4.7508,4.6892,4.6722,4.6756,4.6858,4.658,4.6724,4.6661,4.5341,4.5294,4.5803,4.6555,4.7049,4.7924,4.9988,5.06,5.0808,5.0971,5.0201,4.9462,4.9159,4.8667,4.8147,4.7728,4.7249,4.68,4.6339,4.5873,4.5436,4.515,4.4398,4.3768,4.3274,4.3152,4.2978,4.2829,4.2504,4.2264,4.2153,4.1564,4.129,4.1383,4.0786,4.0668,4.1124,4.055,4.0935,4.2194,4.118,4.1744,2.6986,2.8431,3.0191,3.1235,0.0,0.0,4.2704,4.4476,4.5116,4.7845,4.8217,4.6858,4.2838,0.0,0.0,4.6271,5.1055,5.464,5.4166,5.4324,5.4324,5.385,5.3186,5.2774,5.2931,5.2597,5.2444,5.2501,5.194,5.1533,5.1604,5.0278,4.9355,4.8885,4.8858,4.8564,4.7948,4.7997,4.8288,4.8777,4.8173,4.8821,5.0618,5.0768,5.0898,5.101,5.0903,5.0843,5.0811,5.0584,5.0649,5.0876,5.1102,5.1038,5.0778,5.0293,4.9969,4.9645,4.8933,4.8382,4.7961,4.7734,4.7278,4.6823,4.6823,4.6789,4.6719,4.6719,4.6792,4.6612,4.5472,4.5943,4.6806,4.7191,4.7711,4.8624,5.0308,5.084,5.0923,5.0468,4.9691,4.8938,4.8364,4.8099,4.7818,4.7369,4.7309,4.713,4.6681,4.6369,4.601,4.5567,4.4986,4.4436,4.3947,4.3515,4.3249,4.3331,4.2811,4.2279,4.1858,4.1359,4.0807,4.0279,3.992,3.9871,4.0126,3.9742,4.041,4.1948,4.0751,4.1463,2.5585,2.4622,2.4626,2.8832,0.0,0.0,4.2798,4.3438,4.445,5.328,5.0912,4.668,4.4665,4.5393,4.6067,4.5409,5.0247,5.4103,5.4071,5.3534,5.3123,5.3092,5.246,5.1815,5.1319,5.1526,5.1467,5.0922,5.0826,5.0826,5.0896,4.9585,4.8825,4.8787,4.8346,4.7776,4.7123,4.7119,4.7416,4.8078,4.7384,4.813,5.0098,5.0098,5.0487,5.1135,5.039,5.0098,5.0034,4.9321,4.9451,5.0163,5.0876,5.0714,5.0098,5.0098,4.9645,4.8864,4.822,4.7993,4.7864,4.7119,4.6756,4.6582,4.6582,4.6474,4.6298,4.6298,4.6017,4.574,4.5763,4.7185,4.8243,4.6936,4.7922,4.9219,4.9292,4.9219,4.9292,4.962,4.8923,4.8145,4.7658,4.7409,4.7309,4.7309,4.7309,4.7309,4.7309,4.6565,4.601,4.6003,4.5578,4.5304,4.5274,4.4102,4.3575,4.4246,4.3678,4.3072,4.2493,4.1798,4.1242,4.0916,4.0581,4.028,4.0011,4.028,4.0912,4.1917,4.1085,4.1558,2.5023,2.7926,3.08,2.9524,0.0,0.0,0.0,4.4778,0.0,0.0,5.2681,4.9765,4.7076,4.9037,5.0141,4.7325,5.1319,5.4482,5.3534,5.3629,5.3439,5.246,5.1701,5.1167,5.0753,5.0838,5.0698,5.0188,5.0492,5.0403,4.9738,4.9439,4.8789,4.7707,4.8243,4.8185,4.7394,4.7337,4.7412,4.76,4.6865,4.7429,4.9102,4.9248,4.9378,4.9425,4.9268,4.9244,4.9285,4.9091,4.9123,4.9354,4.958,4.9548,4.9289,4.8803,4.8479,4.8152,4.7303,4.7042,4.6974,4.6609,4.6439,4.6404,4.6404,4.6333,4.6298,4.6298,4.6398,4.6465,4.6509,4.7065,4.7577,4.7207,4.7837,4.8572,4.8585,4.8675,4.8626,4.8097,4.7795,4.7519,4.7426,4.7352,4.7309,4.7309,4.7309,4.7309,4.7309,4.7057,4.6693,4.6075,4.5578,4.5196,4.4877,4.4336,4.4295,4.4975,4.4377,4.3498,4.2447,4.203,4.1654,4.1272,4.116,4.107,4.0972,4.0591,4.104,4.2234,4.1504,4.2171,2.4664,2.7674,0.0,3.2182,3.6569,4.1554,4.517,0.0,0.0,0.0,5.3281,5.1534,5.0016,5.1326,5.1944,4.9749,5.2207,5.4073,5.2964,5.2901,5.2552,5.1444,5.0603,4.9986,4.9566,4.9553,4.9565,4.9657,4.9827,4.9738,4.9349,4.9094,4.839,4.7208,4.759,4.754,4.703,4.698,4.6937,4.6937,4.6522,4.6853,4.787,4.83,4.8627,4.8816,4.8518,4.8232,4.8081,4.8336,4.8537,4.8605,4.8824,4.876,4.8401,4.7942,4.7584,4.7262,4.6673,4.6509,4.6474,4.6333,4.6262,4.6223,4.6223,4.6187,4.6116,4.6116,4.5935,4.5846,4.6105,4.6081,4.623,4.7096,4.7581,4.7915,4.7905,4.8028,4.7928,4.7396,4.7309,4.7309,4.7309,4.7309,4.7309,4.7309,4.7309,4.7309,4.7309,4.7309,4.7113,4.6581,4.6286,4.6005,4.5747,4.5293,4.515,4.5562,4.4941,4.4024,4.2802,4.2604,4.2503,4.2551,4.2204,4.2046,4.2046,4.162,4.1987,4.3001,4.2425,4.2962,2.4646,2.5601,2.7888,3.5729,3.9246,0.0,4.7587,5.129,5.3629,5.3692,0.0,5.1954,5.2681,5.2333,5.1963,5.2168,5.2813,5.3035,5.2263,5.1605,5.0906,5.0168,4.9321,4.8586,4.804,4.7967,4.8334,4.9213,4.9036,4.8935,4.9181,4.8445,4.7665,4.6902,4.651,4.6262,4.6262,4.6262,4.6262,4.6262,4.6262,4.6369,4.658,4.7291,4.8006,4.8731,4.7942,4.7191,4.6612,4.7287,4.7684,4.789,4.8357,4.8156,4.7541,4.7397,4.6873,4.6298,4.6227,4.6227,4.6227,4.6191,4.6116,4.604,4.6076,4.5968,4.5787,4.5719,4.4986,4.435,4.4983,4.4539,4.4448,4.6655,4.7219,4.7249,4.7309,4.7309,4.7309,4.7309,4.7309,4.7309,4.7309,4.7309,4.7309,4.7309,4.7266,4.7266,4.7309,4.7266,4.7236,4.7219,4.7176,4.7176,4.7219,4.6423,4.6024,4.6092,4.5471,4.4638,4.3654,4.3496,4.3678,4.4206,4.3537,4.3189,4.3159,4.3189,4.3556,4.4191,4.3564,4.3842,2.5765,2.8916,0.0,3.557,4.0749,4.5662,4.7681,4.9078,5.0153,5.069,5.0153,4.9773,5.0469,5.0943,5.1236,5.1277,5.1846,5.2068,5.1371,5.0795,5.0136,4.9282,4.8631,4.8009,4.7384,4.7983,4.8253,4.7869,4.8317,4.8083,4.6884,4.713,4.6675,4.5263,4.5822,4.6076,4.59,4.59,4.59,4.59,4.59,4.6008,4.6223,4.6635,4.6834,4.6888,4.6869,4.6599,4.6255,4.649,4.666,4.6696,4.6785,4.6753,4.6593,4.6557,4.6426,4.6227,4.5832,4.5687,4.5651,4.5505,4.5431,4.5431,4.5755,4.5859,4.5682,4.5142,4.4624,4.4273,4.4429,4.3888,4.3734,4.5769,4.6403,4.6681,4.7189,4.7309,4.7309,4.7309,4.7309,4.7309,4.7309,4.7309,4.7309,4.7309,4.7106,4.7062,4.7266,4.7106,4.6883,4.6548,4.636,4.6317,4.6488,4.6027,4.5973,4.6664,4.6129,4.5878,4.6016,4.5012,4.4135,4.3514,4.4363,4.4616,4.4244,4.4717,4.518,4.5503,4.3988,4.4197,2.6627,0.0,0.0,3.74,0.0,4.5304,4.5896,4.6317,4.6665,4.7088,4.7832,4.8825,5.0184,5.0184,5.0074,5.0271,5.0192,5.0009,4.9464,4.9012,4.8555,4.8243,4.7749,4.7273,4.6684,4.708,4.7308,4.7244,4.7308,4.6952,4.6148,4.6008,4.5425,4.4275,4.5009,4.5393,4.5286,4.5634,4.5823,4.5823,4.5823,4.5932,4.6112,4.6333,4.6369,4.6223,4.633,4.6259,4.6112,4.6187,4.6259,4.6298,4.6223,4.6187,4.6187,4.6116,4.608,4.5972,4.5363,4.5179,4.5104,4.4692,4.4579,4.4617,4.4836,4.5024,4.5098,4.4541,4.4159,4.3901,4.3748,4.3404,4.3484,4.4883,4.5476,4.6112,4.71,4.7309,4.7309,4.7309,4.7309,4.7309,4.7309,4.7309,4.7309,4.7309,4.7149,4.7149,4.7266,4.7149,4.703,4.6787,4.6672,4.6658,4.6761,4.6355,4.627,4.6726,4.6372,4.6402,4.6992,4.6339,4.5406,4.4262,4.5023,4.5459,4.5552,4.5764,4.5831,4.5753,4.4967,4.5079,2.6988,0.0,3.141,3.9156,4.2222,0.0,4.3597,4.3822,4.405,4.4154,4.5826,4.7725,4.9472,4.8927,4.8339,4.8807,4.8387,4.7978,4.779,4.7285,4.7044,4.7317,4.6743,4.6217,4.5881,4.579,4.5953,4.6525,4.6048,4.5667,4.5543,4.4886,4.4243,4.3545,4.424,4.465,4.4717,4.5444,4.5823,4.5823,4.5697,4.5706,4.5885,4.5833,4.5964,4.6112,4.6112,4.6076,4.604,4.604,4.6116,4.6191,4.608,4.604,4.604,4.5859,4.5823,4.5682,4.5067,4.4774,4.4586,4.4082,4.3849,4.381,4.3966,4.4266,4.4381,4.3966,4.3654,4.3379,4.297,4.3019,4.3286,4.4001,4.4672,4.558,4.6924,4.7266,4.7309,4.7309,4.7309,4.7309,4.7309,4.7309,4.7309,4.7309,4.7266,4.7266,4.7309,4.7222,4.7209,4.7372,4.7282,4.7225,4.7302,4.686,4.6565,4.6565,4.6358,4.6491,4.7008,4.7106,4.6618,4.5566,4.5565,4.5858,4.6491,4.646,4.5986,4.5106,4.555,4.5823,2.6375,0.0,3.4262,0.0,4.0515,4.2136,0.0,0.0,4.4188,0.0,4.4371,4.4614,4.49,4.5108,4.5476,4.6181,4.6829,4.7416,4.7962,4.7116,4.661,4.7071,4.5476,4.4516,4.4847,4.4516,4.4334,4.4397,4.4334,4.4015,4.3345,4.3651,4.3548,4.2853,4.3857,4.452,4.4717,4.5444,4.5823,4.5792,4.5159,4.4843,4.4879,4.431,4.4795,4.6112,4.6112,4.6004,4.5859,4.5859,4.5859,4.5864,4.5859,4.5859,4.5859,4.5823,4.5823,4.5682,4.5098,4.4617,4.4274,4.4004,4.3654,4.3536,4.4305,4.4266,4.3927,4.3693,4.3379,4.297,4.2351,4.2398,4.2685,4.337,4.4137,4.5115,4.6634,4.7149,4.7309,4.7309,4.7309,4.7309,4.7309,4.7309,4.7309,4.7309,4.7106,4.7019,4.7266,4.6961,4.6993,4.7748,4.7155,4.6934,4.745,4.6755,4.6343,4.6343,4.6092,4.5989,4.6063,4.63,4.6447,4.6417,4.6005,4.5916,4.6005,4.6785,4.5945,4.3611,4.4489,4.5076,2.5891,2.929,3.2997,0.0,3.7596,3.8987,3.9168,4.0347,4.1435,4.156,4.2045,4.2941,4.4437,4.4522,4.4484,4.4979,4.4878,4.4941,4.5434,4.4854,4.4657,4.5288,4.4484,4.3902,4.4117,4.3965,4.3844,4.3844,4.3495,4.3115,4.2829,4.2602,4.2534,4.2525,4.3217,4.3874,4.4329,4.4652,4.462,4.4302,4.358,4.3455,4.3831,4.3141,4.3724,4.5267,4.4918,4.4914,4.5191,4.5191,4.5444,4.5823,4.5823,4.5823,4.5823,4.5823,4.5573,4.5142,4.4541,4.3966,4.3457,4.305,4.2533,4.2128,4.2406,4.2456,4.2406,4.1968,4.2262,4.2526,4.2022,4.2324,4.2927,4.3568,4.4381,4.5257,4.6285,4.6712,4.6931,4.7062,4.7062,4.7106,4.7266,4.7309,4.7309,4.7309,4.7521,4.7672,4.7672,4.7778,4.7969,4.819,4.7893,4.7698,4.7825,4.7499,4.7365,4.7466,4.6945,4.6384,4.5933,4.6027,4.6133,4.6207,4.6006,4.5903,4.5888,4.63,4.5653,4.4035,4.3944,4.4388,0.0,0.0,2.9387,3.2736,3.4563,3.5768,0.0,0.0,3.9105,0.0,4.0259,4.1527,4.3715,4.3676,4.3384,4.381,4.3068,4.2683,4.333,4.2972,4.2997,4.3888,4.3493,4.3263,4.3453,4.3295,4.3169,4.3169,4.2695,4.241,4.241,4.184,4.1708,4.2108,4.2799,4.3353,4.3826,4.3961,4.3747,4.318,4.2427,4.2365,4.2899,4.2147,4.2664,4.4008,4.3724,4.3976,4.4575,4.4575,4.5016,4.5677,4.5677,4.5677,4.5609,4.5348,4.4929,4.4384,4.3625,4.2986,4.2426,4.1854,4.1366,4.0995,4.0712,4.1007,4.1279,4.0769,4.1365,4.2063,4.1702,4.2205,4.2967,4.3545,4.4443,4.5347,4.6123,4.6447,4.6668,4.6887,4.6931,4.6975,4.7266,4.7309,4.7326,4.7431,4.788,4.8149,4.8074,4.8459,4.8722,4.8732,4.8521,4.84,4.836,4.8319,4.8348,4.8384,4.7637,4.6929,4.6258,4.6015,4.5875,4.5895,4.5913,4.5739,4.5388,4.5727,4.5566,4.4907,4.4209,4.4401,0.0,1.9103,0.0,2.9494,3.187,3.3304,0.0,0.0,3.8695,3.952,3.9628,3.9862,4.0759,4.1108,4.1438,4.2109,4.1629,4.1661,4.3037,4.2491,4.2456,4.3824,4.2639,4.1968,4.2663,4.2094,4.1683,4.1683,4.1683,4.1652,4.1652,4.1454,4.1323,4.1353,4.2793,4.3407,4.3176,4.3831,4.3831,4.3114,4.2427,4.2115,4.2115,4.146,4.1554,4.2275,4.2931,4.3586,4.4242,4.4242,4.4617,4.5204,4.5204,4.5204,4.5104,4.4093,4.3698,4.3494,4.2227,4.1528,4.1101,4.0744,4.0681,4.0735,4.035,4.0775,4.135,4.114,4.1254,4.1438,4.1438,4.1853,4.2424,4.2696,4.3704,4.4993,4.6285,4.6609,4.6668,4.6887,4.6931,4.6975,4.7266,4.7309,4.7431,4.7807,4.7926,4.803,4.8424,4.8311,4.8453,4.9351,4.8647,4.836,4.8975,4.8928,4.8723,4.8384,4.7648,4.7194,4.7165,4.6347,4.5895,4.5895,4.5895,4.5312,4.4121,4.533,4.5859,4.5819,4.5513,4.5433,0.0,0.0,0.0,2.534,2.7666,2.9357,3.0252,3.3217,3.5877,3.6163,3.7362,3.8432,3.8716,3.9771,4.0694,4.1042,4.082,4.076,4.1274,4.1341,4.1534,4.1914,4.1719,4.1525,4.1367,4.0985,4.0827,4.0956,4.0827,4.0951,4.1392,4.1357,4.1377,4.1607,4.2385,4.2869,4.3159,4.3592,4.3252,4.2138,4.1891,4.155,4.1052,4.0804,4.0835,4.1082,4.1365,4.2248,4.3488,4.3488,4.4174,4.5167,4.5167,4.4954,4.4481,4.4122,4.3174,4.2047,4.1581,4.0837,4.0079,3.9921,3.9646,3.9315,3.9047,3.9145,3.9309,3.9093,3.952,4.0076,4.0474,4.0842,4.1508,4.2926,4.3964,4.486,4.5929,4.6225,4.6403,4.6668,4.7037,4.7303,4.7108,4.7777,4.8194,4.7717,4.8397,4.8925,4.8881,4.9168,4.952,4.985,4.9578,4.9472,4.9706,4.9714,4.953,4.9262,4.8981,4.8584,4.8177,4.7224,4.6674,4.6505,4.6098,4.5676,4.5209,4.512,4.5357,4.5888,4.5638,4.5782,2.2957,0.0,0.0,0.0,2.4552,2.567,2.7411,3.0374,3.3014,3.3876,3.5429,3.6633,3.6685,3.7791,3.8893,3.9405,3.9134,3.902,3.9411,3.9742,4.0067,4.0325,4.0673,4.0704,4.0229,4.0038,4.0005,4.0101,4.0193,4.0408,4.0878,4.1031,4.1423,4.2041,4.2288,4.2803,4.3685,4.3624,4.3125,4.2191,4.1766,4.1304,4.0743,4.0562,4.047,4.0436,4.0436,4.1256,4.2625,4.2838,4.365,4.4707,4.4924,4.4576,4.3851,4.3488,4.2419,4.101,4.0434,3.9797,3.9129,3.8853,3.8631,3.8393,3.7997,3.8145,3.8347,3.8002,3.8505,3.9247,3.9828,4.0517,4.1411,4.2968,4.4004,4.4758,4.5325,4.581,4.618,4.6403,4.6844,4.7081,4.6903,4.7763,4.8279,4.7906,4.8698,4.9351,4.9318,4.9678,4.999,5.0086,5.0038,4.999,5.0086,5.0038,4.9892,4.9717,4.9465,4.9175,4.874,4.7891,4.7178,4.6807,4.6417,4.6098,4.5895,4.5351,4.5236,4.5591,4.5727,4.6195,0.0,0.0,0.0,0.0,0.0,0.0,2.7326,0.0,3.0312,3.2919,3.3937,3.4447,3.4601,3.5128,3.5927,3.7166,3.6605,3.6451,3.7662,3.774,3.8102,3.9313,3.9471,3.9408,3.9283,3.9282,3.9219,3.909,3.9713,4.0088,4.0119,4.0544,4.133,4.254,4.2571,4.3217,4.4548,4.3901,4.3451,4.3234,4.2093,4.1449,4.1179,4.0677,4.0401,4.0296,4.0296,4.0764,4.1617,4.2258,4.2971,4.3655,4.4295,4.3997,4.3098,4.2084,4.1234,4.0394,3.8772,3.8344,3.8344,3.7548,3.7675,3.8003,3.7214,3.785,3.8693,3.8046,3.8327,3.8986,3.9592,4.083,4.2077,4.2729,4.3754,4.4598,4.4598,4.5296,4.5956,4.618,4.6225,4.6358,4.68,4.7229,4.7772,4.8391,4.8881,4.9289,4.9659,4.9717,4.9766,5.0086,4.9892,4.9815,5.0086,4.9892,4.9717,4.9717,4.9088,4.874,4.874,4.8159,4.7491,4.6807,4.6807,4.6505,4.5895,4.5895,4.5547,4.4937,4.5859,4.665,2.3,0.0,0.0,0.0,0.0,0.0,0.0,0.0,2.7486,2.9079,3.0392,3.1657,3.3003,3.3297,3.3477,3.3785,3.5219,3.6341,3.6511,3.6858,3.7387,3.8102,3.8461,3.8622,3.8591,3.881,3.8963,0.0,3.9553,4.0075,4.0572,4.0516,4.087,4.1863,4.1756,4.2119,4.3156,4.283,4.2383,4.1857,4.1382,4.0883,4.0325,4.0177,4.0117,4.0081,4.0081,4.0208,4.0522,4.1337,4.2052,4.2726,4.34,4.2718,4.1412,4.1453,4.045,3.9084,3.8745,3.8198,3.7605,3.7552,3.7247,3.6837,3.6631,3.6825,3.7047,3.6881,3.7044,3.7594,3.8833,3.9662,4.0547,4.192,4.2965,4.383,4.4467,4.5296,4.5956,4.618,4.6576,4.6841,4.6712,4.7815,4.8571,4.8278,4.8997,4.9563,4.9717,4.9717,4.9766,5.0086,5.0038,5.0038,5.0086,5.0038,4.9941,4.9717,4.9524,4.9407,4.9407,4.8798,4.8159,4.7521,4.7056,4.6505,4.5895,4.5895,4.5779,4.5649,4.6344,4.68,0.0,0.0,0.0,0.0,0.0,0.0,2.3047,2.4496,2.6262,2.8478,2.9604,3.0443,3.1184,3.1505,3.1517,3.1101,3.2854,3.4356,3.4549,3.5155,3.5851,3.6527,3.6857,3.718,3.7591,3.7499,3.7652,3.8209,3.8593,3.9222,4.017,4.0191,4.0527,4.1306,4.1265,4.1534,4.2346,4.2206,4.1949,4.145,4.117,4.0764,4.0298,4.0097,3.9975,3.9874,3.9874,3.9803,3.9828,4.0709,4.1486,4.2193,4.2599,4.2274,4.146,4.0914,4.0194,3.932,3.8638,3.8086,3.7625,3.7514,3.6995,3.6405,3.6405,3.6405,3.6405,3.6405,3.6678,3.7186,3.8322,3.9061,3.983,4.1025,4.2363,4.3455,4.396,4.5004,4.5911,4.6046,4.6382,4.6706,4.6843,4.7775,4.8559,4.8518,4.927,4.9892,4.9892,4.999,5.0086,5.0231,5.0183,5.0086,5.0086,4.999,4.9892,4.9717,4.9717,4.9717,4.9717,4.932,4.8827,4.8188,4.755,4.6795,4.5895,4.5895,4.5911,4.5898,4.6343,4.6535,0.0,0.0,0.0,0.0,0.0,0.0,2.4901,2.51,2.5527,2.8817,2.9486,2.9341,2.8821,2.925,2.9453,2.8657,2.9716,3.1063,3.2311,3.3125,3.3927,3.4879,3.5077,3.5498,3.6476,3.6014,3.6075,3.7016,3.7274,3.7958,3.932,3.9696,4.0177,4.0861,4.0891,4.1128,4.1771,4.1771,4.1661,4.1482,4.1019,4.0716,4.054,4.0111,3.9869,3.9661,3.9661,3.9583,3.9559,4.0341,4.1133,4.1879,4.2004,4.2234,4.2192,4.045,4.006,4.014,3.8422,3.7889,3.7845,3.7423,3.6821,3.6286,3.6286,3.6286,3.6286,3.6286,3.6671,3.7262,3.7993,3.8755,3.9507,4.0232,4.1846,4.3253,4.3297,4.4656,4.585,4.5895,4.5924,4.6276,4.7086,4.7619,4.8166,4.9033,4.9677,5.0086,5.0135,5.0357,5.0501,5.0453,5.0279,5.0135,5.0038,4.9892,4.9717,4.9717,4.9717,4.9717,4.9717,4.9717,4.9378,4.8692,4.8043,4.7114,4.5879,4.5895,4.5927,4.59,4.6048,4.6078,0.0,0.0,0.0,0.0,0.0,0.0,2.2526,2.2039,2.1877,2.2941,2.3196,2.3433,2.4241,2.4539,2.471,2.4926,2.5824,2.7729,3.127,3.2389,3.3195,3.4187,3.4537,3.499,3.5644,3.6319,3.6607,3.642,3.691,3.7804,3.9096,3.909,3.9367,4.0157,4.0051,4.0111,4.0405,4.0232,4.016,4.0094,3.9824,3.9691,3.9625,3.9541,3.9481,3.9445,3.9445,3.9745,4.0217,4.0374,4.0641,4.1066,4.2092,4.1713,4.0539,4.0058,3.9287,3.8354,3.7641,3.7238,3.6995,3.7042,3.6389,3.5616,3.5616,3.5494,3.5413,3.5575,3.5697,3.6103,3.7592,3.82,3.8768,4.0077,4.1715,4.3032,4.3253,4.4522,4.564,4.585,4.6301,4.6754,4.7144,4.7922,4.8738,4.9328,4.982,5.0183,5.0405,5.0453,5.0405,5.0183,5.0357,5.0231,4.9815,4.9941,4.9941,4.9717,4.9717,4.9717,4.9717,4.9717,4.9378,4.8692,4.7608,4.6628,4.5878,4.5921,4.5911,4.5882,4.5929,4.6018,0.0,0.0,0.0,2.4246,0.0,0.0,0.0,2.3021,2.2806,2.4006,2.3959,2.3784,2.4042,2.4079,2.3838,2.3016,2.4455,2.5982,2.6989,2.9284,3.1343,3.2685,3.2943,3.3554,3.4942,3.4931,3.5001,3.5466,3.6382,3.7255,3.7994,3.8352,3.8686,3.909,3.9301,3.9445,3.9553,3.9553,3.9703,4.0034,3.9955,4.0068,4.0397,4.0068,3.9918,3.9881,3.9808,3.9913,4.0308,4.0964,4.1203,4.1224,4.1381,4.1339,4.1058,3.9643,3.8921,3.8531,3.7593,3.6934,3.6483,3.6482,3.5722,3.4794,3.4794,3.4714,3.4673,3.4754,3.509,3.5642,3.6808,3.7577,3.842,3.9877,4.1539,4.2923,4.343,4.4588,4.5549,4.564,4.6558,4.7364,4.7503,4.8148,4.8923,4.9703,5.0074,5.0375,5.0614,5.0757,5.0757,5.0489,5.0537,5.0471,4.999,5.0038,4.999,4.9717,4.9717,4.9717,4.9717,4.9717,4.9378,4.8692,4.8054,4.7456,4.6871,4.6657,4.6297,4.594,4.6255,4.6255,0.0,0.0,0.0,0.0,0.0,2.4687,0.0,0.0,0.0,2.578,0.0,0.0,0.0,0.0,0.0,2.1475,0.0,0.0,0.0,2.531,0.0,3.019,3.0905,3.1921,3.3548,3.2697,3.2709,3.4372,3.5178,3.5891,3.6676,3.7577,3.8089,3.8202,3.876,3.9017,3.9017,3.9311,3.9675,4.0174,4.0405,4.0726,4.1012,4.0547,4.0286,4.0137,4.0062,4.0054,4.0143,4.1418,4.1706,4.1341,4.0891,4.1167,4.1621,3.9282,3.8581,3.8615,3.7308,3.6461,3.5841,3.5633,3.4897,3.3979,3.3833,3.4006,3.4165,3.4032,3.4633,3.5397,3.5987,3.6983,3.8139,3.9467,4.1163,4.2756,4.346,4.455,4.5487,4.5677,4.6859,4.7782,4.7782,4.8468,4.9232,5.0076,5.0375,5.0614,5.087,5.1178,5.1208,5.0775,5.0894,5.0733,5.0145,5.0135,5.0009,4.9717,4.9688,4.9688,4.9717,4.9717,4.9436,4.8914,4.8798,4.8478,4.7956,4.7525,4.6888,4.6114,4.686,4.6742,0.0,0.0,0.0,0.0,2.4605,0.0,0.0,0.0,2.2755,2.2395,0.0,0.0,0.0,0.0,0.0,0.0,0.0,0.0,1.9616,2.1529,2.3753,2.5764,2.8855,3.0594,3.0131,2.9957,3.0845,3.3303,3.2254,3.2692,3.5526,3.6775,3.7634,3.8165,3.8612,3.8833,3.8833,3.9461,3.9597,3.9275,4.0465,4.0529,3.9653,3.9988,3.9807,3.9275,3.9686,3.9837,3.9925,4.1185,4.1234,4.0479,4.1616,4.1394,4.0177,3.8935,3.7717,3.6547,3.5857,3.5103,3.4393,3.4191,3.3762,3.3187,3.2533,3.3157,3.4007,3.3528,3.4103,3.5012,3.5526,3.6619,3.7791,3.8687,4.0636,4.2362,4.2895,4.4146,4.5402,4.6206,4.7178,4.7782,4.7782,4.8989,5.0047,5.0375,5.0662,5.087,5.1105,5.169,5.1667,5.0655,5.1243,5.1187,4.9873,4.9999,5.0047,4.9717,4.9698,4.9698,4.9717,4.9717,4.964,4.9582,4.9001,4.8682,4.8624,4.8014,4.7404,4.6737,4.7821,4.7451,0.0,0.0,0.0,0.0,0.0,0.0,2.5129,0.0,2.3131,0.0,0.0,0.0,0.0,0.0,0.0,0.0,2.0647,0.0,0.0,0.0,2.295,2.3876,0.0,0.0,2.8053,2.9142,3.0475,3.2182,3.1622,3.2327,3.4888,3.6223,3.6869,3.6744,3.791,3.8572,3.861,3.9425,4.0068,4.0617,4.091,4.1153,4.1273,4.0831,4.0451,4.0061,4.0099,3.9933,3.9736,4.0989,4.0977,4.0176,4.0781,4.019,3.8824,3.7634,3.6781,3.5972,3.4913,3.4552,3.4362,3.3354,3.2823,3.2412,3.1766,3.2217,3.2967,3.3044,3.3814,3.4721,3.5299,3.6391,3.7659,3.8999,4.0421,4.182,4.3133,4.4015,4.4972,4.6235,4.7207,4.7945,4.8482,4.9424,5.0231,5.0614,5.0728,5.0917,5.1182,5.1798,5.1954,5.1302,5.1913,5.1719,5.0096,5.0389,5.0486,5.0048,4.9786,4.9708,4.9717,4.9717,4.9717,4.9717,4.9407,4.9262,4.9262,4.9001,4.8774,4.8521,4.8686,4.838,2.9636,0.0,0.0,0.0,0.0,0.0,0.0,0.0,0.0,0.0,0.0,0.0,0.0,0.0,0.0,0.0,0.0,2.1452,0.0,2.0182,0.0,0.0,0.0,0.0,0.0,2.7598,2.887,3.0472,3.0537,3.155,3.3948,3.5758,3.6454,3.5859,3.7634,3.853,3.8342,3.944,4.0265,4.0874,4.0937,4.1254,4.1728,4.1052,4.0538,4.0265,4.0157,3.977,3.9244,4.05,4.04,3.9419,3.941,3.8656,3.7387,3.64,3.5785,3.5269,3.423,3.4068,3.4047,3.2495,3.1932,3.1796,3.1236,3.1607,3.2311,3.272,3.3627,3.4653,3.5096,3.6267,3.7688,3.9005,4.0151,4.1407,4.3144,4.4015,4.4915,4.6436,4.7514,4.8494,4.9567,5.0026,5.0327,5.0728,5.087,5.1024,5.1421,5.2067,5.239,5.21,5.2645,5.2368,5.0925,5.0778,5.0573,5.0116,4.9853,4.9707,4.9669,4.9717,4.9717,4.9717,4.9717,4.9815,5.0009,5.0009,5.0224,5.0667,4.964,4.9027,0.0,0.0,0.0,2.8959,0.0,0.0,0.0,0.0,2.5555,0.0,0.0,0.0,0.0,0.0,0.0,0.0,0.0,0.0,0.0,0.0,0.0,0.0,0.0,0.0,0.0,2.4258,2.4826,2.7807,2.8016,2.9309,3.2304,3.5414,3.6795,3.6219,3.8073,3.8736,3.8021,3.9574,3.9829,3.8812,4.0308,4.0417,3.9397,3.9844,3.9589,3.8902,3.9337,3.9032,3.8318,3.9596,3.9159,3.77,3.7669,3.6889,3.5764,3.5521,3.478,3.3938,3.3911,3.348,3.2726,3.1385,3.116,3.1326,3.0758,3.1524,3.259,3.259,3.37,3.4891,3.4917,3.6271,3.7802,3.8309,3.9716,4.1252,4.2653,4.4117,4.5602,4.7069,4.8294,4.9567,5.1179,5.0884,5.0567,5.0775,5.1011,5.1391,5.2097,5.2725,5.3047,5.2832,5.3127,5.3095,5.2387,5.1011,5.0115,4.9766,4.9725,4.9692,4.9698,4.9717,4.9717,4.9717,4.9717,5.0057,5.0745,5.0745,5.1496,5.2843,5.075,4.937,0.0,0.0,3.4394,3.1436,0.0,0.0,0.0,0.0,0.0,0.0,0.0,0.0,0.0,0.0,0.0,0.0,0.0,0.0,0.0,0.0,0.0,0.0,0.0,0.0,0.0,0.0,2.6097,2.8394,2.9188,3.0901,3.4024,3.5719,3.6278,3.5705,3.723,3.8156,3.8258,3.9073,3.948,3.9424,3.9735,3.9644,3.9216,3.9855,3.9971,3.9687,4.0302,3.9902,3.8928,3.9741,3.9286,3.7996,3.8036,3.7051,3.5495,3.4701,3.4348,3.4192,3.4095,3.3163,3.198,3.1398,3.122,3.1066,3.0422,3.1141,3.2231,3.2607,3.3536,3.4663,3.5583,3.6653,3.7688,3.8505,3.9557,4.0796,4.254,4.3775,4.5161,4.7247,4.8464,4.945,5.0629,5.1147,5.1457,5.1667,5.181,5.1947,5.2187,5.3563,5.4341,5.3774,5.4416,5.4726,5.4168,5.2502,5.1528,5.1606,5.0418,4.9968,5.0522,5.0008,4.997,5.0554,5.0145,5.0132,5.0406,5.0862,5.162,5.2675,5.1233,5.0646,3.6926,3.7113,0.0,3.3667,3.2998,0.0,3.0024,0.0,2.6945,0.0,0.0,0.0,0.0,0.0,0.0,0.0,0.0,0.0,0.0,2.2074,0.0,0.0,0.0,0.0,0.0,2.3985,2.5825,2.7518,2.9177,3.1112,3.3343,3.5315,3.5984,3.5175,3.6881,3.79,3.8078,3.8695,3.9059,3.9259,3.9102,3.9119,3.9302,3.9818,4.0109,4.0218,4.067,4.022,3.9247,3.9625,3.916,3.8185,3.7937,3.6973,3.5636,3.4539,3.4082,3.397,3.3885,3.3139,3.2104,3.1496,3.129,3.1067,3.0228,3.0811,3.1851,3.235,3.3401,3.4635,3.5731,3.685,3.7873,3.8738,3.9605,4.088,4.2822,4.4117,4.5522,4.7829,4.9004,4.9974,5.1128,5.1843,5.2293,5.2199,5.2396,5.2636,5.2875,5.4251,5.5029,5.461,5.5377,5.57,5.4989,5.4364,5.3736,5.3152,5.2021,5.1425,5.1639,5.0788,5.0613,5.1268,5.0795,5.0674,5.106,5.1576,5.226,5.3103,5.1868,5.1529]}]]